<?xml version="1.0" encoding="UTF-8" standalone="no" ?>
<gpx xmlns="http://www.topografix.com/GPX/1/1" creator="MapSource 6.15.11" version="1.1" xmlns:xsi="http://www.w3.org/2001/XMLSchema-instance" xsi:schemaLocation="http://www.topografix.com/GPX/1/1 http://www.topografix.com/GPX/1/1/gpx.xsd">

  <metadata>
    <link href="http://www.garmin.com">
      <text>Garmin International</text>
    </link>
    <time>2010-04-06T16:48:23Z</time>
    <bounds maxlat="47.9509560" maxlon="12.9857610" minlat="47.8435060" minlon="12.8538800"/>
  </metadata>

  <trk>
    <name>Berg-Höfenersee</name>
    <extensions>
      <gpxx:TrackExtension xmlns:gpxx="http://www.garmin.com/xmlschemas/GpxExtensions/v3">
        <gpxx:DisplayColor>White</gpxx:DisplayColor>
      </gpxx:TrackExtension>
    </extensions>
    <trkseg>
      <trkpt lat="47.8506960" lon="12.9833700">
        <ele>390.4300000</ele>
        <time>2010-04-06T10:50:33Z</time>
      </trkpt>
      <trkpt lat="47.8506880" lon="12.9833750">
        <ele>396.2000000</ele>
        <time>2010-04-06T10:50:38Z</time>
      </trkpt>
      <trkpt lat="47.8506810" lon="12.9833740">
        <ele>398.6000000</ele>
        <time>2010-04-06T10:50:43Z</time>
      </trkpt>
      <trkpt lat="47.8506700" lon="12.9833700">
        <ele>401.9700000</ele>
        <time>2010-04-06T10:50:48Z</time>
      </trkpt>
      <trkpt lat="47.8506640" lon="12.9833600">
        <ele>402.9300000</ele>
        <time>2010-04-06T10:50:53Z</time>
      </trkpt>
      <trkpt lat="47.8506630" lon="12.9833530">
        <ele>404.8500000</ele>
        <time>2010-04-06T10:50:58Z</time>
      </trkpt>
      <trkpt lat="47.8506630" lon="12.9833350">
        <ele>405.3300000</ele>
        <time>2010-04-06T10:51:03Z</time>
      </trkpt>
      <trkpt lat="47.8506570" lon="12.9833430">
        <ele>407.2600000</ele>
        <time>2010-04-06T10:51:08Z</time>
      </trkpt>
      <trkpt lat="47.8506480" lon="12.9833470">
        <ele>407.7400000</ele>
        <time>2010-04-06T10:51:13Z</time>
      </trkpt>
      <trkpt lat="47.8506510" lon="12.9833070">
        <ele>408.2200000</ele>
        <time>2010-04-06T10:51:18Z</time>
      </trkpt>
      <trkpt lat="47.8506460" lon="12.9833110">
        <ele>408.7000000</ele>
        <time>2010-04-06T10:51:23Z</time>
      </trkpt>
      <trkpt lat="47.8506510" lon="12.9833080">
        <ele>409.1800000</ele>
        <time>2010-04-06T10:51:28Z</time>
      </trkpt>
      <trkpt lat="47.8506570" lon="12.9833090">
        <ele>409.1800000</ele>
        <time>2010-04-06T10:51:33Z</time>
      </trkpt>
      <trkpt lat="47.8506570" lon="12.9833140">
        <ele>409.1800000</ele>
        <time>2010-04-06T10:51:38Z</time>
      </trkpt>
      <trkpt lat="47.8506570" lon="12.9833140">
        <ele>408.7000000</ele>
        <time>2010-04-06T10:51:43Z</time>
      </trkpt>
      <trkpt lat="47.8506600" lon="12.9833150">
        <ele>409.1800000</ele>
        <time>2010-04-06T10:51:48Z</time>
      </trkpt>
      <trkpt lat="47.8506570" lon="12.9833240">
        <ele>409.1800000</ele>
        <time>2010-04-06T10:51:54Z</time>
      </trkpt>
      <trkpt lat="47.8506650" lon="12.9833580">
        <ele>409.1800000</ele>
        <time>2010-04-06T10:51:59Z</time>
      </trkpt>
      <trkpt lat="47.8506650" lon="12.9833580">
        <ele>409.1800000</ele>
        <time>2010-04-06T10:52:04Z</time>
      </trkpt>
      <trkpt lat="47.8506650" lon="12.9833580">
        <ele>409.1800000</ele>
        <time>2010-04-06T10:52:09Z</time>
      </trkpt>
      <trkpt lat="47.8506650" lon="12.9833580">
        <ele>409.6600000</ele>
        <time>2010-04-06T10:52:14Z</time>
      </trkpt>
      <trkpt lat="47.8506650" lon="12.9833580">
        <ele>409.6600000</ele>
        <time>2010-04-06T10:52:19Z</time>
      </trkpt>
      <trkpt lat="47.8506870" lon="12.9833440">
        <ele>409.1800000</ele>
        <time>2010-04-06T10:52:24Z</time>
      </trkpt>
      <trkpt lat="47.8507130" lon="12.9833250">
        <ele>409.1800000</ele>
        <time>2010-04-06T10:52:29Z</time>
      </trkpt>
      <trkpt lat="47.8507360" lon="12.9832890">
        <ele>409.1800000</ele>
        <time>2010-04-06T10:52:34Z</time>
      </trkpt>
      <trkpt lat="47.8507360" lon="12.9832890">
        <ele>409.1800000</ele>
        <time>2010-04-06T10:52:39Z</time>
      </trkpt>
      <trkpt lat="47.8507360" lon="12.9832890">
        <ele>409.1800000</ele>
        <time>2010-04-06T10:52:44Z</time>
      </trkpt>
      <trkpt lat="47.8507360" lon="12.9832850">
        <ele>409.6600000</ele>
        <time>2010-04-06T10:52:49Z</time>
      </trkpt>
      <trkpt lat="47.8507350" lon="12.9832810">
        <ele>409.1800000</ele>
        <time>2010-04-06T10:52:54Z</time>
      </trkpt>
      <trkpt lat="47.8507350" lon="12.9832810">
        <ele>409.6600000</ele>
        <time>2010-04-06T10:52:59Z</time>
      </trkpt>
      <trkpt lat="47.8507330" lon="12.9832810">
        <ele>409.6600000</ele>
        <time>2010-04-06T10:53:04Z</time>
      </trkpt>
      <trkpt lat="47.8507330" lon="12.9832730">
        <ele>409.6600000</ele>
        <time>2010-04-06T10:53:09Z</time>
      </trkpt>
      <trkpt lat="47.8507330" lon="12.9832730">
        <ele>409.6600000</ele>
        <time>2010-04-06T10:53:14Z</time>
      </trkpt>
      <trkpt lat="47.8507340" lon="12.9832710">
        <ele>409.1800000</ele>
        <time>2010-04-06T10:53:19Z</time>
      </trkpt>
      <trkpt lat="47.8507330" lon="12.9832690">
        <ele>409.6600000</ele>
        <time>2010-04-06T10:53:24Z</time>
      </trkpt>
      <trkpt lat="47.8507380" lon="12.9832700">
        <ele>409.6600000</ele>
        <time>2010-04-06T10:53:29Z</time>
      </trkpt>
      <trkpt lat="47.8507370" lon="12.9832890">
        <ele>409.6600000</ele>
        <time>2010-04-06T10:53:34Z</time>
      </trkpt>
      <trkpt lat="47.8507350" lon="12.9832870">
        <ele>409.6600000</ele>
        <time>2010-04-06T10:53:39Z</time>
      </trkpt>
      <trkpt lat="47.8507350" lon="12.9832950">
        <ele>409.6600000</ele>
        <time>2010-04-06T10:53:44Z</time>
      </trkpt>
      <trkpt lat="47.8507350" lon="12.9832950">
        <ele>409.6600000</ele>
        <time>2010-04-06T10:53:49Z</time>
      </trkpt>
      <trkpt lat="47.8507420" lon="12.9832750">
        <ele>410.1400000</ele>
        <time>2010-04-06T10:53:54Z</time>
      </trkpt>
      <trkpt lat="47.8507450" lon="12.9832670">
        <ele>409.6600000</ele>
        <time>2010-04-06T10:53:59Z</time>
      </trkpt>
      <trkpt lat="47.8507450" lon="12.9832670">
        <ele>410.1400000</ele>
        <time>2010-04-06T10:54:04Z</time>
      </trkpt>
      <trkpt lat="47.8507450" lon="12.9832670">
        <ele>410.1400000</ele>
        <time>2010-04-06T10:54:08Z</time>
      </trkpt>
      <trkpt lat="47.8507450" lon="12.9832670">
        <ele>410.1400000</ele>
        <time>2010-04-06T10:54:14Z</time>
      </trkpt>
      <trkpt lat="47.8507450" lon="12.9832670">
        <ele>410.6200000</ele>
        <time>2010-04-06T10:54:19Z</time>
      </trkpt>
      <trkpt lat="47.8507500" lon="12.9832810">
        <ele>410.1400000</ele>
        <time>2010-04-06T10:54:24Z</time>
      </trkpt>
      <trkpt lat="47.8507530" lon="12.9832870">
        <ele>410.6200000</ele>
        <time>2010-04-06T10:54:29Z</time>
      </trkpt>
      <trkpt lat="47.8507530" lon="12.9832870">
        <ele>410.1400000</ele>
        <time>2010-04-06T10:54:34Z</time>
      </trkpt>
      <trkpt lat="47.8507540" lon="12.9832860">
        <ele>410.1400000</ele>
        <time>2010-04-06T10:54:39Z</time>
      </trkpt>
      <trkpt lat="47.8507540" lon="12.9832860">
        <ele>410.6200000</ele>
        <time>2010-04-06T10:54:44Z</time>
      </trkpt>
      <trkpt lat="47.8507550" lon="12.9832840">
        <ele>410.1400000</ele>
        <time>2010-04-06T10:54:49Z</time>
      </trkpt>
      <trkpt lat="47.8507500" lon="12.9832890">
        <ele>410.6200000</ele>
        <time>2010-04-06T10:54:54Z</time>
      </trkpt>
      <trkpt lat="47.8507560" lon="12.9832820">
        <ele>410.6200000</ele>
        <time>2010-04-06T10:54:59Z</time>
      </trkpt>
      <trkpt lat="47.8507920" lon="12.9832310">
        <ele>410.1400000</ele>
        <time>2010-04-06T10:55:04Z</time>
      </trkpt>
      <trkpt lat="47.8508290" lon="12.9832640">
        <ele>410.1400000</ele>
        <time>2010-04-06T10:55:09Z</time>
      </trkpt>
      <trkpt lat="47.8508700" lon="12.9832930">
        <ele>410.6200000</ele>
        <time>2010-04-06T10:55:14Z</time>
      </trkpt>
      <trkpt lat="47.8508800" lon="12.9833070">
        <ele>410.6200000</ele>
        <time>2010-04-06T10:55:19Z</time>
      </trkpt>
      <trkpt lat="47.8508960" lon="12.9833050">
        <ele>405.8100000</ele>
        <time>2010-04-06T10:55:24Z</time>
      </trkpt>
      <trkpt lat="47.8508960" lon="12.9833050">
        <ele>413.5000000</ele>
        <time>2010-04-06T10:55:29Z</time>
      </trkpt>
      <trkpt lat="47.8508960" lon="12.9833050">
        <ele>410.6200000</ele>
        <time>2010-04-06T10:55:34Z</time>
      </trkpt>
      <trkpt lat="47.8508870" lon="12.9833120">
        <ele>410.6200000</ele>
        <time>2010-04-06T10:55:39Z</time>
      </trkpt>
      <trkpt lat="47.8508870" lon="12.9833120">
        <ele>410.6200000</ele>
        <time>2010-04-06T10:55:44Z</time>
      </trkpt>
      <trkpt lat="47.8508870" lon="12.9833120">
        <ele>411.1000000</ele>
        <time>2010-04-06T10:55:49Z</time>
      </trkpt>
      <trkpt lat="47.8508870" lon="12.9833120">
        <ele>410.6200000</ele>
        <time>2010-04-06T10:55:54Z</time>
      </trkpt>
      <trkpt lat="47.8508870" lon="12.9833120">
        <ele>410.6200000</ele>
        <time>2010-04-06T10:55:59Z</time>
      </trkpt>
      <trkpt lat="47.8508870" lon="12.9833120">
        <ele>410.1400000</ele>
        <time>2010-04-06T10:56:04Z</time>
      </trkpt>
      <trkpt lat="47.8508870" lon="12.9833120">
        <ele>410.6200000</ele>
        <time>2010-04-06T10:56:09Z</time>
      </trkpt>
      <trkpt lat="47.8509160" lon="12.9833150">
        <ele>410.6200000</ele>
        <time>2010-04-06T10:56:14Z</time>
      </trkpt>
      <trkpt lat="47.8509310" lon="12.9833110">
        <ele>410.1400000</ele>
        <time>2010-04-06T10:56:20Z</time>
      </trkpt>
      <trkpt lat="47.8509310" lon="12.9833110">
        <ele>411.1000000</ele>
        <time>2010-04-06T10:56:25Z</time>
      </trkpt>
      <trkpt lat="47.8509590" lon="12.9832850">
        <ele>410.6200000</ele>
        <time>2010-04-06T10:56:30Z</time>
      </trkpt>
      <trkpt lat="47.8509780" lon="12.9832800">
        <ele>410.1400000</ele>
        <time>2010-04-06T10:56:35Z</time>
      </trkpt>
      <trkpt lat="47.8509780" lon="12.9832800">
        <ele>411.1000000</ele>
        <time>2010-04-06T10:56:40Z</time>
      </trkpt>
      <trkpt lat="47.8509780" lon="12.9832800">
        <ele>411.1000000</ele>
        <time>2010-04-06T10:56:45Z</time>
      </trkpt>
      <trkpt lat="47.8510080" lon="12.9831840">
        <ele>410.6200000</ele>
        <time>2010-04-06T10:56:50Z</time>
      </trkpt>
      <trkpt lat="47.8510650" lon="12.9829940">
        <ele>410.1400000</ele>
        <time>2010-04-06T10:56:55Z</time>
      </trkpt>
      <trkpt lat="47.8511290" lon="12.9827630">
        <ele>410.6200000</ele>
        <time>2010-04-06T10:57:00Z</time>
      </trkpt>
      <trkpt lat="47.8511840" lon="12.9825120">
        <ele>410.6200000</ele>
        <time>2010-04-06T10:57:05Z</time>
      </trkpt>
      <trkpt lat="47.8512550" lon="12.9822570">
        <ele>411.5800000</ele>
        <time>2010-04-06T10:57:10Z</time>
      </trkpt>
      <trkpt lat="47.8513180" lon="12.9820080">
        <ele>412.5400000</ele>
        <time>2010-04-06T10:57:15Z</time>
      </trkpt>
      <trkpt lat="47.8512820" lon="12.9818180">
        <ele>412.5400000</ele>
        <time>2010-04-06T10:57:20Z</time>
      </trkpt>
      <trkpt lat="47.8511110" lon="12.9817430">
        <ele>412.5400000</ele>
        <time>2010-04-06T10:57:25Z</time>
      </trkpt>
      <trkpt lat="47.8510060" lon="12.9815440">
        <ele>412.5400000</ele>
        <time>2010-04-06T10:57:30Z</time>
      </trkpt>
      <trkpt lat="47.8509210" lon="12.9813940">
        <ele>412.5400000</ele>
        <time>2010-04-06T10:57:35Z</time>
      </trkpt>
      <trkpt lat="47.8507680" lon="12.9815260">
        <ele>413.0200000</ele>
        <time>2010-04-06T10:57:40Z</time>
      </trkpt>
      <trkpt lat="47.8505840" lon="12.9816550">
        <ele>412.5400000</ele>
        <time>2010-04-06T10:57:45Z</time>
      </trkpt>
      <trkpt lat="47.8504010" lon="12.9816700">
        <ele>412.0600000</ele>
        <time>2010-04-06T10:57:49Z</time>
      </trkpt>
      <trkpt lat="47.8501850" lon="12.9815180">
        <ele>412.5400000</ele>
        <time>2010-04-06T10:57:55Z</time>
      </trkpt>
      <trkpt lat="47.8500340" lon="12.9814130">
        <ele>413.5000000</ele>
        <time>2010-04-06T10:58:00Z</time>
      </trkpt>
      <trkpt lat="47.8498640" lon="12.9813960">
        <ele>413.5000000</ele>
        <time>2010-04-06T10:58:05Z</time>
      </trkpt>
      <trkpt lat="47.8496840" lon="12.9813670">
        <ele>413.5000000</ele>
        <time>2010-04-06T10:58:10Z</time>
      </trkpt>
      <trkpt lat="47.8495130" lon="12.9812900">
        <ele>413.5000000</ele>
        <time>2010-04-06T10:58:15Z</time>
      </trkpt>
      <trkpt lat="47.8493490" lon="12.9811370">
        <ele>413.0200000</ele>
        <time>2010-04-06T10:58:20Z</time>
      </trkpt>
      <trkpt lat="47.8491940" lon="12.9809900">
        <ele>413.5000000</ele>
        <time>2010-04-06T10:58:25Z</time>
      </trkpt>
      <trkpt lat="47.8490400" lon="12.9808380">
        <ele>413.5000000</ele>
        <time>2010-04-06T10:58:30Z</time>
      </trkpt>
      <trkpt lat="47.8489130" lon="12.9806350">
        <ele>413.9800000</ele>
        <time>2010-04-06T10:58:35Z</time>
      </trkpt>
      <trkpt lat="47.8488890" lon="12.9803560">
        <ele>413.5000000</ele>
        <time>2010-04-06T10:58:40Z</time>
      </trkpt>
      <trkpt lat="47.8489080" lon="12.9800660">
        <ele>413.9800000</ele>
        <time>2010-04-06T10:58:45Z</time>
      </trkpt>
      <trkpt lat="47.8489040" lon="12.9797580">
        <ele>414.4700000</ele>
        <time>2010-04-06T10:58:50Z</time>
      </trkpt>
      <trkpt lat="47.8488960" lon="12.9794390">
        <ele>413.9800000</ele>
        <time>2010-04-06T10:58:55Z</time>
      </trkpt>
      <trkpt lat="47.8488780" lon="12.9791440">
        <ele>413.5000000</ele>
        <time>2010-04-06T10:59:00Z</time>
      </trkpt>
      <trkpt lat="47.8487950" lon="12.9788920">
        <ele>414.4700000</ele>
        <time>2010-04-06T10:59:05Z</time>
      </trkpt>
      <trkpt lat="47.8486970" lon="12.9787040">
        <ele>415.4300000</ele>
        <time>2010-04-06T10:59:10Z</time>
      </trkpt>
      <trkpt lat="47.8485460" lon="12.9788010">
        <ele>414.9500000</ele>
        <time>2010-04-06T10:59:15Z</time>
      </trkpt>
      <trkpt lat="47.8483910" lon="12.9789280">
        <ele>414.4700000</ele>
        <time>2010-04-06T10:59:20Z</time>
      </trkpt>
      <trkpt lat="47.8482050" lon="12.9790610">
        <ele>414.9500000</ele>
        <time>2010-04-06T10:59:25Z</time>
      </trkpt>
      <trkpt lat="47.8479930" lon="12.9791890">
        <ele>413.9800000</ele>
        <time>2010-04-06T10:59:30Z</time>
      </trkpt>
      <trkpt lat="47.8477600" lon="12.9792150">
        <ele>414.9500000</ele>
        <time>2010-04-06T10:59:35Z</time>
      </trkpt>
      <trkpt lat="47.8475350" lon="12.9791770">
        <ele>414.4700000</ele>
        <time>2010-04-06T10:59:40Z</time>
      </trkpt>
      <trkpt lat="47.8473160" lon="12.9790390">
        <ele>414.4700000</ele>
        <time>2010-04-06T10:59:45Z</time>
      </trkpt>
      <trkpt lat="47.8472820" lon="12.9787100">
        <ele>414.9500000</ele>
        <time>2010-04-06T10:59:50Z</time>
      </trkpt>
      <trkpt lat="47.8472210" lon="12.9783160">
        <ele>414.9500000</ele>
        <time>2010-04-06T10:59:56Z</time>
      </trkpt>
      <trkpt lat="47.8471580" lon="12.9779960">
        <ele>415.9100000</ele>
        <time>2010-04-06T11:00:01Z</time>
      </trkpt>
      <trkpt lat="47.8470950" lon="12.9776660">
        <ele>414.9500000</ele>
        <time>2010-04-06T11:00:06Z</time>
      </trkpt>
      <trkpt lat="47.8470610" lon="12.9773150">
        <ele>414.9500000</ele>
        <time>2010-04-06T11:00:11Z</time>
      </trkpt>
      <trkpt lat="47.8470190" lon="12.9769790">
        <ele>415.4300000</ele>
        <time>2010-04-06T11:00:16Z</time>
      </trkpt>
      <trkpt lat="47.8469830" lon="12.9766410">
        <ele>415.9100000</ele>
        <time>2010-04-06T11:00:21Z</time>
      </trkpt>
      <trkpt lat="47.8469570" lon="12.9762900">
        <ele>415.4300000</ele>
        <time>2010-04-06T11:00:26Z</time>
      </trkpt>
      <trkpt lat="47.8469230" lon="12.9759470">
        <ele>415.4300000</ele>
        <time>2010-04-06T11:00:31Z</time>
      </trkpt>
      <trkpt lat="47.8468870" lon="12.9756110">
        <ele>415.4300000</ele>
        <time>2010-04-06T11:00:36Z</time>
      </trkpt>
      <trkpt lat="47.8468570" lon="12.9752640">
        <ele>415.4300000</ele>
        <time>2010-04-06T11:00:41Z</time>
      </trkpt>
      <trkpt lat="47.8468270" lon="12.9749290">
        <ele>414.9500000</ele>
        <time>2010-04-06T11:00:46Z</time>
      </trkpt>
      <trkpt lat="47.8467910" lon="12.9745860">
        <ele>416.3900000</ele>
        <time>2010-04-06T11:00:51Z</time>
      </trkpt>
      <trkpt lat="47.8467610" lon="12.9742440">
        <ele>415.9100000</ele>
        <time>2010-04-06T11:00:56Z</time>
      </trkpt>
      <trkpt lat="47.8467180" lon="12.9739130">
        <ele>416.3900000</ele>
        <time>2010-04-06T11:01:01Z</time>
      </trkpt>
      <trkpt lat="47.8466760" lon="12.9735850">
        <ele>416.3900000</ele>
        <time>2010-04-06T11:01:06Z</time>
      </trkpt>
      <trkpt lat="47.8466440" lon="12.9732570">
        <ele>416.8700000</ele>
        <time>2010-04-06T11:01:11Z</time>
      </trkpt>
      <trkpt lat="47.8467640" lon="12.9730750">
        <ele>416.3900000</ele>
        <time>2010-04-06T11:01:15Z</time>
      </trkpt>
      <trkpt lat="47.8470190" lon="12.9728850">
        <ele>415.9100000</ele>
        <time>2010-04-06T11:01:21Z</time>
      </trkpt>
      <trkpt lat="47.8472100" lon="12.9726610">
        <ele>415.9100000</ele>
        <time>2010-04-06T11:01:26Z</time>
      </trkpt>
      <trkpt lat="47.8473860" lon="12.9724080">
        <ele>415.4300000</ele>
        <time>2010-04-06T11:01:31Z</time>
      </trkpt>
      <trkpt lat="47.8475490" lon="12.9721300">
        <ele>415.9100000</ele>
        <time>2010-04-06T11:01:36Z</time>
      </trkpt>
      <trkpt lat="47.8477040" lon="12.9718330">
        <ele>415.4300000</ele>
        <time>2010-04-06T11:01:41Z</time>
      </trkpt>
      <trkpt lat="47.8478530" lon="12.9715470">
        <ele>414.9500000</ele>
        <time>2010-04-06T11:01:46Z</time>
      </trkpt>
      <trkpt lat="47.8480120" lon="12.9712470">
        <ele>415.9100000</ele>
        <time>2010-04-06T11:01:51Z</time>
      </trkpt>
      <trkpt lat="47.8481690" lon="12.9709490">
        <ele>415.4300000</ele>
        <time>2010-04-06T11:01:56Z</time>
      </trkpt>
      <trkpt lat="47.8483320" lon="12.9706410">
        <ele>415.4300000</ele>
        <time>2010-04-06T11:02:01Z</time>
      </trkpt>
      <trkpt lat="47.8484960" lon="12.9703390">
        <ele>415.4300000</ele>
        <time>2010-04-06T11:02:06Z</time>
      </trkpt>
      <trkpt lat="47.8486560" lon="12.9700390">
        <ele>415.4300000</ele>
        <time>2010-04-06T11:02:11Z</time>
      </trkpt>
      <trkpt lat="47.8488180" lon="12.9697250">
        <ele>415.4300000</ele>
        <time>2010-04-06T11:02:16Z</time>
      </trkpt>
      <trkpt lat="47.8489780" lon="12.9694120">
        <ele>415.9100000</ele>
        <time>2010-04-06T11:02:21Z</time>
      </trkpt>
      <trkpt lat="47.8491170" lon="12.9690460">
        <ele>415.9100000</ele>
        <time>2010-04-06T11:02:26Z</time>
      </trkpt>
      <trkpt lat="47.8492900" lon="12.9687310">
        <ele>417.3500000</ele>
        <time>2010-04-06T11:02:31Z</time>
      </trkpt>
      <trkpt lat="47.8494740" lon="12.9684460">
        <ele>416.3900000</ele>
        <time>2010-04-06T11:02:36Z</time>
      </trkpt>
      <trkpt lat="47.8496310" lon="12.9681630">
        <ele>416.3900000</ele>
        <time>2010-04-06T11:02:41Z</time>
      </trkpt>
      <trkpt lat="47.8497840" lon="12.9678560">
        <ele>416.3900000</ele>
        <time>2010-04-06T11:02:46Z</time>
      </trkpt>
      <trkpt lat="47.8499480" lon="12.9675480">
        <ele>416.8700000</ele>
        <time>2010-04-06T11:02:51Z</time>
      </trkpt>
      <trkpt lat="47.8501080" lon="12.9672390">
        <ele>416.3900000</ele>
        <time>2010-04-06T11:02:56Z</time>
      </trkpt>
      <trkpt lat="47.8502850" lon="12.9669260">
        <ele>416.3900000</ele>
        <time>2010-04-06T11:03:01Z</time>
      </trkpt>
      <trkpt lat="47.8504820" lon="12.9666910">
        <ele>416.3900000</ele>
        <time>2010-04-06T11:03:06Z</time>
      </trkpt>
      <trkpt lat="47.8507100" lon="12.9665600">
        <ele>416.3900000</ele>
        <time>2010-04-06T11:03:11Z</time>
      </trkpt>
      <trkpt lat="47.8509690" lon="12.9665760">
        <ele>416.3900000</ele>
        <time>2010-04-06T11:03:16Z</time>
      </trkpt>
      <trkpt lat="47.8512490" lon="12.9666560">
        <ele>415.9100000</ele>
        <time>2010-04-06T11:03:21Z</time>
      </trkpt>
      <trkpt lat="47.8514460" lon="12.9663930">
        <ele>415.4300000</ele>
        <time>2010-04-06T11:03:26Z</time>
      </trkpt>
      <trkpt lat="47.8516620" lon="12.9662220">
        <ele>416.3900000</ele>
        <time>2010-04-06T11:03:31Z</time>
      </trkpt>
      <trkpt lat="47.8518980" lon="12.9660740">
        <ele>416.3900000</ele>
        <time>2010-04-06T11:03:36Z</time>
      </trkpt>
      <trkpt lat="47.8521420" lon="12.9659220">
        <ele>415.9100000</ele>
        <time>2010-04-06T11:03:41Z</time>
      </trkpt>
      <trkpt lat="47.8523800" lon="12.9657760">
        <ele>415.9100000</ele>
        <time>2010-04-06T11:03:46Z</time>
      </trkpt>
      <trkpt lat="47.8526200" lon="12.9656300">
        <ele>415.4300000</ele>
        <time>2010-04-06T11:03:51Z</time>
      </trkpt>
      <trkpt lat="47.8528470" lon="12.9654580">
        <ele>415.4300000</ele>
        <time>2010-04-06T11:03:56Z</time>
      </trkpt>
      <trkpt lat="47.8529790" lon="12.9652520">
        <ele>414.9500000</ele>
        <time>2010-04-06T11:04:01Z</time>
      </trkpt>
      <trkpt lat="47.8528900" lon="12.9649280">
        <ele>414.9500000</ele>
        <time>2010-04-06T11:04:06Z</time>
      </trkpt>
      <trkpt lat="47.8527810" lon="12.9646070">
        <ele>415.4300000</ele>
        <time>2010-04-06T11:04:11Z</time>
      </trkpt>
      <trkpt lat="47.8526780" lon="12.9642960">
        <ele>414.4700000</ele>
        <time>2010-04-06T11:04:16Z</time>
      </trkpt>
      <trkpt lat="47.8525540" lon="12.9639630">
        <ele>414.9500000</ele>
        <time>2010-04-06T11:04:21Z</time>
      </trkpt>
      <trkpt lat="47.8524230" lon="12.9636310">
        <ele>414.9500000</ele>
        <time>2010-04-06T11:04:26Z</time>
      </trkpt>
      <trkpt lat="47.8523040" lon="12.9633000">
        <ele>414.9500000</ele>
        <time>2010-04-06T11:04:31Z</time>
      </trkpt>
      <trkpt lat="47.8521650" lon="12.9629890">
        <ele>415.4300000</ele>
        <time>2010-04-06T11:04:36Z</time>
      </trkpt>
      <trkpt lat="47.8520660" lon="12.9627470">
        <ele>415.4300000</ele>
        <time>2010-04-06T11:04:41Z</time>
      </trkpt>
      <trkpt lat="47.8520590" lon="12.9627430">
        <ele>415.4300000</ele>
        <time>2010-04-06T11:04:46Z</time>
      </trkpt>
      <trkpt lat="47.8520010" lon="12.9625820">
        <ele>415.4300000</ele>
        <time>2010-04-06T11:04:51Z</time>
      </trkpt>
      <trkpt lat="47.8518880" lon="12.9622870">
        <ele>415.4300000</ele>
        <time>2010-04-06T11:04:56Z</time>
      </trkpt>
      <trkpt lat="47.8517750" lon="12.9619460">
        <ele>415.4300000</ele>
        <time>2010-04-06T11:05:01Z</time>
      </trkpt>
      <trkpt lat="47.8516630" lon="12.9616080">
        <ele>415.4300000</ele>
        <time>2010-04-06T11:05:06Z</time>
      </trkpt>
      <trkpt lat="47.8515480" lon="12.9612750">
        <ele>415.4300000</ele>
        <time>2010-04-06T11:05:11Z</time>
      </trkpt>
      <trkpt lat="47.8514550" lon="12.9609270">
        <ele>415.9100000</ele>
        <time>2010-04-06T11:05:16Z</time>
      </trkpt>
      <trkpt lat="47.8513480" lon="12.9606000">
        <ele>416.3900000</ele>
        <time>2010-04-06T11:05:21Z</time>
      </trkpt>
      <trkpt lat="47.8512970" lon="12.9602430">
        <ele>416.3900000</ele>
        <time>2010-04-06T11:05:26Z</time>
      </trkpt>
      <trkpt lat="47.8514280" lon="12.9599820">
        <ele>417.8300000</ele>
        <time>2010-04-06T11:05:31Z</time>
      </trkpt>
      <trkpt lat="47.8515940" lon="12.9598390">
        <ele>419.2700000</ele>
        <time>2010-04-06T11:05:36Z</time>
      </trkpt>
      <trkpt lat="47.8517520" lon="12.9596080">
        <ele>417.8300000</ele>
        <time>2010-04-06T11:05:41Z</time>
      </trkpt>
      <trkpt lat="47.8517780" lon="12.9592050">
        <ele>414.9500000</ele>
        <time>2010-04-06T11:05:46Z</time>
      </trkpt>
      <trkpt lat="47.8516680" lon="12.9587750">
        <ele>413.9800000</ele>
        <time>2010-04-06T11:05:51Z</time>
      </trkpt>
      <trkpt lat="47.8514570" lon="12.9585540">
        <ele>415.4300000</ele>
        <time>2010-04-06T11:05:56Z</time>
      </trkpt>
      <trkpt lat="47.8512060" lon="12.9585710">
        <ele>415.9100000</ele>
        <time>2010-04-06T11:06:01Z</time>
      </trkpt>
      <trkpt lat="47.8509610" lon="12.9586080">
        <ele>416.3900000</ele>
        <time>2010-04-06T11:06:06Z</time>
      </trkpt>
      <trkpt lat="47.8507040" lon="12.9585920">
        <ele>416.3900000</ele>
        <time>2010-04-06T11:06:11Z</time>
      </trkpt>
      <trkpt lat="47.8504620" lon="12.9585050">
        <ele>416.8700000</ele>
        <time>2010-04-06T11:06:16Z</time>
      </trkpt>
      <trkpt lat="47.8502150" lon="12.9584080">
        <ele>416.3900000</ele>
        <time>2010-04-06T11:06:21Z</time>
      </trkpt>
      <trkpt lat="47.8499690" lon="12.9583100">
        <ele>416.3900000</ele>
        <time>2010-04-06T11:06:26Z</time>
      </trkpt>
      <trkpt lat="47.8497180" lon="12.9582400">
        <ele>416.3900000</ele>
        <time>2010-04-06T11:06:31Z</time>
      </trkpt>
      <trkpt lat="47.8494560" lon="12.9581830">
        <ele>415.9100000</ele>
        <time>2010-04-06T11:06:36Z</time>
      </trkpt>
      <trkpt lat="47.8491980" lon="12.9581490">
        <ele>416.3900000</ele>
        <time>2010-04-06T11:06:41Z</time>
      </trkpt>
      <trkpt lat="47.8489440" lon="12.9581100">
        <ele>416.3900000</ele>
        <time>2010-04-06T11:06:46Z</time>
      </trkpt>
      <trkpt lat="47.8486910" lon="12.9580660">
        <ele>416.8700000</ele>
        <time>2010-04-06T11:06:51Z</time>
      </trkpt>
      <trkpt lat="47.8484370" lon="12.9580170">
        <ele>416.8700000</ele>
        <time>2010-04-06T11:06:56Z</time>
      </trkpt>
      <trkpt lat="47.8481830" lon="12.9579650">
        <ele>417.3500000</ele>
        <time>2010-04-06T11:07:01Z</time>
      </trkpt>
      <trkpt lat="47.8479280" lon="12.9578850">
        <ele>417.3500000</ele>
        <time>2010-04-06T11:07:06Z</time>
      </trkpt>
      <trkpt lat="47.8476810" lon="12.9577750">
        <ele>416.8700000</ele>
        <time>2010-04-06T11:07:11Z</time>
      </trkpt>
      <trkpt lat="47.8474320" lon="12.9576580">
        <ele>417.3500000</ele>
        <time>2010-04-06T11:07:16Z</time>
      </trkpt>
      <trkpt lat="47.8471820" lon="12.9575370">
        <ele>417.8300000</ele>
        <time>2010-04-06T11:07:21Z</time>
      </trkpt>
      <trkpt lat="47.8469350" lon="12.9574300">
        <ele>417.3500000</ele>
        <time>2010-04-06T11:07:26Z</time>
      </trkpt>
      <trkpt lat="47.8466400" lon="12.9573100">
        <ele>417.3500000</ele>
        <time>2010-04-06T11:07:32Z</time>
      </trkpt>
      <trkpt lat="47.8463880" lon="12.9572560">
        <ele>417.3500000</ele>
        <time>2010-04-06T11:07:37Z</time>
      </trkpt>
      <trkpt lat="47.8461470" lon="12.9571960">
        <ele>417.8300000</ele>
        <time>2010-04-06T11:07:42Z</time>
      </trkpt>
      <trkpt lat="47.8458990" lon="12.9571480">
        <ele>417.8300000</ele>
        <time>2010-04-06T11:07:47Z</time>
      </trkpt>
      <trkpt lat="47.8456470" lon="12.9571640">
        <ele>417.8300000</ele>
        <time>2010-04-06T11:07:52Z</time>
      </trkpt>
      <trkpt lat="47.8453920" lon="12.9572130">
        <ele>417.8300000</ele>
        <time>2010-04-06T11:07:57Z</time>
      </trkpt>
      <trkpt lat="47.8451360" lon="12.9572180">
        <ele>418.3100000</ele>
        <time>2010-04-06T11:08:02Z</time>
      </trkpt>
      <trkpt lat="47.8448880" lon="12.9571510">
        <ele>418.7900000</ele>
        <time>2010-04-06T11:08:07Z</time>
      </trkpt>
      <trkpt lat="47.8446540" lon="12.9570230">
        <ele>419.2700000</ele>
        <time>2010-04-06T11:08:12Z</time>
      </trkpt>
      <trkpt lat="47.8444120" lon="12.9569290">
        <ele>419.2700000</ele>
        <time>2010-04-06T11:08:17Z</time>
      </trkpt>
      <trkpt lat="47.8441660" lon="12.9569370">
        <ele>418.7900000</ele>
        <time>2010-04-06T11:08:22Z</time>
      </trkpt>
      <trkpt lat="47.8439440" lon="12.9570340">
        <ele>419.7500000</ele>
        <time>2010-04-06T11:08:27Z</time>
      </trkpt>
      <trkpt lat="47.8437590" lon="12.9570890">
        <ele>419.2700000</ele>
        <time>2010-04-06T11:08:32Z</time>
      </trkpt>
      <trkpt lat="47.8436930" lon="12.9568580">
        <ele>419.2700000</ele>
        <time>2010-04-06T11:08:37Z</time>
      </trkpt>
      <trkpt lat="47.8436110" lon="12.9565160">
        <ele>419.2700000</ele>
        <time>2010-04-06T11:08:42Z</time>
      </trkpt>
      <trkpt lat="47.8435310" lon="12.9561350">
        <ele>418.7900000</ele>
        <time>2010-04-06T11:08:47Z</time>
      </trkpt>
      <trkpt lat="47.8435060" lon="12.9557190">
        <ele>418.7900000</ele>
        <time>2010-04-06T11:08:52Z</time>
      </trkpt>
      <trkpt lat="47.8435260" lon="12.9553220">
        <ele>419.2700000</ele>
        <time>2010-04-06T11:08:57Z</time>
      </trkpt>
      <trkpt lat="47.8435650" lon="12.9549250">
        <ele>418.7900000</ele>
        <time>2010-04-06T11:09:02Z</time>
      </trkpt>
      <trkpt lat="47.8435950" lon="12.9545250">
        <ele>418.3100000</ele>
        <time>2010-04-06T11:09:07Z</time>
      </trkpt>
      <trkpt lat="47.8436020" lon="12.9541270">
        <ele>418.7900000</ele>
        <time>2010-04-06T11:09:12Z</time>
      </trkpt>
      <trkpt lat="47.8436640" lon="12.9537470">
        <ele>418.3100000</ele>
        <time>2010-04-06T11:09:17Z</time>
      </trkpt>
      <trkpt lat="47.8436960" lon="12.9533560">
        <ele>418.7900000</ele>
        <time>2010-04-06T11:09:22Z</time>
      </trkpt>
      <trkpt lat="47.8437030" lon="12.9529600">
        <ele>418.7900000</ele>
        <time>2010-04-06T11:09:27Z</time>
      </trkpt>
      <trkpt lat="47.8437080" lon="12.9525300">
        <ele>418.7900000</ele>
        <time>2010-04-06T11:09:32Z</time>
      </trkpt>
      <trkpt lat="47.8437150" lon="12.9521160">
        <ele>418.3100000</ele>
        <time>2010-04-06T11:09:37Z</time>
      </trkpt>
      <trkpt lat="47.8437150" lon="12.9517140">
        <ele>418.3100000</ele>
        <time>2010-04-06T11:09:42Z</time>
      </trkpt>
      <trkpt lat="47.8437230" lon="12.9513160">
        <ele>417.3500000</ele>
        <time>2010-04-06T11:09:47Z</time>
      </trkpt>
      <trkpt lat="47.8437340" lon="12.9509000">
        <ele>417.8300000</ele>
        <time>2010-04-06T11:09:52Z</time>
      </trkpt>
      <trkpt lat="47.8437820" lon="12.9505000">
        <ele>417.8300000</ele>
        <time>2010-04-06T11:09:57Z</time>
      </trkpt>
      <trkpt lat="47.8439240" lon="12.9501630">
        <ele>418.3100000</ele>
        <time>2010-04-06T11:10:02Z</time>
      </trkpt>
      <trkpt lat="47.8441160" lon="12.9498700">
        <ele>418.3100000</ele>
        <time>2010-04-06T11:10:07Z</time>
      </trkpt>
      <trkpt lat="47.8443140" lon="12.9495920">
        <ele>418.3100000</ele>
        <time>2010-04-06T11:10:12Z</time>
      </trkpt>
      <trkpt lat="47.8445130" lon="12.9493140">
        <ele>418.7900000</ele>
        <time>2010-04-06T11:10:17Z</time>
      </trkpt>
      <trkpt lat="47.8447150" lon="12.9490430">
        <ele>418.3100000</ele>
        <time>2010-04-06T11:10:22Z</time>
      </trkpt>
      <trkpt lat="47.8449070" lon="12.9487610">
        <ele>418.3100000</ele>
        <time>2010-04-06T11:10:27Z</time>
      </trkpt>
      <trkpt lat="47.8450930" lon="12.9485000">
        <ele>419.2700000</ele>
        <time>2010-04-06T11:10:32Z</time>
      </trkpt>
      <trkpt lat="47.8452640" lon="12.9482990">
        <ele>419.2700000</ele>
        <time>2010-04-06T11:10:36Z</time>
      </trkpt>
      <trkpt lat="47.8455020" lon="12.9479590">
        <ele>418.7900000</ele>
        <time>2010-04-06T11:10:42Z</time>
      </trkpt>
      <trkpt lat="47.8456900" lon="12.9476540">
        <ele>419.2700000</ele>
        <time>2010-04-06T11:10:47Z</time>
      </trkpt>
      <trkpt lat="47.8458520" lon="12.9473100">
        <ele>419.2700000</ele>
        <time>2010-04-06T11:10:52Z</time>
      </trkpt>
      <trkpt lat="47.8460020" lon="12.9469690">
        <ele>419.2700000</ele>
        <time>2010-04-06T11:10:57Z</time>
      </trkpt>
      <trkpt lat="47.8461310" lon="12.9466150">
        <ele>419.7500000</ele>
        <time>2010-04-06T11:11:02Z</time>
      </trkpt>
      <trkpt lat="47.8462590" lon="12.9462630">
        <ele>418.7900000</ele>
        <time>2010-04-06T11:11:07Z</time>
      </trkpt>
      <trkpt lat="47.8463960" lon="12.9459140">
        <ele>419.2700000</ele>
        <time>2010-04-06T11:11:12Z</time>
      </trkpt>
      <trkpt lat="47.8465390" lon="12.9455810">
        <ele>419.2700000</ele>
        <time>2010-04-06T11:11:17Z</time>
      </trkpt>
      <trkpt lat="47.8467190" lon="12.9452770">
        <ele>420.2300000</ele>
        <time>2010-04-06T11:11:22Z</time>
      </trkpt>
      <trkpt lat="47.8469120" lon="12.9450410">
        <ele>420.7100000</ele>
        <time>2010-04-06T11:11:27Z</time>
      </trkpt>
      <trkpt lat="47.8471350" lon="12.9448140">
        <ele>421.6800000</ele>
        <time>2010-04-06T11:11:32Z</time>
      </trkpt>
      <trkpt lat="47.8473750" lon="12.9446130">
        <ele>420.7100000</ele>
        <time>2010-04-06T11:11:37Z</time>
      </trkpt>
      <trkpt lat="47.8476320" lon="12.9444750">
        <ele>420.7100000</ele>
        <time>2010-04-06T11:11:42Z</time>
      </trkpt>
      <trkpt lat="47.8478830" lon="12.9443850">
        <ele>420.7100000</ele>
        <time>2010-04-06T11:11:47Z</time>
      </trkpt>
      <trkpt lat="47.8481390" lon="12.9443980">
        <ele>420.7100000</ele>
        <time>2010-04-06T11:11:52Z</time>
      </trkpt>
      <trkpt lat="47.8483490" lon="12.9444010">
        <ele>422.6400000</ele>
        <time>2010-04-06T11:11:57Z</time>
      </trkpt>
      <trkpt lat="47.8485520" lon="12.9442880">
        <ele>423.6000000</ele>
        <time>2010-04-06T11:12:02Z</time>
      </trkpt>
      <trkpt lat="47.8487500" lon="12.9440790">
        <ele>424.0800000</ele>
        <time>2010-04-06T11:12:07Z</time>
      </trkpt>
      <trkpt lat="47.8489610" lon="12.9439360">
        <ele>425.0400000</ele>
        <time>2010-04-06T11:12:12Z</time>
      </trkpt>
      <trkpt lat="47.8491820" lon="12.9437500">
        <ele>425.5200000</ele>
        <time>2010-04-06T11:12:17Z</time>
      </trkpt>
      <trkpt lat="47.8493720" lon="12.9435490">
        <ele>426.4800000</ele>
        <time>2010-04-06T11:12:22Z</time>
      </trkpt>
      <trkpt lat="47.8495530" lon="12.9433340">
        <ele>426.4800000</ele>
        <time>2010-04-06T11:12:27Z</time>
      </trkpt>
      <trkpt lat="47.8497310" lon="12.9431090">
        <ele>426.9600000</ele>
        <time>2010-04-06T11:12:32Z</time>
      </trkpt>
      <trkpt lat="47.8498870" lon="12.9428750">
        <ele>427.9200000</ele>
        <time>2010-04-06T11:12:37Z</time>
      </trkpt>
      <trkpt lat="47.8500330" lon="12.9427010">
        <ele>429.3700000</ele>
        <time>2010-04-06T11:12:42Z</time>
      </trkpt>
      <trkpt lat="47.8501700" lon="12.9425550">
        <ele>429.8500000</ele>
        <time>2010-04-06T11:12:47Z</time>
      </trkpt>
      <trkpt lat="47.8503060" lon="12.9422900">
        <ele>429.8500000</ele>
        <time>2010-04-06T11:12:52Z</time>
      </trkpt>
      <trkpt lat="47.8504990" lon="12.9420520">
        <ele>429.3700000</ele>
        <time>2010-04-06T11:12:57Z</time>
      </trkpt>
      <trkpt lat="47.8506920" lon="12.9418210">
        <ele>430.3300000</ele>
        <time>2010-04-06T11:13:02Z</time>
      </trkpt>
      <trkpt lat="47.8508750" lon="12.9416280">
        <ele>430.3300000</ele>
        <time>2010-04-06T11:13:07Z</time>
      </trkpt>
      <trkpt lat="47.8510320" lon="12.9414240">
        <ele>430.8100000</ele>
        <time>2010-04-06T11:13:12Z</time>
      </trkpt>
      <trkpt lat="47.8511980" lon="12.9411600">
        <ele>430.8100000</ele>
        <time>2010-04-06T11:13:17Z</time>
      </trkpt>
      <trkpt lat="47.8513930" lon="12.9409190">
        <ele>430.8100000</ele>
        <time>2010-04-06T11:13:22Z</time>
      </trkpt>
      <trkpt lat="47.8516010" lon="12.9406900">
        <ele>430.8100000</ele>
        <time>2010-04-06T11:13:27Z</time>
      </trkpt>
      <trkpt lat="47.8518080" lon="12.9404740">
        <ele>431.2900000</ele>
        <time>2010-04-06T11:13:32Z</time>
      </trkpt>
      <trkpt lat="47.8520080" lon="12.9402040">
        <ele>431.2900000</ele>
        <time>2010-04-06T11:13:37Z</time>
      </trkpt>
      <trkpt lat="47.8522170" lon="12.9399490">
        <ele>431.7700000</ele>
        <time>2010-04-06T11:13:42Z</time>
      </trkpt>
      <trkpt lat="47.8524250" lon="12.9397020">
        <ele>430.8100000</ele>
        <time>2010-04-06T11:13:47Z</time>
      </trkpt>
      <trkpt lat="47.8526360" lon="12.9393740">
        <ele>430.3300000</ele>
        <time>2010-04-06T11:13:52Z</time>
      </trkpt>
      <trkpt lat="47.8528800" lon="12.9390990">
        <ele>429.8500000</ele>
        <time>2010-04-06T11:13:57Z</time>
      </trkpt>
      <trkpt lat="47.8531520" lon="12.9388650">
        <ele>428.8900000</ele>
        <time>2010-04-06T11:14:02Z</time>
      </trkpt>
      <trkpt lat="47.8534310" lon="12.9386620">
        <ele>428.4000000</ele>
        <time>2010-04-06T11:14:07Z</time>
      </trkpt>
      <trkpt lat="47.8537140" lon="12.9384280">
        <ele>428.8900000</ele>
        <time>2010-04-06T11:14:12Z</time>
      </trkpt>
      <trkpt lat="47.8540020" lon="12.9382180">
        <ele>428.8900000</ele>
        <time>2010-04-06T11:14:17Z</time>
      </trkpt>
      <trkpt lat="47.8542950" lon="12.9379910">
        <ele>428.8900000</ele>
        <time>2010-04-06T11:14:22Z</time>
      </trkpt>
      <trkpt lat="47.8545930" lon="12.9377610">
        <ele>428.4000000</ele>
        <time>2010-04-06T11:14:27Z</time>
      </trkpt>
      <trkpt lat="47.8548830" lon="12.9375320">
        <ele>427.9200000</ele>
        <time>2010-04-06T11:14:32Z</time>
      </trkpt>
      <trkpt lat="47.8551620" lon="12.9372600">
        <ele>427.4400000</ele>
        <time>2010-04-06T11:14:37Z</time>
      </trkpt>
      <trkpt lat="47.8554470" lon="12.9369980">
        <ele>426.9600000</ele>
        <time>2010-04-06T11:14:42Z</time>
      </trkpt>
      <trkpt lat="47.8558060" lon="12.9367250">
        <ele>426.9600000</ele>
        <time>2010-04-06T11:14:48Z</time>
      </trkpt>
      <trkpt lat="47.8561070" lon="12.9365380">
        <ele>426.9600000</ele>
        <time>2010-04-06T11:14:53Z</time>
      </trkpt>
      <trkpt lat="47.8563940" lon="12.9363660">
        <ele>426.9600000</ele>
        <time>2010-04-06T11:14:58Z</time>
      </trkpt>
      <trkpt lat="47.8566280" lon="12.9361930">
        <ele>427.4400000</ele>
        <time>2010-04-06T11:15:03Z</time>
      </trkpt>
      <trkpt lat="47.8568510" lon="12.9360920">
        <ele>428.4000000</ele>
        <time>2010-04-06T11:15:08Z</time>
      </trkpt>
      <trkpt lat="47.8570650" lon="12.9360740">
        <ele>428.4000000</ele>
        <time>2010-04-06T11:15:13Z</time>
      </trkpt>
      <trkpt lat="47.8570550" lon="12.9358740">
        <ele>427.9200000</ele>
        <time>2010-04-06T11:15:18Z</time>
      </trkpt>
      <trkpt lat="47.8568630" lon="12.9355670">
        <ele>426.4800000</ele>
        <time>2010-04-06T11:15:23Z</time>
      </trkpt>
      <trkpt lat="47.8569780" lon="12.9352200">
        <ele>426.0000000</ele>
        <time>2010-04-06T11:15:28Z</time>
      </trkpt>
      <trkpt lat="47.8571800" lon="12.9349570">
        <ele>425.5200000</ele>
        <time>2010-04-06T11:15:33Z</time>
      </trkpt>
      <trkpt lat="47.8573650" lon="12.9347070">
        <ele>426.4800000</ele>
        <time>2010-04-06T11:15:38Z</time>
      </trkpt>
      <trkpt lat="47.8575520" lon="12.9344440">
        <ele>426.9600000</ele>
        <time>2010-04-06T11:15:43Z</time>
      </trkpt>
      <trkpt lat="47.8577330" lon="12.9341780">
        <ele>426.4800000</ele>
        <time>2010-04-06T11:15:48Z</time>
      </trkpt>
      <trkpt lat="47.8579160" lon="12.9339050">
        <ele>426.9600000</ele>
        <time>2010-04-06T11:15:53Z</time>
      </trkpt>
      <trkpt lat="47.8581010" lon="12.9336190">
        <ele>426.9600000</ele>
        <time>2010-04-06T11:15:58Z</time>
      </trkpt>
      <trkpt lat="47.8582820" lon="12.9333170">
        <ele>427.4400000</ele>
        <time>2010-04-06T11:16:03Z</time>
      </trkpt>
      <trkpt lat="47.8584530" lon="12.9330120">
        <ele>427.9200000</ele>
        <time>2010-04-06T11:16:08Z</time>
      </trkpt>
      <trkpt lat="47.8586280" lon="12.9327060">
        <ele>427.9200000</ele>
        <time>2010-04-06T11:16:13Z</time>
      </trkpt>
      <trkpt lat="47.8588010" lon="12.9324090">
        <ele>427.9200000</ele>
        <time>2010-04-06T11:16:18Z</time>
      </trkpt>
      <trkpt lat="47.8589610" lon="12.9320970">
        <ele>428.4000000</ele>
        <time>2010-04-06T11:16:23Z</time>
      </trkpt>
      <trkpt lat="47.8591210" lon="12.9317770">
        <ele>428.8900000</ele>
        <time>2010-04-06T11:16:28Z</time>
      </trkpt>
      <trkpt lat="47.8592610" lon="12.9315260">
        <ele>428.8900000</ele>
        <time>2010-04-06T11:16:33Z</time>
      </trkpt>
      <trkpt lat="47.8593800" lon="12.9312360">
        <ele>429.8500000</ele>
        <time>2010-04-06T11:16:38Z</time>
      </trkpt>
      <trkpt lat="47.8595000" lon="12.9309110">
        <ele>429.3700000</ele>
        <time>2010-04-06T11:16:43Z</time>
      </trkpt>
      <trkpt lat="47.8596120" lon="12.9305790">
        <ele>428.8900000</ele>
        <time>2010-04-06T11:16:48Z</time>
      </trkpt>
      <trkpt lat="47.8597360" lon="12.9301700">
        <ele>428.8900000</ele>
        <time>2010-04-06T11:16:54Z</time>
      </trkpt>
      <trkpt lat="47.8598310" lon="12.9298180">
        <ele>429.3700000</ele>
        <time>2010-04-06T11:16:59Z</time>
      </trkpt>
      <trkpt lat="47.8599190" lon="12.9294630">
        <ele>429.8500000</ele>
        <time>2010-04-06T11:17:04Z</time>
      </trkpt>
      <trkpt lat="47.8600110" lon="12.9291300">
        <ele>429.8500000</ele>
        <time>2010-04-06T11:17:09Z</time>
      </trkpt>
      <trkpt lat="47.8601210" lon="12.9287570">
        <ele>429.8500000</ele>
        <time>2010-04-06T11:17:14Z</time>
      </trkpt>
      <trkpt lat="47.8601870" lon="12.9283690">
        <ele>429.3700000</ele>
        <time>2010-04-06T11:17:19Z</time>
      </trkpt>
      <trkpt lat="47.8602410" lon="12.9279810">
        <ele>430.3300000</ele>
        <time>2010-04-06T11:17:24Z</time>
      </trkpt>
      <trkpt lat="47.8602700" lon="12.9275800">
        <ele>430.3300000</ele>
        <time>2010-04-06T11:17:29Z</time>
      </trkpt>
      <trkpt lat="47.8602930" lon="12.9272160">
        <ele>431.2900000</ele>
        <time>2010-04-06T11:17:34Z</time>
      </trkpt>
      <trkpt lat="47.8602950" lon="12.9268580">
        <ele>432.7300000</ele>
        <time>2010-04-06T11:17:39Z</time>
      </trkpt>
      <trkpt lat="47.8603000" lon="12.9265140">
        <ele>434.1700000</ele>
        <time>2010-04-06T11:17:44Z</time>
      </trkpt>
      <trkpt lat="47.8602990" lon="12.9261830">
        <ele>435.1300000</ele>
        <time>2010-04-06T11:17:49Z</time>
      </trkpt>
      <trkpt lat="47.8603070" lon="12.9258490">
        <ele>436.5800000</ele>
        <time>2010-04-06T11:17:54Z</time>
      </trkpt>
      <trkpt lat="47.8603140" lon="12.9255290">
        <ele>437.5400000</ele>
        <time>2010-04-06T11:17:59Z</time>
      </trkpt>
      <trkpt lat="47.8603250" lon="12.9252210">
        <ele>438.9800000</ele>
        <time>2010-04-06T11:18:04Z</time>
      </trkpt>
      <trkpt lat="47.8603360" lon="12.9248860">
        <ele>439.4600000</ele>
        <time>2010-04-06T11:18:09Z</time>
      </trkpt>
      <trkpt lat="47.8603600" lon="12.9245530">
        <ele>440.4200000</ele>
        <time>2010-04-06T11:18:14Z</time>
      </trkpt>
      <trkpt lat="47.8604260" lon="12.9242210">
        <ele>440.4200000</ele>
        <time>2010-04-06T11:18:19Z</time>
      </trkpt>
      <trkpt lat="47.8605430" lon="12.9239450">
        <ele>442.3400000</ele>
        <time>2010-04-06T11:18:24Z</time>
      </trkpt>
      <trkpt lat="47.8606740" lon="12.9237670">
        <ele>442.8200000</ele>
        <time>2010-04-06T11:18:29Z</time>
      </trkpt>
      <trkpt lat="47.8608260" lon="12.9235540">
        <ele>441.8600000</ele>
        <time>2010-04-06T11:18:34Z</time>
      </trkpt>
      <trkpt lat="47.8609710" lon="12.9233220">
        <ele>442.8200000</ele>
        <time>2010-04-06T11:18:39Z</time>
      </trkpt>
      <trkpt lat="47.8610880" lon="12.9230340">
        <ele>441.3800000</ele>
        <time>2010-04-06T11:18:44Z</time>
      </trkpt>
      <trkpt lat="47.8611350" lon="12.9227350">
        <ele>441.8600000</ele>
        <time>2010-04-06T11:18:49Z</time>
      </trkpt>
      <trkpt lat="47.8611280" lon="12.9223590">
        <ele>440.4200000</ele>
        <time>2010-04-06T11:18:54Z</time>
      </trkpt>
      <trkpt lat="47.8611610" lon="12.9220320">
        <ele>439.4600000</ele>
        <time>2010-04-06T11:18:59Z</time>
      </trkpt>
      <trkpt lat="47.8611780" lon="12.9218910">
        <ele>439.4600000</ele>
        <time>2010-04-06T11:19:04Z</time>
      </trkpt>
      <trkpt lat="47.8611410" lon="12.9216230">
        <ele>438.5000000</ele>
        <time>2010-04-06T11:19:09Z</time>
      </trkpt>
      <trkpt lat="47.8611180" lon="12.9212480">
        <ele>438.5000000</ele>
        <time>2010-04-06T11:19:14Z</time>
      </trkpt>
      <trkpt lat="47.8610940" lon="12.9208560">
        <ele>438.9800000</ele>
        <time>2010-04-06T11:19:19Z</time>
      </trkpt>
      <trkpt lat="47.8611060" lon="12.9204660">
        <ele>438.9800000</ele>
        <time>2010-04-06T11:19:24Z</time>
      </trkpt>
      <trkpt lat="47.8611180" lon="12.9200650">
        <ele>439.4600000</ele>
        <time>2010-04-06T11:19:29Z</time>
      </trkpt>
      <trkpt lat="47.8611340" lon="12.9196710">
        <ele>439.4600000</ele>
        <time>2010-04-06T11:19:34Z</time>
      </trkpt>
      <trkpt lat="47.8611560" lon="12.9192990">
        <ele>440.4200000</ele>
        <time>2010-04-06T11:19:39Z</time>
      </trkpt>
      <trkpt lat="47.8611700" lon="12.9189310">
        <ele>441.8600000</ele>
        <time>2010-04-06T11:19:44Z</time>
      </trkpt>
      <trkpt lat="47.8611650" lon="12.9185540">
        <ele>441.8600000</ele>
        <time>2010-04-06T11:19:49Z</time>
      </trkpt>
      <trkpt lat="47.8611480" lon="12.9181870">
        <ele>442.8200000</ele>
        <time>2010-04-06T11:19:54Z</time>
      </trkpt>
      <trkpt lat="47.8610640" lon="12.9178350">
        <ele>443.3100000</ele>
        <time>2010-04-06T11:19:59Z</time>
      </trkpt>
      <trkpt lat="47.8609310" lon="12.9175040">
        <ele>444.2700000</ele>
        <time>2010-04-06T11:20:04Z</time>
      </trkpt>
      <trkpt lat="47.8607790" lon="12.9171730">
        <ele>444.2700000</ele>
        <time>2010-04-06T11:20:09Z</time>
      </trkpt>
      <trkpt lat="47.8606280" lon="12.9168530">
        <ele>444.7500000</ele>
        <time>2010-04-06T11:20:14Z</time>
      </trkpt>
      <trkpt lat="47.8604960" lon="12.9165570">
        <ele>446.1900000</ele>
        <time>2010-04-06T11:20:19Z</time>
      </trkpt>
      <trkpt lat="47.8603820" lon="12.9162350">
        <ele>446.1900000</ele>
        <time>2010-04-06T11:20:24Z</time>
      </trkpt>
      <trkpt lat="47.8603150" lon="12.9157930">
        <ele>445.2300000</ele>
        <time>2010-04-06T11:20:29Z</time>
      </trkpt>
      <trkpt lat="47.8602650" lon="12.9152730">
        <ele>443.3100000</ele>
        <time>2010-04-06T11:20:34Z</time>
      </trkpt>
      <trkpt lat="47.8603260" lon="12.9146750">
        <ele>440.4200000</ele>
        <time>2010-04-06T11:20:39Z</time>
      </trkpt>
      <trkpt lat="47.8605620" lon="12.9141530">
        <ele>439.4600000</ele>
        <time>2010-04-06T11:20:44Z</time>
      </trkpt>
      <trkpt lat="47.8608540" lon="12.9136940">
        <ele>438.9800000</ele>
        <time>2010-04-06T11:20:49Z</time>
      </trkpt>
      <trkpt lat="47.8611400" lon="12.9132530">
        <ele>438.9800000</ele>
        <time>2010-04-06T11:20:54Z</time>
      </trkpt>
      <trkpt lat="47.8614310" lon="12.9128500">
        <ele>438.9800000</ele>
        <time>2010-04-06T11:20:59Z</time>
      </trkpt>
      <trkpt lat="47.8617120" lon="12.9124540">
        <ele>438.9800000</ele>
        <time>2010-04-06T11:21:04Z</time>
      </trkpt>
      <trkpt lat="47.8619650" lon="12.9120470">
        <ele>438.9800000</ele>
        <time>2010-04-06T11:21:09Z</time>
      </trkpt>
      <trkpt lat="47.8621770" lon="12.9116290">
        <ele>439.4600000</ele>
        <time>2010-04-06T11:21:14Z</time>
      </trkpt>
      <trkpt lat="47.8623490" lon="12.9112150">
        <ele>440.4200000</ele>
        <time>2010-04-06T11:21:19Z</time>
      </trkpt>
      <trkpt lat="47.8624980" lon="12.9108050">
        <ele>440.9000000</ele>
        <time>2010-04-06T11:21:24Z</time>
      </trkpt>
      <trkpt lat="47.8626170" lon="12.9103600">
        <ele>440.4200000</ele>
        <time>2010-04-06T11:21:29Z</time>
      </trkpt>
      <trkpt lat="47.8627070" lon="12.9099150">
        <ele>440.9000000</ele>
        <time>2010-04-06T11:21:34Z</time>
      </trkpt>
      <trkpt lat="47.8627940" lon="12.9094890">
        <ele>441.8600000</ele>
        <time>2010-04-06T11:21:39Z</time>
      </trkpt>
      <trkpt lat="47.8629090" lon="12.9090900">
        <ele>442.3400000</ele>
        <time>2010-04-06T11:21:44Z</time>
      </trkpt>
      <trkpt lat="47.8630460" lon="12.9087360">
        <ele>444.2700000</ele>
        <time>2010-04-06T11:21:49Z</time>
      </trkpt>
      <trkpt lat="47.8632130" lon="12.9084210">
        <ele>445.2300000</ele>
        <time>2010-04-06T11:21:54Z</time>
      </trkpt>
      <trkpt lat="47.8633950" lon="12.9081390">
        <ele>446.1900000</ele>
        <time>2010-04-06T11:21:59Z</time>
      </trkpt>
      <trkpt lat="47.8635940" lon="12.9078980">
        <ele>447.6300000</ele>
        <time>2010-04-06T11:22:04Z</time>
      </trkpt>
      <trkpt lat="47.8637900" lon="12.9076930">
        <ele>447.6300000</ele>
        <time>2010-04-06T11:22:09Z</time>
      </trkpt>
      <trkpt lat="47.8639830" lon="12.9075060">
        <ele>449.0700000</ele>
        <time>2010-04-06T11:22:14Z</time>
      </trkpt>
      <trkpt lat="47.8641850" lon="12.9073280">
        <ele>449.5500000</ele>
        <time>2010-04-06T11:22:19Z</time>
      </trkpt>
      <trkpt lat="47.8643850" lon="12.9071620">
        <ele>450.0300000</ele>
        <time>2010-04-06T11:22:24Z</time>
      </trkpt>
      <trkpt lat="47.8645800" lon="12.9070750">
        <ele>451.0000000</ele>
        <time>2010-04-06T11:22:29Z</time>
      </trkpt>
      <trkpt lat="47.8647230" lon="12.9069560">
        <ele>451.9600000</ele>
        <time>2010-04-06T11:22:34Z</time>
      </trkpt>
      <trkpt lat="47.8648720" lon="12.9068480">
        <ele>451.9600000</ele>
        <time>2010-04-06T11:22:39Z</time>
      </trkpt>
      <trkpt lat="47.8650120" lon="12.9067250">
        <ele>453.8800000</ele>
        <time>2010-04-06T11:22:44Z</time>
      </trkpt>
      <trkpt lat="47.8651470" lon="12.9066080">
        <ele>454.3600000</ele>
        <time>2010-04-06T11:22:49Z</time>
      </trkpt>
      <trkpt lat="47.8652830" lon="12.9064620">
        <ele>454.3600000</ele>
        <time>2010-04-06T11:22:54Z</time>
      </trkpt>
      <trkpt lat="47.8654170" lon="12.9063200">
        <ele>454.8400000</ele>
        <time>2010-04-06T11:22:59Z</time>
      </trkpt>
      <trkpt lat="47.8655510" lon="12.9061520">
        <ele>455.3200000</ele>
        <time>2010-04-06T11:23:04Z</time>
      </trkpt>
      <trkpt lat="47.8656740" lon="12.9059730">
        <ele>455.8000000</ele>
        <time>2010-04-06T11:23:09Z</time>
      </trkpt>
      <trkpt lat="47.8657920" lon="12.9057930">
        <ele>456.2800000</ele>
        <time>2010-04-06T11:23:14Z</time>
      </trkpt>
      <trkpt lat="47.8659020" lon="12.9055930">
        <ele>456.7600000</ele>
        <time>2010-04-06T11:23:19Z</time>
      </trkpt>
      <trkpt lat="47.8660080" lon="12.9053880">
        <ele>456.7600000</ele>
        <time>2010-04-06T11:23:24Z</time>
      </trkpt>
      <trkpt lat="47.8661060" lon="12.9051750">
        <ele>457.2400000</ele>
        <time>2010-04-06T11:23:29Z</time>
      </trkpt>
      <trkpt lat="47.8661950" lon="12.9049570">
        <ele>457.7200000</ele>
        <time>2010-04-06T11:23:34Z</time>
      </trkpt>
      <trkpt lat="47.8662820" lon="12.9047280">
        <ele>457.7200000</ele>
        <time>2010-04-06T11:23:39Z</time>
      </trkpt>
      <trkpt lat="47.8663700" lon="12.9045080">
        <ele>458.2100000</ele>
        <time>2010-04-06T11:23:44Z</time>
      </trkpt>
      <trkpt lat="47.8664460" lon="12.9042480">
        <ele>458.2100000</ele>
        <time>2010-04-06T11:23:49Z</time>
      </trkpt>
      <trkpt lat="47.8665610" lon="12.9040520">
        <ele>459.1700000</ele>
        <time>2010-04-06T11:23:54Z</time>
      </trkpt>
      <trkpt lat="47.8667200" lon="12.9040560">
        <ele>459.6500000</ele>
        <time>2010-04-06T11:23:59Z</time>
      </trkpt>
      <trkpt lat="47.8668230" lon="12.9041670">
        <ele>460.1300000</ele>
        <time>2010-04-06T11:24:04Z</time>
      </trkpt>
      <trkpt lat="47.8668750" lon="12.9042570">
        <ele>460.1300000</ele>
        <time>2010-04-06T11:24:09Z</time>
      </trkpt>
      <trkpt lat="47.8668740" lon="12.9042630">
        <ele>460.1300000</ele>
        <time>2010-04-06T11:24:14Z</time>
      </trkpt>
      <trkpt lat="47.8668830" lon="12.9042810">
        <ele>459.6500000</ele>
        <time>2010-04-06T11:24:19Z</time>
      </trkpt>
      <trkpt lat="47.8668810" lon="12.9042800">
        <ele>460.1300000</ele>
        <time>2010-04-06T11:24:24Z</time>
      </trkpt>
      <trkpt lat="47.8668810" lon="12.9042800">
        <ele>460.6100000</ele>
        <time>2010-04-06T11:24:29Z</time>
      </trkpt>
      <trkpt lat="47.8668810" lon="12.9042800">
        <ele>460.6100000</ele>
        <time>2010-04-06T11:24:34Z</time>
      </trkpt>
      <trkpt lat="47.8668810" lon="12.9042800">
        <ele>460.1300000</ele>
        <time>2010-04-06T11:24:39Z</time>
      </trkpt>
      <trkpt lat="47.8668810" lon="12.9042800">
        <ele>460.1300000</ele>
        <time>2010-04-06T11:24:44Z</time>
      </trkpt>
      <trkpt lat="47.8668810" lon="12.9042800">
        <ele>460.1300000</ele>
        <time>2010-04-06T11:24:49Z</time>
      </trkpt>
      <trkpt lat="47.8668810" lon="12.9042800">
        <ele>460.1300000</ele>
        <time>2010-04-06T11:24:54Z</time>
      </trkpt>
      <trkpt lat="47.8668810" lon="12.9042800">
        <ele>460.1300000</ele>
        <time>2010-04-06T11:24:59Z</time>
      </trkpt>
      <trkpt lat="47.8668800" lon="12.9042710">
        <ele>460.1300000</ele>
        <time>2010-04-06T11:25:04Z</time>
      </trkpt>
      <trkpt lat="47.8668800" lon="12.9042710">
        <ele>460.6100000</ele>
        <time>2010-04-06T11:25:09Z</time>
      </trkpt>
      <trkpt lat="47.8668800" lon="12.9042710">
        <ele>459.6500000</ele>
        <time>2010-04-06T11:25:14Z</time>
      </trkpt>
      <trkpt lat="47.8668800" lon="12.9042710">
        <ele>459.6500000</ele>
        <time>2010-04-06T11:25:19Z</time>
      </trkpt>
      <trkpt lat="47.8668800" lon="12.9042710">
        <ele>460.1300000</ele>
        <time>2010-04-06T11:25:24Z</time>
      </trkpt>
      <trkpt lat="47.8668800" lon="12.9042710">
        <ele>460.1300000</ele>
        <time>2010-04-06T11:25:29Z</time>
      </trkpt>
      <trkpt lat="47.8668750" lon="12.9042710">
        <ele>460.1300000</ele>
        <time>2010-04-06T11:25:33Z</time>
      </trkpt>
      <trkpt lat="47.8668750" lon="12.9042710">
        <ele>460.1300000</ele>
        <time>2010-04-06T11:25:39Z</time>
      </trkpt>
      <trkpt lat="47.8668740" lon="12.9042600">
        <ele>460.6100000</ele>
        <time>2010-04-06T11:25:44Z</time>
      </trkpt>
      <trkpt lat="47.8668330" lon="12.9041840">
        <ele>460.1300000</ele>
        <time>2010-04-06T11:25:49Z</time>
      </trkpt>
      <trkpt lat="47.8667520" lon="12.9040570">
        <ele>459.6500000</ele>
        <time>2010-04-06T11:25:55Z</time>
      </trkpt>
      <trkpt lat="47.8668260" lon="12.9038920">
        <ele>460.1300000</ele>
        <time>2010-04-06T11:26:00Z</time>
      </trkpt>
      <trkpt lat="47.8669470" lon="12.9037190">
        <ele>459.1700000</ele>
        <time>2010-04-06T11:26:05Z</time>
      </trkpt>
      <trkpt lat="47.8670670" lon="12.9037710">
        <ele>460.1300000</ele>
        <time>2010-04-06T11:26:10Z</time>
      </trkpt>
      <trkpt lat="47.8671960" lon="12.9039510">
        <ele>457.2400000</ele>
        <time>2010-04-06T11:26:15Z</time>
      </trkpt>
      <trkpt lat="47.8675060" lon="12.9042540">
        <ele>453.4000000</ele>
        <time>2010-04-06T11:26:20Z</time>
      </trkpt>
      <trkpt lat="47.8678680" lon="12.9045160">
        <ele>454.3600000</ele>
        <time>2010-04-06T11:26:25Z</time>
      </trkpt>
      <trkpt lat="47.8681240" lon="12.9047780">
        <ele>455.3200000</ele>
        <time>2010-04-06T11:26:30Z</time>
      </trkpt>
      <trkpt lat="47.8683740" lon="12.9049670">
        <ele>453.8800000</ele>
        <time>2010-04-06T11:26:35Z</time>
      </trkpt>
      <trkpt lat="47.8687380" lon="12.9049840">
        <ele>451.0000000</ele>
        <time>2010-04-06T11:26:40Z</time>
      </trkpt>
      <trkpt lat="47.8692130" lon="12.9049910">
        <ele>445.7100000</ele>
        <time>2010-04-06T11:26:45Z</time>
      </trkpt>
      <trkpt lat="47.8696620" lon="12.9053300">
        <ele>442.3400000</ele>
        <time>2010-04-06T11:26:50Z</time>
      </trkpt>
      <trkpt lat="47.8700650" lon="12.9054860">
        <ele>443.3100000</ele>
        <time>2010-04-06T11:26:55Z</time>
      </trkpt>
      <trkpt lat="47.8703610" lon="12.9052260">
        <ele>444.7500000</ele>
        <time>2010-04-06T11:27:00Z</time>
      </trkpt>
      <trkpt lat="47.8705730" lon="12.9050960">
        <ele>446.1900000</ele>
        <time>2010-04-06T11:27:05Z</time>
      </trkpt>
      <trkpt lat="47.8707760" lon="12.9050010">
        <ele>448.1100000</ele>
        <time>2010-04-06T11:27:10Z</time>
      </trkpt>
      <trkpt lat="47.8708940" lon="12.9049110">
        <ele>450.5200000</ele>
        <time>2010-04-06T11:27:15Z</time>
      </trkpt>
      <trkpt lat="47.8710380" lon="12.9048500">
        <ele>452.4400000</ele>
        <time>2010-04-06T11:27:20Z</time>
      </trkpt>
      <trkpt lat="47.8712210" lon="12.9047550">
        <ele>453.4000000</ele>
        <time>2010-04-06T11:27:25Z</time>
      </trkpt>
      <trkpt lat="47.8713710" lon="12.9046030">
        <ele>453.4000000</ele>
        <time>2010-04-06T11:27:30Z</time>
      </trkpt>
      <trkpt lat="47.8715760" lon="12.9044770">
        <ele>452.4400000</ele>
        <time>2010-04-06T11:27:35Z</time>
      </trkpt>
      <trkpt lat="47.8718850" lon="12.9043940">
        <ele>451.4800000</ele>
        <time>2010-04-06T11:27:40Z</time>
      </trkpt>
      <trkpt lat="47.8721830" lon="12.9043330">
        <ele>450.0300000</ele>
        <time>2010-04-06T11:27:45Z</time>
      </trkpt>
      <trkpt lat="47.8725350" lon="12.9044370">
        <ele>447.6300000</ele>
        <time>2010-04-06T11:27:50Z</time>
      </trkpt>
      <trkpt lat="47.8729640" lon="12.9048790">
        <ele>438.5000000</ele>
        <time>2010-04-06T11:27:55Z</time>
      </trkpt>
      <trkpt lat="47.8734290" lon="12.9051640">
        <ele>437.0600000</ele>
        <time>2010-04-06T11:28:00Z</time>
      </trkpt>
      <trkpt lat="47.8738090" lon="12.9054020">
        <ele>438.0200000</ele>
        <time>2010-04-06T11:28:05Z</time>
      </trkpt>
      <trkpt lat="47.8740600" lon="12.9056640">
        <ele>440.9000000</ele>
        <time>2010-04-06T11:28:10Z</time>
      </trkpt>
      <trkpt lat="47.8742500" lon="12.9058120">
        <ele>443.3100000</ele>
        <time>2010-04-06T11:28:15Z</time>
      </trkpt>
      <trkpt lat="47.8744210" lon="12.9059280">
        <ele>445.2300000</ele>
        <time>2010-04-06T11:28:20Z</time>
      </trkpt>
      <trkpt lat="47.8745830" lon="12.9060310">
        <ele>446.1900000</ele>
        <time>2010-04-06T11:28:25Z</time>
      </trkpt>
      <trkpt lat="47.8747540" lon="12.9061300">
        <ele>448.1100000</ele>
        <time>2010-04-06T11:28:30Z</time>
      </trkpt>
      <trkpt lat="47.8749280" lon="12.9062590">
        <ele>447.6300000</ele>
        <time>2010-04-06T11:28:35Z</time>
      </trkpt>
      <trkpt lat="47.8750990" lon="12.9064690">
        <ele>447.1500000</ele>
        <time>2010-04-06T11:28:40Z</time>
      </trkpt>
      <trkpt lat="47.8752550" lon="12.9066980">
        <ele>447.6300000</ele>
        <time>2010-04-06T11:28:45Z</time>
      </trkpt>
      <trkpt lat="47.8754160" lon="12.9069220">
        <ele>447.6300000</ele>
        <time>2010-04-06T11:28:50Z</time>
      </trkpt>
      <trkpt lat="47.8755730" lon="12.9071710">
        <ele>447.1500000</ele>
        <time>2010-04-06T11:28:55Z</time>
      </trkpt>
      <trkpt lat="47.8757720" lon="12.9074370">
        <ele>446.1900000</ele>
        <time>2010-04-06T11:29:00Z</time>
      </trkpt>
      <trkpt lat="47.8760750" lon="12.9073170">
        <ele>443.7900000</ele>
        <time>2010-04-06T11:29:05Z</time>
      </trkpt>
      <trkpt lat="47.8764240" lon="12.9070740">
        <ele>442.3400000</ele>
        <time>2010-04-06T11:29:10Z</time>
      </trkpt>
      <trkpt lat="47.8767730" lon="12.9068220">
        <ele>442.3400000</ele>
        <time>2010-04-06T11:29:15Z</time>
      </trkpt>
      <trkpt lat="47.8770860" lon="12.9066010">
        <ele>442.3400000</ele>
        <time>2010-04-06T11:29:20Z</time>
      </trkpt>
      <trkpt lat="47.8773470" lon="12.9063730">
        <ele>443.7900000</ele>
        <time>2010-04-06T11:29:25Z</time>
      </trkpt>
      <trkpt lat="47.8775370" lon="12.9060870">
        <ele>444.7500000</ele>
        <time>2010-04-06T11:29:30Z</time>
      </trkpt>
      <trkpt lat="47.8777070" lon="12.9057640">
        <ele>445.2300000</ele>
        <time>2010-04-06T11:29:35Z</time>
      </trkpt>
      <trkpt lat="47.8778390" lon="12.9054600">
        <ele>444.7500000</ele>
        <time>2010-04-06T11:29:40Z</time>
      </trkpt>
      <trkpt lat="47.8780060" lon="12.9053980">
        <ele>444.2700000</ele>
        <time>2010-04-06T11:29:45Z</time>
      </trkpt>
      <trkpt lat="47.8781420" lon="12.9056420">
        <ele>444.7500000</ele>
        <time>2010-04-06T11:29:50Z</time>
      </trkpt>
      <trkpt lat="47.8782910" lon="12.9059050">
        <ele>443.3100000</ele>
        <time>2010-04-06T11:29:55Z</time>
      </trkpt>
      <trkpt lat="47.8784710" lon="12.9062210">
        <ele>442.3400000</ele>
        <time>2010-04-06T11:30:00Z</time>
      </trkpt>
      <trkpt lat="47.8787040" lon="12.9066550">
        <ele>438.9800000</ele>
        <time>2010-04-06T11:30:05Z</time>
      </trkpt>
      <trkpt lat="47.8789800" lon="12.9072310">
        <ele>433.2100000</ele>
        <time>2010-04-06T11:30:10Z</time>
      </trkpt>
      <trkpt lat="47.8791830" lon="12.9078270">
        <ele>434.6500000</ele>
        <time>2010-04-06T11:30:15Z</time>
      </trkpt>
      <trkpt lat="47.8791030" lon="12.9082150">
        <ele>438.5000000</ele>
        <time>2010-04-06T11:30:20Z</time>
      </trkpt>
      <trkpt lat="47.8789610" lon="12.9084240">
        <ele>440.4200000</ele>
        <time>2010-04-06T11:30:25Z</time>
      </trkpt>
      <trkpt lat="47.8788520" lon="12.9086260">
        <ele>442.8200000</ele>
        <time>2010-04-06T11:30:30Z</time>
      </trkpt>
      <trkpt lat="47.8787690" lon="12.9088350">
        <ele>443.7900000</ele>
        <time>2010-04-06T11:30:35Z</time>
      </trkpt>
      <trkpt lat="47.8787230" lon="12.9090580">
        <ele>445.2300000</ele>
        <time>2010-04-06T11:30:40Z</time>
      </trkpt>
      <trkpt lat="47.8787780" lon="12.9091780">
        <ele>446.6700000</ele>
        <time>2010-04-06T11:30:45Z</time>
      </trkpt>
      <trkpt lat="47.8789100" lon="12.9092020">
        <ele>447.6300000</ele>
        <time>2010-04-06T11:30:50Z</time>
      </trkpt>
      <trkpt lat="47.8790550" lon="12.9091830">
        <ele>447.6300000</ele>
        <time>2010-04-06T11:30:55Z</time>
      </trkpt>
      <trkpt lat="47.8792130" lon="12.9091650">
        <ele>449.0700000</ele>
        <time>2010-04-06T11:31:00Z</time>
      </trkpt>
      <trkpt lat="47.8793490" lon="12.9091730">
        <ele>450.5200000</ele>
        <time>2010-04-06T11:31:05Z</time>
      </trkpt>
      <trkpt lat="47.8794380" lon="12.9092400">
        <ele>451.9600000</ele>
        <time>2010-04-06T11:31:10Z</time>
      </trkpt>
      <trkpt lat="47.8795570" lon="12.9092860">
        <ele>452.9200000</ele>
        <time>2010-04-06T11:31:15Z</time>
      </trkpt>
      <trkpt lat="47.8796650" lon="12.9090540">
        <ele>451.9600000</ele>
        <time>2010-04-06T11:31:20Z</time>
      </trkpt>
      <trkpt lat="47.8798310" lon="12.9087510">
        <ele>451.0000000</ele>
        <time>2010-04-06T11:31:25Z</time>
      </trkpt>
      <trkpt lat="47.8799870" lon="12.9085770">
        <ele>451.4800000</ele>
        <time>2010-04-06T11:31:30Z</time>
      </trkpt>
      <trkpt lat="47.8801480" lon="12.9083930">
        <ele>450.5200000</ele>
        <time>2010-04-06T11:31:35Z</time>
      </trkpt>
      <trkpt lat="47.8803070" lon="12.9081610">
        <ele>448.1100000</ele>
        <time>2010-04-06T11:31:40Z</time>
      </trkpt>
      <trkpt lat="47.8804520" lon="12.9078490">
        <ele>446.1900000</ele>
        <time>2010-04-06T11:31:45Z</time>
      </trkpt>
      <trkpt lat="47.8806740" lon="12.9075160">
        <ele>444.7500000</ele>
        <time>2010-04-06T11:31:50Z</time>
      </trkpt>
      <trkpt lat="47.8808390" lon="12.9073680">
        <ele>445.2300000</ele>
        <time>2010-04-06T11:31:55Z</time>
      </trkpt>
      <trkpt lat="47.8809150" lon="12.9072740">
        <ele>445.7100000</ele>
        <time>2010-04-06T11:32:00Z</time>
      </trkpt>
      <trkpt lat="47.8810050" lon="12.9071600">
        <ele>446.1900000</ele>
        <time>2010-04-06T11:32:05Z</time>
      </trkpt>
      <trkpt lat="47.8810930" lon="12.9070170">
        <ele>445.7100000</ele>
        <time>2010-04-06T11:32:10Z</time>
      </trkpt>
      <trkpt lat="47.8811700" lon="12.9069090">
        <ele>446.1900000</ele>
        <time>2010-04-06T11:32:15Z</time>
      </trkpt>
      <trkpt lat="47.8812710" lon="12.9068150">
        <ele>447.6300000</ele>
        <time>2010-04-06T11:32:20Z</time>
      </trkpt>
      <trkpt lat="47.8813340" lon="12.9067370">
        <ele>448.1100000</ele>
        <time>2010-04-06T11:32:25Z</time>
      </trkpt>
      <trkpt lat="47.8814230" lon="12.9066770">
        <ele>449.0700000</ele>
        <time>2010-04-06T11:32:30Z</time>
      </trkpt>
      <trkpt lat="47.8815070" lon="12.9066350">
        <ele>449.5500000</ele>
        <time>2010-04-06T11:32:35Z</time>
      </trkpt>
      <trkpt lat="47.8816260" lon="12.9065750">
        <ele>450.0300000</ele>
        <time>2010-04-06T11:32:40Z</time>
      </trkpt>
      <trkpt lat="47.8817220" lon="12.9065300">
        <ele>451.0000000</ele>
        <time>2010-04-06T11:32:45Z</time>
      </trkpt>
      <trkpt lat="47.8817780" lon="12.9064350">
        <ele>450.5200000</ele>
        <time>2010-04-06T11:32:51Z</time>
      </trkpt>
      <trkpt lat="47.8818370" lon="12.9063460">
        <ele>449.5500000</ele>
        <time>2010-04-06T11:32:56Z</time>
      </trkpt>
      <trkpt lat="47.8818900" lon="12.9062560">
        <ele>449.5500000</ele>
        <time>2010-04-06T11:33:01Z</time>
      </trkpt>
      <trkpt lat="47.8819400" lon="12.9061420">
        <ele>448.1100000</ele>
        <time>2010-04-06T11:33:06Z</time>
      </trkpt>
      <trkpt lat="47.8820570" lon="12.9060280">
        <ele>447.1500000</ele>
        <time>2010-04-06T11:33:11Z</time>
      </trkpt>
      <trkpt lat="47.8821510" lon="12.9059850">
        <ele>446.6700000</ele>
        <time>2010-04-06T11:33:16Z</time>
      </trkpt>
      <trkpt lat="47.8822140" lon="12.9059530">
        <ele>446.6700000</ele>
        <time>2010-04-06T11:33:21Z</time>
      </trkpt>
      <trkpt lat="47.8822290" lon="12.9058280">
        <ele>444.2700000</ele>
        <time>2010-04-06T11:33:26Z</time>
      </trkpt>
      <trkpt lat="47.8822850" lon="12.9057270">
        <ele>443.3100000</ele>
        <time>2010-04-06T11:33:31Z</time>
      </trkpt>
      <trkpt lat="47.8824910" lon="12.9056820">
        <ele>442.3400000</ele>
        <time>2010-04-06T11:33:36Z</time>
      </trkpt>
      <trkpt lat="47.8826260" lon="12.9056100">
        <ele>442.3400000</ele>
        <time>2010-04-06T11:33:41Z</time>
      </trkpt>
      <trkpt lat="47.8827390" lon="12.9055800">
        <ele>443.3100000</ele>
        <time>2010-04-06T11:33:46Z</time>
      </trkpt>
      <trkpt lat="47.8828140" lon="12.9055290">
        <ele>442.3400000</ele>
        <time>2010-04-06T11:33:51Z</time>
      </trkpt>
      <trkpt lat="47.8829530" lon="12.9054300">
        <ele>441.8600000</ele>
        <time>2010-04-06T11:33:56Z</time>
      </trkpt>
      <trkpt lat="47.8830650" lon="12.9053330">
        <ele>442.3400000</ele>
        <time>2010-04-06T11:34:01Z</time>
      </trkpt>
      <trkpt lat="47.8831760" lon="12.9052770">
        <ele>441.8600000</ele>
        <time>2010-04-06T11:34:06Z</time>
      </trkpt>
      <trkpt lat="47.8832740" lon="12.9052100">
        <ele>441.3800000</ele>
        <time>2010-04-06T11:34:11Z</time>
      </trkpt>
      <trkpt lat="47.8833930" lon="12.9050880">
        <ele>439.9400000</ele>
        <time>2010-04-06T11:34:16Z</time>
      </trkpt>
      <trkpt lat="47.8835380" lon="12.9049390">
        <ele>438.9800000</ele>
        <time>2010-04-06T11:34:21Z</time>
      </trkpt>
      <trkpt lat="47.8836530" lon="12.9047930">
        <ele>438.5000000</ele>
        <time>2010-04-06T11:34:26Z</time>
      </trkpt>
      <trkpt lat="47.8837760" lon="12.9046690">
        <ele>438.0200000</ele>
        <time>2010-04-06T11:34:31Z</time>
      </trkpt>
      <trkpt lat="47.8839500" lon="12.9045270">
        <ele>437.5400000</ele>
        <time>2010-04-06T11:34:36Z</time>
      </trkpt>
      <trkpt lat="47.8841370" lon="12.9044010">
        <ele>437.0600000</ele>
        <time>2010-04-06T11:34:41Z</time>
      </trkpt>
      <trkpt lat="47.8842340" lon="12.9042860">
        <ele>436.1000000</ele>
        <time>2010-04-06T11:34:46Z</time>
      </trkpt>
      <trkpt lat="47.8843470" lon="12.9041070">
        <ele>434.6500000</ele>
        <time>2010-04-06T11:34:51Z</time>
      </trkpt>
      <trkpt lat="47.8844550" lon="12.9039340">
        <ele>433.6900000</ele>
        <time>2010-04-06T11:34:56Z</time>
      </trkpt>
      <trkpt lat="47.8846420" lon="12.9038340">
        <ele>433.6900000</ele>
        <time>2010-04-06T11:35:01Z</time>
      </trkpt>
      <trkpt lat="47.8847840" lon="12.9037420">
        <ele>434.1700000</ele>
        <time>2010-04-06T11:35:06Z</time>
      </trkpt>
      <trkpt lat="47.8848940" lon="12.9035700">
        <ele>434.1700000</ele>
        <time>2010-04-06T11:35:11Z</time>
      </trkpt>
      <trkpt lat="47.8849430" lon="12.9033410">
        <ele>432.7300000</ele>
        <time>2010-04-06T11:35:16Z</time>
      </trkpt>
      <trkpt lat="47.8849340" lon="12.9030540">
        <ele>432.2500000</ele>
        <time>2010-04-06T11:35:21Z</time>
      </trkpt>
      <trkpt lat="47.8850250" lon="12.9028250">
        <ele>431.7700000</ele>
        <time>2010-04-06T11:35:26Z</time>
      </trkpt>
      <trkpt lat="47.8851800" lon="12.9026510">
        <ele>431.7700000</ele>
        <time>2010-04-06T11:35:31Z</time>
      </trkpt>
      <trkpt lat="47.8853460" lon="12.9024810">
        <ele>431.7700000</ele>
        <time>2010-04-06T11:35:36Z</time>
      </trkpt>
      <trkpt lat="47.8854890" lon="12.9022720">
        <ele>432.2500000</ele>
        <time>2010-04-06T11:35:41Z</time>
      </trkpt>
      <trkpt lat="47.8856110" lon="12.9020370">
        <ele>432.2500000</ele>
        <time>2010-04-06T11:35:46Z</time>
      </trkpt>
      <trkpt lat="47.8857580" lon="12.9019750">
        <ele>432.7300000</ele>
        <time>2010-04-06T11:35:51Z</time>
      </trkpt>
      <trkpt lat="47.8858800" lon="12.9021110">
        <ele>432.7300000</ele>
        <time>2010-04-06T11:35:56Z</time>
      </trkpt>
      <trkpt lat="47.8860070" lon="12.9022480">
        <ele>433.2100000</ele>
        <time>2010-04-06T11:36:01Z</time>
      </trkpt>
      <trkpt lat="47.8861500" lon="12.9023960">
        <ele>434.1700000</ele>
        <time>2010-04-06T11:36:06Z</time>
      </trkpt>
      <trkpt lat="47.8863030" lon="12.9025540">
        <ele>434.6500000</ele>
        <time>2010-04-06T11:36:11Z</time>
      </trkpt>
      <trkpt lat="47.8864440" lon="12.9027000">
        <ele>435.1300000</ele>
        <time>2010-04-06T11:36:16Z</time>
      </trkpt>
      <trkpt lat="47.8865770" lon="12.9028250">
        <ele>436.1000000</ele>
        <time>2010-04-06T11:36:21Z</time>
      </trkpt>
      <trkpt lat="47.8867110" lon="12.9029590">
        <ele>437.0600000</ele>
        <time>2010-04-06T11:36:26Z</time>
      </trkpt>
      <trkpt lat="47.8868400" lon="12.9030900">
        <ele>438.0200000</ele>
        <time>2010-04-06T11:36:31Z</time>
      </trkpt>
      <trkpt lat="47.8869700" lon="12.9032390">
        <ele>438.9800000</ele>
        <time>2010-04-06T11:36:36Z</time>
      </trkpt>
      <trkpt lat="47.8870940" lon="12.9033830">
        <ele>439.9400000</ele>
        <time>2010-04-06T11:36:41Z</time>
      </trkpt>
      <trkpt lat="47.8872290" lon="12.9035450">
        <ele>441.3800000</ele>
        <time>2010-04-06T11:36:46Z</time>
      </trkpt>
      <trkpt lat="47.8873420" lon="12.9036350">
        <ele>442.3400000</ele>
        <time>2010-04-06T11:36:51Z</time>
      </trkpt>
      <trkpt lat="47.8874460" lon="12.9037420">
        <ele>443.3100000</ele>
        <time>2010-04-06T11:36:56Z</time>
      </trkpt>
      <trkpt lat="47.8875310" lon="12.9038650">
        <ele>444.7500000</ele>
        <time>2010-04-06T11:37:01Z</time>
      </trkpt>
      <trkpt lat="47.8876000" lon="12.9040000">
        <ele>446.1900000</ele>
        <time>2010-04-06T11:37:06Z</time>
      </trkpt>
      <trkpt lat="47.8876620" lon="12.9041250">
        <ele>448.1100000</ele>
        <time>2010-04-06T11:37:11Z</time>
      </trkpt>
      <trkpt lat="47.8877110" lon="12.9042590">
        <ele>449.0700000</ele>
        <time>2010-04-06T11:37:16Z</time>
      </trkpt>
      <trkpt lat="47.8877620" lon="12.9043990">
        <ele>450.0300000</ele>
        <time>2010-04-06T11:37:21Z</time>
      </trkpt>
      <trkpt lat="47.8878140" lon="12.9045340">
        <ele>450.5200000</ele>
        <time>2010-04-06T11:37:26Z</time>
      </trkpt>
      <trkpt lat="47.8878710" lon="12.9046840">
        <ele>451.4800000</ele>
        <time>2010-04-06T11:37:31Z</time>
      </trkpt>
      <trkpt lat="47.8879340" lon="12.9048240">
        <ele>451.9600000</ele>
        <time>2010-04-06T11:37:36Z</time>
      </trkpt>
      <trkpt lat="47.8879960" lon="12.9049790">
        <ele>452.9200000</ele>
        <time>2010-04-06T11:37:41Z</time>
      </trkpt>
      <trkpt lat="47.8880660" lon="12.9051470">
        <ele>453.4000000</ele>
        <time>2010-04-06T11:37:46Z</time>
      </trkpt>
      <trkpt lat="47.8881380" lon="12.9053260">
        <ele>453.8800000</ele>
        <time>2010-04-06T11:37:51Z</time>
      </trkpt>
      <trkpt lat="47.8882040" lon="12.9055340">
        <ele>454.3600000</ele>
        <time>2010-04-06T11:37:56Z</time>
      </trkpt>
      <trkpt lat="47.8882290" lon="12.9057780">
        <ele>453.8800000</ele>
        <time>2010-04-06T11:38:01Z</time>
      </trkpt>
      <trkpt lat="47.8882020" lon="12.9060050">
        <ele>454.3600000</ele>
        <time>2010-04-06T11:38:06Z</time>
      </trkpt>
      <trkpt lat="47.8881660" lon="12.9062160">
        <ele>455.3200000</ele>
        <time>2010-04-06T11:38:11Z</time>
      </trkpt>
      <trkpt lat="47.8881300" lon="12.9064100">
        <ele>456.2800000</ele>
        <time>2010-04-06T11:38:16Z</time>
      </trkpt>
      <trkpt lat="47.8880910" lon="12.9065860">
        <ele>457.2400000</ele>
        <time>2010-04-06T11:38:21Z</time>
      </trkpt>
      <trkpt lat="47.8880700" lon="12.9067440">
        <ele>457.7200000</ele>
        <time>2010-04-06T11:38:26Z</time>
      </trkpt>
      <trkpt lat="47.8880450" lon="12.9068890">
        <ele>459.6500000</ele>
        <time>2010-04-06T11:38:31Z</time>
      </trkpt>
      <trkpt lat="47.8880240" lon="12.9070600">
        <ele>460.1300000</ele>
        <time>2010-04-06T11:38:36Z</time>
      </trkpt>
      <trkpt lat="47.8879950" lon="12.9072370">
        <ele>461.5700000</ele>
        <time>2010-04-06T11:38:41Z</time>
      </trkpt>
      <trkpt lat="47.8880140" lon="12.9074140">
        <ele>462.0500000</ele>
        <time>2010-04-06T11:38:46Z</time>
      </trkpt>
      <trkpt lat="47.8880780" lon="12.9075670">
        <ele>462.0500000</ele>
        <time>2010-04-06T11:38:51Z</time>
      </trkpt>
      <trkpt lat="47.8881600" lon="12.9077330">
        <ele>462.5300000</ele>
        <time>2010-04-06T11:38:56Z</time>
      </trkpt>
      <trkpt lat="47.8882410" lon="12.9078910">
        <ele>461.5700000</ele>
        <time>2010-04-06T11:39:01Z</time>
      </trkpt>
      <trkpt lat="47.8884140" lon="12.9079220">
        <ele>462.0500000</ele>
        <time>2010-04-06T11:39:06Z</time>
      </trkpt>
      <trkpt lat="47.8886060" lon="12.9078350">
        <ele>461.0900000</ele>
        <time>2010-04-06T11:39:11Z</time>
      </trkpt>
      <trkpt lat="47.8887940" lon="12.9076860">
        <ele>460.6100000</ele>
        <time>2010-04-06T11:39:16Z</time>
      </trkpt>
      <trkpt lat="47.8889770" lon="12.9074990">
        <ele>460.6100000</ele>
        <time>2010-04-06T11:39:21Z</time>
      </trkpt>
      <trkpt lat="47.8891530" lon="12.9073310">
        <ele>460.6100000</ele>
        <time>2010-04-06T11:39:26Z</time>
      </trkpt>
      <trkpt lat="47.8893180" lon="12.9071390">
        <ele>461.0900000</ele>
        <time>2010-04-06T11:39:31Z</time>
      </trkpt>
      <trkpt lat="47.8895100" lon="12.9071530">
        <ele>459.6500000</ele>
        <time>2010-04-06T11:39:36Z</time>
      </trkpt>
      <trkpt lat="47.8898150" lon="12.9073820">
        <ele>455.3200000</ele>
        <time>2010-04-06T11:39:41Z</time>
      </trkpt>
      <trkpt lat="47.8902310" lon="12.9076880">
        <ele>451.4800000</ele>
        <time>2010-04-06T11:39:46Z</time>
      </trkpt>
      <trkpt lat="47.8907410" lon="12.9080440">
        <ele>445.7100000</ele>
        <time>2010-04-06T11:39:51Z</time>
      </trkpt>
      <trkpt lat="47.8912000" lon="12.9081710">
        <ele>445.2300000</ele>
        <time>2010-04-06T11:39:56Z</time>
      </trkpt>
      <trkpt lat="47.8916080" lon="12.9078760">
        <ele>442.8200000</ele>
        <time>2010-04-06T11:40:01Z</time>
      </trkpt>
      <trkpt lat="47.8919890" lon="12.9076000">
        <ele>441.3800000</ele>
        <time>2010-04-06T11:40:06Z</time>
      </trkpt>
      <trkpt lat="47.8922140" lon="12.9077060">
        <ele>441.8600000</ele>
        <time>2010-04-06T11:40:11Z</time>
      </trkpt>
      <trkpt lat="47.8922880" lon="12.9080310">
        <ele>442.3400000</ele>
        <time>2010-04-06T11:40:16Z</time>
      </trkpt>
      <trkpt lat="47.8923420" lon="12.9082820">
        <ele>444.2700000</ele>
        <time>2010-04-06T11:40:21Z</time>
      </trkpt>
      <trkpt lat="47.8923880" lon="12.9084750">
        <ele>445.7100000</ele>
        <time>2010-04-06T11:40:26Z</time>
      </trkpt>
      <trkpt lat="47.8924260" lon="12.9086580">
        <ele>447.1500000</ele>
        <time>2010-04-06T11:40:31Z</time>
      </trkpt>
      <trkpt lat="47.8924600" lon="12.9088270">
        <ele>449.0700000</ele>
        <time>2010-04-06T11:40:36Z</time>
      </trkpt>
      <trkpt lat="47.8924830" lon="12.9089460">
        <ele>450.5200000</ele>
        <time>2010-04-06T11:40:41Z</time>
      </trkpt>
      <trkpt lat="47.8925040" lon="12.9090320">
        <ele>448.5900000</ele>
        <time>2010-04-06T11:40:46Z</time>
      </trkpt>
      <trkpt lat="47.8925380" lon="12.9091220">
        <ele>452.9200000</ele>
        <time>2010-04-06T11:40:51Z</time>
      </trkpt>
      <trkpt lat="47.8925670" lon="12.9092150">
        <ele>459.1700000</ele>
        <time>2010-04-06T11:40:56Z</time>
      </trkpt>
      <trkpt lat="47.8926190" lon="12.9092770">
        <ele>455.8000000</ele>
        <time>2010-04-06T11:41:00Z</time>
      </trkpt>
      <trkpt lat="47.8926890" lon="12.9093780">
        <ele>457.7200000</ele>
        <time>2010-04-06T11:41:06Z</time>
      </trkpt>
      <trkpt lat="47.8927260" lon="12.9094430">
        <ele>459.1700000</ele>
        <time>2010-04-06T11:41:11Z</time>
      </trkpt>
      <trkpt lat="47.8927620" lon="12.9095110">
        <ele>460.1300000</ele>
        <time>2010-04-06T11:41:16Z</time>
      </trkpt>
      <trkpt lat="47.8928090" lon="12.9095700">
        <ele>462.0500000</ele>
        <time>2010-04-06T11:41:21Z</time>
      </trkpt>
      <trkpt lat="47.8928720" lon="12.9096280">
        <ele>462.5300000</ele>
        <time>2010-04-06T11:41:26Z</time>
      </trkpt>
      <trkpt lat="47.8929460" lon="12.9097000">
        <ele>463.9700000</ele>
        <time>2010-04-06T11:41:31Z</time>
      </trkpt>
      <trkpt lat="47.8930170" lon="12.9097690">
        <ele>464.9300000</ele>
        <time>2010-04-06T11:41:36Z</time>
      </trkpt>
      <trkpt lat="47.8930670" lon="12.9098090">
        <ele>465.4200000</ele>
        <time>2010-04-06T11:41:41Z</time>
      </trkpt>
      <trkpt lat="47.8931270" lon="12.9098480">
        <ele>465.4200000</ele>
        <time>2010-04-06T11:41:46Z</time>
      </trkpt>
      <trkpt lat="47.8932000" lon="12.9098520">
        <ele>467.3400000</ele>
        <time>2010-04-06T11:41:51Z</time>
      </trkpt>
      <trkpt lat="47.8932890" lon="12.9099070">
        <ele>467.3400000</ele>
        <time>2010-04-06T11:41:56Z</time>
      </trkpt>
      <trkpt lat="47.8933900" lon="12.9099570">
        <ele>467.8200000</ele>
        <time>2010-04-06T11:42:01Z</time>
      </trkpt>
      <trkpt lat="47.8934960" lon="12.9099950">
        <ele>468.3000000</ele>
        <time>2010-04-06T11:42:06Z</time>
      </trkpt>
      <trkpt lat="47.8935870" lon="12.9100420">
        <ele>467.8200000</ele>
        <time>2010-04-06T11:42:11Z</time>
      </trkpt>
      <trkpt lat="47.8936900" lon="12.9101070">
        <ele>468.7800000</ele>
        <time>2010-04-06T11:42:16Z</time>
      </trkpt>
      <trkpt lat="47.8937970" lon="12.9101660">
        <ele>470.7000000</ele>
        <time>2010-04-06T11:42:21Z</time>
      </trkpt>
      <trkpt lat="47.8938980" lon="12.9102530">
        <ele>470.7000000</ele>
        <time>2010-04-06T11:42:26Z</time>
      </trkpt>
      <trkpt lat="47.8939740" lon="12.9103510">
        <ele>471.1800000</ele>
        <time>2010-04-06T11:42:31Z</time>
      </trkpt>
      <trkpt lat="47.8940730" lon="12.9104670">
        <ele>471.1800000</ele>
        <time>2010-04-06T11:42:36Z</time>
      </trkpt>
      <trkpt lat="47.8940890" lon="12.9105490">
        <ele>472.6300000</ele>
        <time>2010-04-06T11:42:41Z</time>
      </trkpt>
      <trkpt lat="47.8941730" lon="12.9106760">
        <ele>471.6600000</ele>
        <time>2010-04-06T11:42:46Z</time>
      </trkpt>
      <trkpt lat="47.8942910" lon="12.9107910">
        <ele>472.1400000</ele>
        <time>2010-04-06T11:42:51Z</time>
      </trkpt>
      <trkpt lat="47.8943520" lon="12.9108990">
        <ele>472.6300000</ele>
        <time>2010-04-06T11:42:56Z</time>
      </trkpt>
      <trkpt lat="47.8944440" lon="12.9110170">
        <ele>472.1400000</ele>
        <time>2010-04-06T11:43:01Z</time>
      </trkpt>
      <trkpt lat="47.8945120" lon="12.9111580">
        <ele>471.6600000</ele>
        <time>2010-04-06T11:43:06Z</time>
      </trkpt>
      <trkpt lat="47.8945850" lon="12.9113290">
        <ele>470.2200000</ele>
        <time>2010-04-06T11:43:11Z</time>
      </trkpt>
      <trkpt lat="47.8946840" lon="12.9114760">
        <ele>469.2600000</ele>
        <time>2010-04-06T11:43:16Z</time>
      </trkpt>
      <trkpt lat="47.8947670" lon="12.9115730">
        <ele>467.3400000</ele>
        <time>2010-04-06T11:43:21Z</time>
      </trkpt>
      <trkpt lat="47.8947970" lon="12.9116700">
        <ele>468.3000000</ele>
        <time>2010-04-06T11:43:26Z</time>
      </trkpt>
      <trkpt lat="47.8947870" lon="12.9116550">
        <ele>466.8600000</ele>
        <time>2010-04-06T11:43:31Z</time>
      </trkpt>
      <trkpt lat="47.8948660" lon="12.9116260">
        <ele>467.8200000</ele>
        <time>2010-04-06T11:43:36Z</time>
      </trkpt>
      <trkpt lat="47.8949620" lon="12.9115710">
        <ele>467.3400000</ele>
        <time>2010-04-06T11:43:41Z</time>
      </trkpt>
      <trkpt lat="47.8950540" lon="12.9115460">
        <ele>466.8600000</ele>
        <time>2010-04-06T11:43:46Z</time>
      </trkpt>
      <trkpt lat="47.8951390" lon="12.9116510">
        <ele>466.8600000</ele>
        <time>2010-04-06T11:43:51Z</time>
      </trkpt>
      <trkpt lat="47.8952430" lon="12.9117580">
        <ele>464.9300000</ele>
        <time>2010-04-06T11:43:56Z</time>
      </trkpt>
      <trkpt lat="47.8954130" lon="12.9118570">
        <ele>463.4900000</ele>
        <time>2010-04-06T11:44:01Z</time>
      </trkpt>
      <trkpt lat="47.8955700" lon="12.9119520">
        <ele>461.5700000</ele>
        <time>2010-04-06T11:44:06Z</time>
      </trkpt>
      <trkpt lat="47.8956950" lon="12.9119910">
        <ele>460.1300000</ele>
        <time>2010-04-06T11:44:11Z</time>
      </trkpt>
      <trkpt lat="47.8957180" lon="12.9119910">
        <ele>459.6500000</ele>
        <time>2010-04-06T11:44:16Z</time>
      </trkpt>
      <trkpt lat="47.8957400" lon="12.9120510">
        <ele>459.6500000</ele>
        <time>2010-04-06T11:44:21Z</time>
      </trkpt>
      <trkpt lat="47.8957690" lon="12.9121350">
        <ele>459.1700000</ele>
        <time>2010-04-06T11:44:26Z</time>
      </trkpt>
      <trkpt lat="47.8957860" lon="12.9121520">
        <ele>458.6900000</ele>
        <time>2010-04-06T11:44:31Z</time>
      </trkpt>
      <trkpt lat="47.8957860" lon="12.9121520">
        <ele>457.7200000</ele>
        <time>2010-04-06T11:44:36Z</time>
      </trkpt>
      <trkpt lat="47.8957860" lon="12.9121520">
        <ele>457.7200000</ele>
        <time>2010-04-06T11:44:41Z</time>
      </trkpt>
      <trkpt lat="47.8957850" lon="12.9121630">
        <ele>457.2400000</ele>
        <time>2010-04-06T11:44:46Z</time>
      </trkpt>
      <trkpt lat="47.8957790" lon="12.9121840">
        <ele>458.2100000</ele>
        <time>2010-04-06T11:44:51Z</time>
      </trkpt>
      <trkpt lat="47.8957990" lon="12.9122100">
        <ele>457.2400000</ele>
        <time>2010-04-06T11:44:56Z</time>
      </trkpt>
      <trkpt lat="47.8958730" lon="12.9122890">
        <ele>456.2800000</ele>
        <time>2010-04-06T11:45:01Z</time>
      </trkpt>
      <trkpt lat="47.8959250" lon="12.9123450">
        <ele>456.7600000</ele>
        <time>2010-04-06T11:45:06Z</time>
      </trkpt>
      <trkpt lat="47.8959570" lon="12.9124300">
        <ele>455.3200000</ele>
        <time>2010-04-06T11:45:11Z</time>
      </trkpt>
      <trkpt lat="47.8960010" lon="12.9125740">
        <ele>454.8400000</ele>
        <time>2010-04-06T11:45:16Z</time>
      </trkpt>
      <trkpt lat="47.8960590" lon="12.9126760">
        <ele>454.3600000</ele>
        <time>2010-04-06T11:45:21Z</time>
      </trkpt>
      <trkpt lat="47.8961260" lon="12.9127790">
        <ele>454.3600000</ele>
        <time>2010-04-06T11:45:26Z</time>
      </trkpt>
      <trkpt lat="47.8962090" lon="12.9128860">
        <ele>452.4400000</ele>
        <time>2010-04-06T11:45:31Z</time>
      </trkpt>
      <trkpt lat="47.8962890" lon="12.9129940">
        <ele>452.9200000</ele>
        <time>2010-04-06T11:45:36Z</time>
      </trkpt>
      <trkpt lat="47.8963150" lon="12.9130290">
        <ele>452.4400000</ele>
        <time>2010-04-06T11:45:41Z</time>
      </trkpt>
      <trkpt lat="47.8963150" lon="12.9130290">
        <ele>452.9200000</ele>
        <time>2010-04-06T11:45:46Z</time>
      </trkpt>
      <trkpt lat="47.8963150" lon="12.9130290">
        <ele>451.9600000</ele>
        <time>2010-04-06T11:45:51Z</time>
      </trkpt>
      <trkpt lat="47.8963150" lon="12.9130290">
        <ele>453.4000000</ele>
        <time>2010-04-06T11:45:56Z</time>
      </trkpt>
      <trkpt lat="47.8963290" lon="12.9130430">
        <ele>452.4400000</ele>
        <time>2010-04-06T11:46:01Z</time>
      </trkpt>
      <trkpt lat="47.8963290" lon="12.9130430">
        <ele>451.9600000</ele>
        <time>2010-04-06T11:46:06Z</time>
      </trkpt>
      <trkpt lat="47.8963290" lon="12.9130430">
        <ele>451.0000000</ele>
        <time>2010-04-06T11:46:11Z</time>
      </trkpt>
      <trkpt lat="47.8963290" lon="12.9130430">
        <ele>451.0000000</ele>
        <time>2010-04-06T11:46:16Z</time>
      </trkpt>
      <trkpt lat="47.8963290" lon="12.9130430">
        <ele>451.0000000</ele>
        <time>2010-04-06T11:46:21Z</time>
      </trkpt>
      <trkpt lat="47.8963290" lon="12.9130430">
        <ele>451.0000000</ele>
        <time>2010-04-06T11:46:26Z</time>
      </trkpt>
      <trkpt lat="47.8963290" lon="12.9130430">
        <ele>451.0000000</ele>
        <time>2010-04-06T11:46:31Z</time>
      </trkpt>
      <trkpt lat="47.8963290" lon="12.9130430">
        <ele>451.4800000</ele>
        <time>2010-04-06T11:46:36Z</time>
      </trkpt>
      <trkpt lat="47.8963310" lon="12.9130530">
        <ele>450.5200000</ele>
        <time>2010-04-06T11:46:41Z</time>
      </trkpt>
      <trkpt lat="47.8963360" lon="12.9130640">
        <ele>450.5200000</ele>
        <time>2010-04-06T11:46:46Z</time>
      </trkpt>
      <trkpt lat="47.8963600" lon="12.9131450">
        <ele>451.4800000</ele>
        <time>2010-04-06T11:46:51Z</time>
      </trkpt>
      <trkpt lat="47.8964220" lon="12.9133030">
        <ele>448.5900000</ele>
        <time>2010-04-06T11:46:56Z</time>
      </trkpt>
      <trkpt lat="47.8965040" lon="12.9134600">
        <ele>447.1500000</ele>
        <time>2010-04-06T11:47:01Z</time>
      </trkpt>
      <trkpt lat="47.8966200" lon="12.9135780">
        <ele>443.7900000</ele>
        <time>2010-04-06T11:47:06Z</time>
      </trkpt>
      <trkpt lat="47.8967880" lon="12.9135810">
        <ele>441.8600000</ele>
        <time>2010-04-06T11:47:11Z</time>
      </trkpt>
      <trkpt lat="47.8968810" lon="12.9135790">
        <ele>439.9400000</ele>
        <time>2010-04-06T11:47:16Z</time>
      </trkpt>
      <trkpt lat="47.8970130" lon="12.9136890">
        <ele>437.5400000</ele>
        <time>2010-04-06T11:47:21Z</time>
      </trkpt>
      <trkpt lat="47.8971030" lon="12.9140840">
        <ele>435.1300000</ele>
        <time>2010-04-06T11:47:26Z</time>
      </trkpt>
      <trkpt lat="47.8971740" lon="12.9144910">
        <ele>435.1300000</ele>
        <time>2010-04-06T11:47:31Z</time>
      </trkpt>
      <trkpt lat="47.8972120" lon="12.9148090">
        <ele>436.1000000</ele>
        <time>2010-04-06T11:47:36Z</time>
      </trkpt>
      <trkpt lat="47.8973030" lon="12.9150320">
        <ele>437.0600000</ele>
        <time>2010-04-06T11:47:41Z</time>
      </trkpt>
      <trkpt lat="47.8973960" lon="12.9152200">
        <ele>438.0200000</ele>
        <time>2010-04-06T11:47:46Z</time>
      </trkpt>
      <trkpt lat="47.8974870" lon="12.9154190">
        <ele>439.9400000</ele>
        <time>2010-04-06T11:47:51Z</time>
      </trkpt>
      <trkpt lat="47.8975460" lon="12.9155630">
        <ele>440.9000000</ele>
        <time>2010-04-06T11:47:56Z</time>
      </trkpt>
      <trkpt lat="47.8976150" lon="12.9156970">
        <ele>442.8200000</ele>
        <time>2010-04-06T11:48:01Z</time>
      </trkpt>
      <trkpt lat="47.8976940" lon="12.9158380">
        <ele>444.2700000</ele>
        <time>2010-04-06T11:48:06Z</time>
      </trkpt>
      <trkpt lat="47.8977580" lon="12.9159830">
        <ele>444.2700000</ele>
        <time>2010-04-06T11:48:11Z</time>
      </trkpt>
      <trkpt lat="47.8978510" lon="12.9161820">
        <ele>444.7500000</ele>
        <time>2010-04-06T11:48:16Z</time>
      </trkpt>
      <trkpt lat="47.8979260" lon="12.9163530">
        <ele>444.2700000</ele>
        <time>2010-04-06T11:48:21Z</time>
      </trkpt>
      <trkpt lat="47.8980390" lon="12.9166250">
        <ele>443.3100000</ele>
        <time>2010-04-06T11:48:26Z</time>
      </trkpt>
      <trkpt lat="47.8981620" lon="12.9169250">
        <ele>442.8200000</ele>
        <time>2010-04-06T11:48:31Z</time>
      </trkpt>
      <trkpt lat="47.8982650" lon="12.9171870">
        <ele>443.3100000</ele>
        <time>2010-04-06T11:48:36Z</time>
      </trkpt>
      <trkpt lat="47.8983800" lon="12.9172980">
        <ele>445.2300000</ele>
        <time>2010-04-06T11:48:41Z</time>
      </trkpt>
      <trkpt lat="47.8985210" lon="12.9171360">
        <ele>444.2700000</ele>
        <time>2010-04-06T11:48:46Z</time>
      </trkpt>
      <trkpt lat="47.8986850" lon="12.9169700">
        <ele>443.7900000</ele>
        <time>2010-04-06T11:48:51Z</time>
      </trkpt>
      <trkpt lat="47.8988440" lon="12.9167180">
        <ele>443.7900000</ele>
        <time>2010-04-06T11:48:56Z</time>
      </trkpt>
      <trkpt lat="47.8990120" lon="12.9164550">
        <ele>443.7900000</ele>
        <time>2010-04-06T11:49:01Z</time>
      </trkpt>
      <trkpt lat="47.8991940" lon="12.9161800">
        <ele>443.3100000</ele>
        <time>2010-04-06T11:49:06Z</time>
      </trkpt>
      <trkpt lat="47.8993900" lon="12.9158900">
        <ele>442.8200000</ele>
        <time>2010-04-06T11:49:11Z</time>
      </trkpt>
      <trkpt lat="47.8995970" lon="12.9155840">
        <ele>441.3800000</ele>
        <time>2010-04-06T11:49:16Z</time>
      </trkpt>
      <trkpt lat="47.8998540" lon="12.9152220">
        <ele>438.9800000</ele>
        <time>2010-04-06T11:49:21Z</time>
      </trkpt>
      <trkpt lat="47.9001570" lon="12.9148490">
        <ele>437.5400000</ele>
        <time>2010-04-06T11:49:26Z</time>
      </trkpt>
      <trkpt lat="47.9004800" lon="12.9145210">
        <ele>436.1000000</ele>
        <time>2010-04-06T11:49:31Z</time>
      </trkpt>
      <trkpt lat="47.9007950" lon="12.9141800">
        <ele>434.1700000</ele>
        <time>2010-04-06T11:49:36Z</time>
      </trkpt>
      <trkpt lat="47.9011700" lon="12.9138440">
        <ele>432.2500000</ele>
        <time>2010-04-06T11:49:41Z</time>
      </trkpt>
      <trkpt lat="47.9015540" lon="12.9135550">
        <ele>431.2900000</ele>
        <time>2010-04-06T11:49:46Z</time>
      </trkpt>
      <trkpt lat="47.9019130" lon="12.9133490">
        <ele>432.7300000</ele>
        <time>2010-04-06T11:49:51Z</time>
      </trkpt>
      <trkpt lat="47.9022420" lon="12.9131660">
        <ele>433.6900000</ele>
        <time>2010-04-06T11:49:56Z</time>
      </trkpt>
      <trkpt lat="47.9025610" lon="12.9130040">
        <ele>433.2100000</ele>
        <time>2010-04-06T11:50:01Z</time>
      </trkpt>
      <trkpt lat="47.9028730" lon="12.9128710">
        <ele>432.2500000</ele>
        <time>2010-04-06T11:50:06Z</time>
      </trkpt>
      <trkpt lat="47.9031760" lon="12.9127680">
        <ele>432.2500000</ele>
        <time>2010-04-06T11:50:11Z</time>
      </trkpt>
      <trkpt lat="47.9034770" lon="12.9126880">
        <ele>432.7300000</ele>
        <time>2010-04-06T11:50:16Z</time>
      </trkpt>
      <trkpt lat="47.9037710" lon="12.9126250">
        <ele>432.2500000</ele>
        <time>2010-04-06T11:50:21Z</time>
      </trkpt>
      <trkpt lat="47.9040790" lon="12.9125900">
        <ele>431.7700000</ele>
        <time>2010-04-06T11:50:26Z</time>
      </trkpt>
      <trkpt lat="47.9043940" lon="12.9125550">
        <ele>430.8100000</ele>
        <time>2010-04-06T11:50:31Z</time>
      </trkpt>
      <trkpt lat="47.9047280" lon="12.9125680">
        <ele>430.3300000</ele>
        <time>2010-04-06T11:50:36Z</time>
      </trkpt>
      <trkpt lat="47.9050900" lon="12.9125900">
        <ele>428.4000000</ele>
        <time>2010-04-06T11:50:41Z</time>
      </trkpt>
      <trkpt lat="47.9054620" lon="12.9126600">
        <ele>427.9200000</ele>
        <time>2010-04-06T11:50:46Z</time>
      </trkpt>
      <trkpt lat="47.9058350" lon="12.9127110">
        <ele>426.0000000</ele>
        <time>2010-04-06T11:50:51Z</time>
      </trkpt>
      <trkpt lat="47.9062580" lon="12.9128400">
        <ele>424.0800000</ele>
        <time>2010-04-06T11:50:56Z</time>
      </trkpt>
      <trkpt lat="47.9065500" lon="12.9130090">
        <ele>425.0400000</ele>
        <time>2010-04-06T11:51:01Z</time>
      </trkpt>
      <trkpt lat="47.9068550" lon="12.9131780">
        <ele>426.0000000</ele>
        <time>2010-04-06T11:51:07Z</time>
      </trkpt>
      <trkpt lat="47.9070940" lon="12.9133420">
        <ele>425.5200000</ele>
        <time>2010-04-06T11:51:12Z</time>
      </trkpt>
      <trkpt lat="47.9073500" lon="12.9134980">
        <ele>425.5200000</ele>
        <time>2010-04-06T11:51:17Z</time>
      </trkpt>
      <trkpt lat="47.9076350" lon="12.9136250">
        <ele>425.0400000</ele>
        <time>2010-04-06T11:51:22Z</time>
      </trkpt>
      <trkpt lat="47.9079800" lon="12.9137910">
        <ele>425.0400000</ele>
        <time>2010-04-06T11:51:27Z</time>
      </trkpt>
      <trkpt lat="47.9083120" lon="12.9139600">
        <ele>424.5600000</ele>
        <time>2010-04-06T11:51:32Z</time>
      </trkpt>
      <trkpt lat="47.9086190" lon="12.9141300">
        <ele>424.5600000</ele>
        <time>2010-04-06T11:51:37Z</time>
      </trkpt>
      <trkpt lat="47.9089030" lon="12.9143020">
        <ele>424.0800000</ele>
        <time>2010-04-06T11:51:42Z</time>
      </trkpt>
      <trkpt lat="47.9091930" lon="12.9144450">
        <ele>424.0800000</ele>
        <time>2010-04-06T11:51:47Z</time>
      </trkpt>
      <trkpt lat="47.9094940" lon="12.9145790">
        <ele>424.5600000</ele>
        <time>2010-04-06T11:51:52Z</time>
      </trkpt>
      <trkpt lat="47.9097640" lon="12.9146880">
        <ele>423.6000000</ele>
        <time>2010-04-06T11:51:57Z</time>
      </trkpt>
      <trkpt lat="47.9100510" lon="12.9147570">
        <ele>424.0800000</ele>
        <time>2010-04-06T11:52:02Z</time>
      </trkpt>
      <trkpt lat="47.9103360" lon="12.9147980">
        <ele>425.5200000</ele>
        <time>2010-04-06T11:52:07Z</time>
      </trkpt>
      <trkpt lat="47.9105870" lon="12.9148270">
        <ele>425.5200000</ele>
        <time>2010-04-06T11:52:12Z</time>
      </trkpt>
      <trkpt lat="47.9108260" lon="12.9147980">
        <ele>427.4400000</ele>
        <time>2010-04-06T11:52:17Z</time>
      </trkpt>
      <trkpt lat="47.9109950" lon="12.9147670">
        <ele>428.4000000</ele>
        <time>2010-04-06T11:52:22Z</time>
      </trkpt>
      <trkpt lat="47.9111740" lon="12.9146980">
        <ele>429.8500000</ele>
        <time>2010-04-06T11:52:27Z</time>
      </trkpt>
      <trkpt lat="47.9113600" lon="12.9146390">
        <ele>430.8100000</ele>
        <time>2010-04-06T11:52:32Z</time>
      </trkpt>
      <trkpt lat="47.9115410" lon="12.9145930">
        <ele>431.2900000</ele>
        <time>2010-04-06T11:52:37Z</time>
      </trkpt>
      <trkpt lat="47.9117520" lon="12.9145690">
        <ele>431.2900000</ele>
        <time>2010-04-06T11:52:42Z</time>
      </trkpt>
      <trkpt lat="47.9119610" lon="12.9145760">
        <ele>431.7700000</ele>
        <time>2010-04-06T11:52:47Z</time>
      </trkpt>
      <trkpt lat="47.9121730" lon="12.9145940">
        <ele>433.2100000</ele>
        <time>2010-04-06T11:52:52Z</time>
      </trkpt>
      <trkpt lat="47.9124180" lon="12.9146220">
        <ele>433.2100000</ele>
        <time>2010-04-06T11:52:57Z</time>
      </trkpt>
      <trkpt lat="47.9126320" lon="12.9147030">
        <ele>434.6500000</ele>
        <time>2010-04-06T11:53:02Z</time>
      </trkpt>
      <trkpt lat="47.9129210" lon="12.9147760">
        <ele>432.7300000</ele>
        <time>2010-04-06T11:53:07Z</time>
      </trkpt>
      <trkpt lat="47.9132770" lon="12.9148260">
        <ele>433.2100000</ele>
        <time>2010-04-06T11:53:13Z</time>
      </trkpt>
      <trkpt lat="47.9135660" lon="12.9149310">
        <ele>433.2100000</ele>
        <time>2010-04-06T11:53:18Z</time>
      </trkpt>
      <trkpt lat="47.9137980" lon="12.9150840">
        <ele>434.1700000</ele>
        <time>2010-04-06T11:53:23Z</time>
      </trkpt>
      <trkpt lat="47.9140160" lon="12.9152380">
        <ele>434.6500000</ele>
        <time>2010-04-06T11:53:28Z</time>
      </trkpt>
      <trkpt lat="47.9142100" lon="12.9154290">
        <ele>435.6100000</ele>
        <time>2010-04-06T11:53:33Z</time>
      </trkpt>
      <trkpt lat="47.9144010" lon="12.9156230">
        <ele>436.1000000</ele>
        <time>2010-04-06T11:53:38Z</time>
      </trkpt>
      <trkpt lat="47.9145950" lon="12.9158170">
        <ele>437.0600000</ele>
        <time>2010-04-06T11:53:43Z</time>
      </trkpt>
      <trkpt lat="47.9147660" lon="12.9160320">
        <ele>438.5000000</ele>
        <time>2010-04-06T11:53:48Z</time>
      </trkpt>
      <trkpt lat="47.9149380" lon="12.9162320">
        <ele>438.9800000</ele>
        <time>2010-04-06T11:53:53Z</time>
      </trkpt>
      <trkpt lat="47.9151100" lon="12.9164340">
        <ele>439.9400000</ele>
        <time>2010-04-06T11:53:58Z</time>
      </trkpt>
      <trkpt lat="47.9152850" lon="12.9166300">
        <ele>440.4200000</ele>
        <time>2010-04-06T11:54:03Z</time>
      </trkpt>
      <trkpt lat="47.9154530" lon="12.9168340">
        <ele>441.8600000</ele>
        <time>2010-04-06T11:54:08Z</time>
      </trkpt>
      <trkpt lat="47.9156290" lon="12.9170260">
        <ele>442.3400000</ele>
        <time>2010-04-06T11:54:13Z</time>
      </trkpt>
      <trkpt lat="47.9158080" lon="12.9172200">
        <ele>442.8200000</ele>
        <time>2010-04-06T11:54:18Z</time>
      </trkpt>
      <trkpt lat="47.9159900" lon="12.9173970">
        <ele>443.7900000</ele>
        <time>2010-04-06T11:54:23Z</time>
      </trkpt>
      <trkpt lat="47.9161610" lon="12.9175730">
        <ele>444.7500000</ele>
        <time>2010-04-06T11:54:28Z</time>
      </trkpt>
      <trkpt lat="47.9163380" lon="12.9177430">
        <ele>445.2300000</ele>
        <time>2010-04-06T11:54:33Z</time>
      </trkpt>
      <trkpt lat="47.9165250" lon="12.9179040">
        <ele>445.7100000</ele>
        <time>2010-04-06T11:54:38Z</time>
      </trkpt>
      <trkpt lat="47.9167070" lon="12.9180650">
        <ele>447.1500000</ele>
        <time>2010-04-06T11:54:43Z</time>
      </trkpt>
      <trkpt lat="47.9168940" lon="12.9182090">
        <ele>448.1100000</ele>
        <time>2010-04-06T11:54:48Z</time>
      </trkpt>
      <trkpt lat="47.9170900" lon="12.9183300">
        <ele>448.5900000</ele>
        <time>2010-04-06T11:54:53Z</time>
      </trkpt>
      <trkpt lat="47.9172820" lon="12.9184490">
        <ele>449.5500000</ele>
        <time>2010-04-06T11:54:58Z</time>
      </trkpt>
      <trkpt lat="47.9174510" lon="12.9186140">
        <ele>451.0000000</ele>
        <time>2010-04-06T11:55:03Z</time>
      </trkpt>
      <trkpt lat="47.9176450" lon="12.9186880">
        <ele>450.5200000</ele>
        <time>2010-04-06T11:55:08Z</time>
      </trkpt>
      <trkpt lat="47.9178460" lon="12.9187430">
        <ele>451.9600000</ele>
        <time>2010-04-06T11:55:13Z</time>
      </trkpt>
      <trkpt lat="47.9180470" lon="12.9187970">
        <ele>451.9600000</ele>
        <time>2010-04-06T11:55:18Z</time>
      </trkpt>
      <trkpt lat="47.9182700" lon="12.9188510">
        <ele>452.4400000</ele>
        <time>2010-04-06T11:55:23Z</time>
      </trkpt>
      <trkpt lat="47.9184880" lon="12.9189150">
        <ele>452.4400000</ele>
        <time>2010-04-06T11:55:28Z</time>
      </trkpt>
      <trkpt lat="47.9187130" lon="12.9189850">
        <ele>452.4400000</ele>
        <time>2010-04-06T11:55:33Z</time>
      </trkpt>
      <trkpt lat="47.9189260" lon="12.9190870">
        <ele>452.4400000</ele>
        <time>2010-04-06T11:55:38Z</time>
      </trkpt>
      <trkpt lat="47.9191480" lon="12.9192220">
        <ele>452.9200000</ele>
        <time>2010-04-06T11:55:43Z</time>
      </trkpt>
      <trkpt lat="47.9193900" lon="12.9193720">
        <ele>451.9600000</ele>
        <time>2010-04-06T11:55:48Z</time>
      </trkpt>
      <trkpt lat="47.9196530" lon="12.9195490">
        <ele>451.0000000</ele>
        <time>2010-04-06T11:55:53Z</time>
      </trkpt>
      <trkpt lat="47.9198240" lon="12.9194670">
        <ele>451.0000000</ele>
        <time>2010-04-06T11:55:58Z</time>
      </trkpt>
      <trkpt lat="47.9198710" lon="12.9190310">
        <ele>448.5900000</ele>
        <time>2010-04-06T11:56:03Z</time>
      </trkpt>
      <trkpt lat="47.9198750" lon="12.9184820">
        <ele>446.6700000</ele>
        <time>2010-04-06T11:56:08Z</time>
      </trkpt>
      <trkpt lat="47.9200670" lon="12.9178390">
        <ele>442.3400000</ele>
        <time>2010-04-06T11:56:13Z</time>
      </trkpt>
      <trkpt lat="47.9205490" lon="12.9173790">
        <ele>436.1000000</ele>
        <time>2010-04-06T11:56:18Z</time>
      </trkpt>
      <trkpt lat="47.9209820" lon="12.9168020">
        <ele>432.2500000</ele>
        <time>2010-04-06T11:56:23Z</time>
      </trkpt>
      <trkpt lat="47.9211300" lon="12.9159910">
        <ele>429.3700000</ele>
        <time>2010-04-06T11:56:28Z</time>
      </trkpt>
      <trkpt lat="47.9210890" lon="12.9152210">
        <ele>431.2900000</ele>
        <time>2010-04-06T11:56:33Z</time>
      </trkpt>
      <trkpt lat="47.9210540" lon="12.9146490">
        <ele>435.6100000</ele>
        <time>2010-04-06T11:56:38Z</time>
      </trkpt>
      <trkpt lat="47.9211160" lon="12.9142180">
        <ele>438.9800000</ele>
        <time>2010-04-06T11:56:43Z</time>
      </trkpt>
      <trkpt lat="47.9212150" lon="12.9138980">
        <ele>441.8600000</ele>
        <time>2010-04-06T11:56:48Z</time>
      </trkpt>
      <trkpt lat="47.9213010" lon="12.9136050">
        <ele>444.2700000</ele>
        <time>2010-04-06T11:56:53Z</time>
      </trkpt>
      <trkpt lat="47.9213780" lon="12.9133100">
        <ele>445.2300000</ele>
        <time>2010-04-06T11:56:58Z</time>
      </trkpt>
      <trkpt lat="47.9214940" lon="12.9130260">
        <ele>446.6700000</ele>
        <time>2010-04-06T11:57:03Z</time>
      </trkpt>
      <trkpt lat="47.9215990" lon="12.9127610">
        <ele>448.1100000</ele>
        <time>2010-04-06T11:57:08Z</time>
      </trkpt>
      <trkpt lat="47.9217470" lon="12.9125570">
        <ele>448.5900000</ele>
        <time>2010-04-06T11:57:13Z</time>
      </trkpt>
      <trkpt lat="47.9219200" lon="12.9124580">
        <ele>449.5500000</ele>
        <time>2010-04-06T11:57:18Z</time>
      </trkpt>
      <trkpt lat="47.9220880" lon="12.9124580">
        <ele>451.4800000</ele>
        <time>2010-04-06T11:57:23Z</time>
      </trkpt>
      <trkpt lat="47.9222370" lon="12.9124940">
        <ele>451.4800000</ele>
        <time>2010-04-06T11:57:28Z</time>
      </trkpt>
      <trkpt lat="47.9223800" lon="12.9125290">
        <ele>452.4400000</ele>
        <time>2010-04-06T11:57:33Z</time>
      </trkpt>
      <trkpt lat="47.9224890" lon="12.9125770">
        <ele>452.4400000</ele>
        <time>2010-04-06T11:57:38Z</time>
      </trkpt>
      <trkpt lat="47.9226060" lon="12.9126220">
        <ele>452.4400000</ele>
        <time>2010-04-06T11:57:43Z</time>
      </trkpt>
      <trkpt lat="47.9227100" lon="12.9126650">
        <ele>452.9200000</ele>
        <time>2010-04-06T11:57:48Z</time>
      </trkpt>
      <trkpt lat="47.9228140" lon="12.9127030">
        <ele>452.9200000</ele>
        <time>2010-04-06T11:57:53Z</time>
      </trkpt>
      <trkpt lat="47.9229250" lon="12.9127540">
        <ele>451.9600000</ele>
        <time>2010-04-06T11:57:58Z</time>
      </trkpt>
      <trkpt lat="47.9230430" lon="12.9128050">
        <ele>451.9600000</ele>
        <time>2010-04-06T11:58:03Z</time>
      </trkpt>
      <trkpt lat="47.9231710" lon="12.9128450">
        <ele>451.4800000</ele>
        <time>2010-04-06T11:58:08Z</time>
      </trkpt>
      <trkpt lat="47.9233200" lon="12.9128880">
        <ele>451.0000000</ele>
        <time>2010-04-06T11:58:13Z</time>
      </trkpt>
      <trkpt lat="47.9235160" lon="12.9129130">
        <ele>449.5500000</ele>
        <time>2010-04-06T11:58:18Z</time>
      </trkpt>
      <trkpt lat="47.9237600" lon="12.9129200">
        <ele>448.1100000</ele>
        <time>2010-04-06T11:58:23Z</time>
      </trkpt>
      <trkpt lat="47.9240460" lon="12.9129050">
        <ele>446.1900000</ele>
        <time>2010-04-06T11:58:28Z</time>
      </trkpt>
      <trkpt lat="47.9243690" lon="12.9128440">
        <ele>443.7900000</ele>
        <time>2010-04-06T11:58:33Z</time>
      </trkpt>
      <trkpt lat="47.9247450" lon="12.9127660">
        <ele>440.4200000</ele>
        <time>2010-04-06T11:58:38Z</time>
      </trkpt>
      <trkpt lat="47.9251700" lon="12.9126810">
        <ele>437.0600000</ele>
        <time>2010-04-06T11:58:43Z</time>
      </trkpt>
      <trkpt lat="47.9256280" lon="12.9125950">
        <ele>434.1700000</ele>
        <time>2010-04-06T11:58:48Z</time>
      </trkpt>
      <trkpt lat="47.9260690" lon="12.9125160">
        <ele>432.7300000</ele>
        <time>2010-04-06T11:58:53Z</time>
      </trkpt>
      <trkpt lat="47.9264750" lon="12.9124500">
        <ele>431.2900000</ele>
        <time>2010-04-06T11:58:58Z</time>
      </trkpt>
      <trkpt lat="47.9268060" lon="12.9124060">
        <ele>432.2500000</ele>
        <time>2010-04-06T11:59:03Z</time>
      </trkpt>
      <trkpt lat="47.9269570" lon="12.9124020">
        <ele>432.7300000</ele>
        <time>2010-04-06T11:59:08Z</time>
      </trkpt>
      <trkpt lat="47.9269470" lon="12.9122240">
        <ele>432.7300000</ele>
        <time>2010-04-06T11:59:13Z</time>
      </trkpt>
      <trkpt lat="47.9268720" lon="12.9118970">
        <ele>432.2500000</ele>
        <time>2010-04-06T11:59:18Z</time>
      </trkpt>
      <trkpt lat="47.9268030" lon="12.9116020">
        <ele>432.2500000</ele>
        <time>2010-04-06T11:59:23Z</time>
      </trkpt>
      <trkpt lat="47.9268050" lon="12.9114370">
        <ele>433.6900000</ele>
        <time>2010-04-06T11:59:28Z</time>
      </trkpt>
      <trkpt lat="47.9269150" lon="12.9116220">
        <ele>433.2100000</ele>
        <time>2010-04-06T11:59:33Z</time>
      </trkpt>
      <trkpt lat="47.9271190" lon="12.9115830">
        <ele>432.7300000</ele>
        <time>2010-04-06T11:59:38Z</time>
      </trkpt>
      <trkpt lat="47.9273080" lon="12.9114140">
        <ele>433.2100000</ele>
        <time>2010-04-06T11:59:43Z</time>
      </trkpt>
      <trkpt lat="47.9274940" lon="12.9112150">
        <ele>432.7300000</ele>
        <time>2010-04-06T11:59:48Z</time>
      </trkpt>
      <trkpt lat="47.9277040" lon="12.9109840">
        <ele>432.2500000</ele>
        <time>2010-04-06T11:59:53Z</time>
      </trkpt>
      <trkpt lat="47.9279360" lon="12.9107670">
        <ele>431.7700000</ele>
        <time>2010-04-06T11:59:58Z</time>
      </trkpt>
      <trkpt lat="47.9281970" lon="12.9106400">
        <ele>431.7700000</ele>
        <time>2010-04-06T12:00:03Z</time>
      </trkpt>
      <trkpt lat="47.9284800" lon="12.9105280">
        <ele>431.7700000</ele>
        <time>2010-04-06T12:00:08Z</time>
      </trkpt>
      <trkpt lat="47.9287590" lon="12.9104180">
        <ele>430.8100000</ele>
        <time>2010-04-06T12:00:13Z</time>
      </trkpt>
      <trkpt lat="47.9290480" lon="12.9103110">
        <ele>430.8100000</ele>
        <time>2010-04-06T12:00:18Z</time>
      </trkpt>
      <trkpt lat="47.9293220" lon="12.9102010">
        <ele>430.8100000</ele>
        <time>2010-04-06T12:00:23Z</time>
      </trkpt>
      <trkpt lat="47.9296050" lon="12.9100940">
        <ele>431.2900000</ele>
        <time>2010-04-06T12:00:28Z</time>
      </trkpt>
      <trkpt lat="47.9298950" lon="12.9099880">
        <ele>430.8100000</ele>
        <time>2010-04-06T12:00:33Z</time>
      </trkpt>
      <trkpt lat="47.9301760" lon="12.9098820">
        <ele>430.8100000</ele>
        <time>2010-04-06T12:00:38Z</time>
      </trkpt>
      <trkpt lat="47.9304440" lon="12.9097740">
        <ele>430.8100000</ele>
        <time>2010-04-06T12:00:43Z</time>
      </trkpt>
      <trkpt lat="47.9307080" lon="12.9096730">
        <ele>431.7700000</ele>
        <time>2010-04-06T12:00:48Z</time>
      </trkpt>
      <trkpt lat="47.9309670" lon="12.9095750">
        <ele>431.7700000</ele>
        <time>2010-04-06T12:00:53Z</time>
      </trkpt>
      <trkpt lat="47.9312200" lon="12.9094660">
        <ele>432.2500000</ele>
        <time>2010-04-06T12:00:58Z</time>
      </trkpt>
      <trkpt lat="47.9314560" lon="12.9092220">
        <ele>431.7700000</ele>
        <time>2010-04-06T12:01:03Z</time>
      </trkpt>
      <trkpt lat="47.9316200" lon="12.9089010">
        <ele>432.7300000</ele>
        <time>2010-04-06T12:01:08Z</time>
      </trkpt>
      <trkpt lat="47.9317410" lon="12.9085850">
        <ele>434.1700000</ele>
        <time>2010-04-06T12:01:13Z</time>
      </trkpt>
      <trkpt lat="47.9318500" lon="12.9082820">
        <ele>436.1000000</ele>
        <time>2010-04-06T12:01:18Z</time>
      </trkpt>
      <trkpt lat="47.9319840" lon="12.9080530">
        <ele>438.5000000</ele>
        <time>2010-04-06T12:01:23Z</time>
      </trkpt>
      <trkpt lat="47.9321450" lon="12.9078790">
        <ele>440.4200000</ele>
        <time>2010-04-06T12:01:28Z</time>
      </trkpt>
      <trkpt lat="47.9322710" lon="12.9077220">
        <ele>441.8600000</ele>
        <time>2010-04-06T12:01:33Z</time>
      </trkpt>
      <trkpt lat="47.9323880" lon="12.9075310">
        <ele>443.3100000</ele>
        <time>2010-04-06T12:01:38Z</time>
      </trkpt>
      <trkpt lat="47.9325000" lon="12.9073510">
        <ele>443.7900000</ele>
        <time>2010-04-06T12:01:43Z</time>
      </trkpt>
      <trkpt lat="47.9326280" lon="12.9072070">
        <ele>444.7500000</ele>
        <time>2010-04-06T12:01:48Z</time>
      </trkpt>
      <trkpt lat="47.9327840" lon="12.9071100">
        <ele>444.7500000</ele>
        <time>2010-04-06T12:01:53Z</time>
      </trkpt>
      <trkpt lat="47.9329380" lon="12.9070210">
        <ele>444.7500000</ele>
        <time>2010-04-06T12:01:58Z</time>
      </trkpt>
      <trkpt lat="47.9331080" lon="12.9069030">
        <ele>444.7500000</ele>
        <time>2010-04-06T12:02:03Z</time>
      </trkpt>
      <trkpt lat="47.9333000" lon="12.9067940">
        <ele>444.2700000</ele>
        <time>2010-04-06T12:02:08Z</time>
      </trkpt>
      <trkpt lat="47.9335190" lon="12.9066640">
        <ele>443.7900000</ele>
        <time>2010-04-06T12:02:13Z</time>
      </trkpt>
      <trkpt lat="47.9337540" lon="12.9065250">
        <ele>442.8200000</ele>
        <time>2010-04-06T12:02:18Z</time>
      </trkpt>
      <trkpt lat="47.9339980" lon="12.9064360">
        <ele>443.7900000</ele>
        <time>2010-04-06T12:02:23Z</time>
      </trkpt>
      <trkpt lat="47.9342340" lon="12.9064100">
        <ele>443.7900000</ele>
        <time>2010-04-06T12:02:28Z</time>
      </trkpt>
      <trkpt lat="47.9344700" lon="12.9064140">
        <ele>443.7900000</ele>
        <time>2010-04-06T12:02:33Z</time>
      </trkpt>
      <trkpt lat="47.9347080" lon="12.9063990">
        <ele>443.7900000</ele>
        <time>2010-04-06T12:02:38Z</time>
      </trkpt>
      <trkpt lat="47.9349410" lon="12.9063460">
        <ele>444.2700000</ele>
        <time>2010-04-06T12:02:43Z</time>
      </trkpt>
      <trkpt lat="47.9351790" lon="12.9062510">
        <ele>445.2300000</ele>
        <time>2010-04-06T12:02:48Z</time>
      </trkpt>
      <trkpt lat="47.9354260" lon="12.9061530">
        <ele>444.7500000</ele>
        <time>2010-04-06T12:02:53Z</time>
      </trkpt>
      <trkpt lat="47.9356760" lon="12.9060480">
        <ele>444.7500000</ele>
        <time>2010-04-06T12:02:58Z</time>
      </trkpt>
      <trkpt lat="47.9359360" lon="12.9059460">
        <ele>443.7900000</ele>
        <time>2010-04-06T12:03:03Z</time>
      </trkpt>
      <trkpt lat="47.9361870" lon="12.9058440">
        <ele>444.2700000</ele>
        <time>2010-04-06T12:03:08Z</time>
      </trkpt>
      <trkpt lat="47.9364520" lon="12.9057330">
        <ele>444.2700000</ele>
        <time>2010-04-06T12:03:13Z</time>
      </trkpt>
      <trkpt lat="47.9367290" lon="12.9056180">
        <ele>443.3100000</ele>
        <time>2010-04-06T12:03:18Z</time>
      </trkpt>
      <trkpt lat="47.9370320" lon="12.9054920">
        <ele>442.8200000</ele>
        <time>2010-04-06T12:03:23Z</time>
      </trkpt>
      <trkpt lat="47.9373700" lon="12.9053550">
        <ele>441.3800000</ele>
        <time>2010-04-06T12:03:28Z</time>
      </trkpt>
      <trkpt lat="47.9376980" lon="12.9052020">
        <ele>441.8600000</ele>
        <time>2010-04-06T12:03:33Z</time>
      </trkpt>
      <trkpt lat="47.9380060" lon="12.9050320">
        <ele>441.8600000</ele>
        <time>2010-04-06T12:03:38Z</time>
      </trkpt>
      <trkpt lat="47.9382930" lon="12.9048420">
        <ele>441.8600000</ele>
        <time>2010-04-06T12:03:43Z</time>
      </trkpt>
      <trkpt lat="47.9386000" lon="12.9046550">
        <ele>441.3800000</ele>
        <time>2010-04-06T12:03:48Z</time>
      </trkpt>
      <trkpt lat="47.9389320" lon="12.9044560">
        <ele>440.4200000</ele>
        <time>2010-04-06T12:03:53Z</time>
      </trkpt>
      <trkpt lat="47.9392870" lon="12.9042330">
        <ele>439.9400000</ele>
        <time>2010-04-06T12:03:58Z</time>
      </trkpt>
      <trkpt lat="47.9396470" lon="12.9039480">
        <ele>437.5400000</ele>
        <time>2010-04-06T12:04:03Z</time>
      </trkpt>
      <trkpt lat="47.9399920" lon="12.9036130">
        <ele>436.1000000</ele>
        <time>2010-04-06T12:04:08Z</time>
      </trkpt>
      <trkpt lat="47.9403310" lon="12.9032550">
        <ele>435.1300000</ele>
        <time>2010-04-06T12:04:13Z</time>
      </trkpt>
      <trkpt lat="47.9406640" lon="12.9026800">
        <ele>432.7300000</ele>
        <time>2010-04-06T12:04:19Z</time>
      </trkpt>
      <trkpt lat="47.9408290" lon="12.9020410">
        <ele>430.8100000</ele>
        <time>2010-04-06T12:04:24Z</time>
      </trkpt>
      <trkpt lat="47.9409240" lon="12.9014100">
        <ele>430.8100000</ele>
        <time>2010-04-06T12:04:29Z</time>
      </trkpt>
      <trkpt lat="47.9410270" lon="12.9007170">
        <ele>430.8100000</ele>
        <time>2010-04-06T12:04:35Z</time>
      </trkpt>
      <trkpt lat="47.9411100" lon="12.9001830">
        <ele>431.2900000</ele>
        <time>2010-04-06T12:04:40Z</time>
      </trkpt>
      <trkpt lat="47.9411860" lon="12.8996450">
        <ele>431.2900000</ele>
        <time>2010-04-06T12:04:45Z</time>
      </trkpt>
      <trkpt lat="47.9412810" lon="12.8991180">
        <ele>429.3700000</ele>
        <time>2010-04-06T12:04:50Z</time>
      </trkpt>
      <trkpt lat="47.9414480" lon="12.8985750">
        <ele>428.8900000</ele>
        <time>2010-04-06T12:04:55Z</time>
      </trkpt>
      <trkpt lat="47.9417260" lon="12.8981360">
        <ele>427.9200000</ele>
        <time>2010-04-06T12:05:00Z</time>
      </trkpt>
      <trkpt lat="47.9420480" lon="12.8978490">
        <ele>427.9200000</ele>
        <time>2010-04-06T12:05:05Z</time>
      </trkpt>
      <trkpt lat="47.9423490" lon="12.8976070">
        <ele>428.4000000</ele>
        <time>2010-04-06T12:05:10Z</time>
      </trkpt>
      <trkpt lat="47.9426160" lon="12.8973960">
        <ele>429.3700000</ele>
        <time>2010-04-06T12:05:15Z</time>
      </trkpt>
      <trkpt lat="47.9428630" lon="12.8971600">
        <ele>429.8500000</ele>
        <time>2010-04-06T12:05:20Z</time>
      </trkpt>
      <trkpt lat="47.9431250" lon="12.8969060">
        <ele>429.3700000</ele>
        <time>2010-04-06T12:05:25Z</time>
      </trkpt>
      <trkpt lat="47.9433680" lon="12.8966490">
        <ele>429.3700000</ele>
        <time>2010-04-06T12:05:30Z</time>
      </trkpt>
      <trkpt lat="47.9434630" lon="12.8962300">
        <ele>430.3300000</ele>
        <time>2010-04-06T12:05:35Z</time>
      </trkpt>
      <trkpt lat="47.9435040" lon="12.8957700">
        <ele>429.8500000</ele>
        <time>2010-04-06T12:05:40Z</time>
      </trkpt>
      <trkpt lat="47.9436620" lon="12.8953820">
        <ele>429.3700000</ele>
        <time>2010-04-06T12:05:45Z</time>
      </trkpt>
      <trkpt lat="47.9439330" lon="12.8950670">
        <ele>426.9600000</ele>
        <time>2010-04-06T12:05:50Z</time>
      </trkpt>
      <trkpt lat="47.9442810" lon="12.8946880">
        <ele>422.6400000</ele>
        <time>2010-04-06T12:05:55Z</time>
      </trkpt>
      <trkpt lat="47.9446390" lon="12.8943570">
        <ele>420.7100000</ele>
        <time>2010-04-06T12:06:00Z</time>
      </trkpt>
      <trkpt lat="47.9447510" lon="12.8937610">
        <ele>417.3500000</ele>
        <time>2010-04-06T12:06:05Z</time>
      </trkpt>
      <trkpt lat="47.9447160" lon="12.8931210">
        <ele>417.8300000</ele>
        <time>2010-04-06T12:06:10Z</time>
      </trkpt>
      <trkpt lat="47.9445970" lon="12.8925250">
        <ele>416.8700000</ele>
        <time>2010-04-06T12:06:15Z</time>
      </trkpt>
      <trkpt lat="47.9444430" lon="12.8922000">
        <ele>417.3500000</ele>
        <time>2010-04-06T12:06:19Z</time>
      </trkpt>
      <trkpt lat="47.9441890" lon="12.8918400">
        <ele>418.3100000</ele>
        <time>2010-04-06T12:06:25Z</time>
      </trkpt>
      <trkpt lat="47.9440980" lon="12.8914980">
        <ele>420.7100000</ele>
        <time>2010-04-06T12:06:30Z</time>
      </trkpt>
      <trkpt lat="47.9440350" lon="12.8912070">
        <ele>422.6400000</ele>
        <time>2010-04-06T12:06:35Z</time>
      </trkpt>
      <trkpt lat="47.9439670" lon="12.8909570">
        <ele>424.5600000</ele>
        <time>2010-04-06T12:06:40Z</time>
      </trkpt>
      <trkpt lat="47.9439170" lon="12.8907770">
        <ele>425.5200000</ele>
        <time>2010-04-06T12:06:45Z</time>
      </trkpt>
      <trkpt lat="47.9439870" lon="12.8906930">
        <ele>425.5200000</ele>
        <time>2010-04-06T12:06:50Z</time>
      </trkpt>
      <trkpt lat="47.9440520" lon="12.8905960">
        <ele>425.0400000</ele>
        <time>2010-04-06T12:06:55Z</time>
      </trkpt>
      <trkpt lat="47.9441170" lon="12.8904390">
        <ele>425.0400000</ele>
        <time>2010-04-06T12:07:00Z</time>
      </trkpt>
      <trkpt lat="47.9441970" lon="12.8902620">
        <ele>424.5600000</ele>
        <time>2010-04-06T12:07:05Z</time>
      </trkpt>
      <trkpt lat="47.9443300" lon="12.8902450">
        <ele>424.0800000</ele>
        <time>2010-04-06T12:07:10Z</time>
      </trkpt>
      <trkpt lat="47.9445010" lon="12.8901130">
        <ele>422.6400000</ele>
        <time>2010-04-06T12:07:15Z</time>
      </trkpt>
      <trkpt lat="47.9446560" lon="12.8899600">
        <ele>422.6400000</ele>
        <time>2010-04-06T12:07:20Z</time>
      </trkpt>
      <trkpt lat="47.9447820" lon="12.8897990">
        <ele>422.1600000</ele>
        <time>2010-04-06T12:07:25Z</time>
      </trkpt>
      <trkpt lat="47.9449180" lon="12.8896600">
        <ele>422.1600000</ele>
        <time>2010-04-06T12:07:30Z</time>
      </trkpt>
      <trkpt lat="47.9451010" lon="12.8895390">
        <ele>420.7100000</ele>
        <time>2010-04-06T12:07:35Z</time>
      </trkpt>
      <trkpt lat="47.9452940" lon="12.8894630">
        <ele>419.7500000</ele>
        <time>2010-04-06T12:07:40Z</time>
      </trkpt>
      <trkpt lat="47.9454950" lon="12.8894400">
        <ele>418.7900000</ele>
        <time>2010-04-06T12:07:45Z</time>
      </trkpt>
      <trkpt lat="47.9456490" lon="12.8894340">
        <ele>418.7900000</ele>
        <time>2010-04-06T12:07:50Z</time>
      </trkpt>
      <trkpt lat="47.9458790" lon="12.8894870">
        <ele>417.3500000</ele>
        <time>2010-04-06T12:07:55Z</time>
      </trkpt>
      <trkpt lat="47.9461210" lon="12.8895560">
        <ele>415.9100000</ele>
        <time>2010-04-06T12:08:00Z</time>
      </trkpt>
      <trkpt lat="47.9463240" lon="12.8896060">
        <ele>414.9500000</ele>
        <time>2010-04-06T12:08:05Z</time>
      </trkpt>
      <trkpt lat="47.9464830" lon="12.8896160">
        <ele>414.4700000</ele>
        <time>2010-04-06T12:08:10Z</time>
      </trkpt>
      <trkpt lat="47.9466040" lon="12.8895650">
        <ele>414.9500000</ele>
        <time>2010-04-06T12:08:15Z</time>
      </trkpt>
      <trkpt lat="47.9467200" lon="12.8894800">
        <ele>414.9500000</ele>
        <time>2010-04-06T12:08:20Z</time>
      </trkpt>
      <trkpt lat="47.9468480" lon="12.8894010">
        <ele>414.9500000</ele>
        <time>2010-04-06T12:08:25Z</time>
      </trkpt>
      <trkpt lat="47.9469550" lon="12.8892180">
        <ele>414.9500000</ele>
        <time>2010-04-06T12:08:30Z</time>
      </trkpt>
      <trkpt lat="47.9470200" lon="12.8890710">
        <ele>415.4300000</ele>
        <time>2010-04-06T12:08:35Z</time>
      </trkpt>
      <trkpt lat="47.9471290" lon="12.8890490">
        <ele>415.4300000</ele>
        <time>2010-04-06T12:08:40Z</time>
      </trkpt>
      <trkpt lat="47.9471620" lon="12.8890830">
        <ele>415.9100000</ele>
        <time>2010-04-06T12:08:45Z</time>
      </trkpt>
      <trkpt lat="47.9473560" lon="12.8889870">
        <ele>415.9100000</ele>
        <time>2010-04-06T12:08:50Z</time>
      </trkpt>
      <trkpt lat="47.9474640" lon="12.8888620">
        <ele>416.8700000</ele>
        <time>2010-04-06T12:08:55Z</time>
      </trkpt>
      <trkpt lat="47.9475920" lon="12.8887160">
        <ele>417.3500000</ele>
        <time>2010-04-06T12:09:00Z</time>
      </trkpt>
      <trkpt lat="47.9476880" lon="12.8885440">
        <ele>418.3100000</ele>
        <time>2010-04-06T12:09:05Z</time>
      </trkpt>
      <trkpt lat="47.9477800" lon="12.8884150">
        <ele>418.7900000</ele>
        <time>2010-04-06T12:09:10Z</time>
      </trkpt>
      <trkpt lat="47.9478840" lon="12.8882960">
        <ele>418.7900000</ele>
        <time>2010-04-06T12:09:15Z</time>
      </trkpt>
      <trkpt lat="47.9479870" lon="12.8881870">
        <ele>418.7900000</ele>
        <time>2010-04-06T12:09:20Z</time>
      </trkpt>
      <trkpt lat="47.9480990" lon="12.8880840">
        <ele>419.2700000</ele>
        <time>2010-04-06T12:09:25Z</time>
      </trkpt>
      <trkpt lat="47.9482160" lon="12.8879380">
        <ele>419.2700000</ele>
        <time>2010-04-06T12:09:31Z</time>
      </trkpt>
      <trkpt lat="47.9482750" lon="12.8877850">
        <ele>419.2700000</ele>
        <time>2010-04-06T12:09:36Z</time>
      </trkpt>
      <trkpt lat="47.9483300" lon="12.8876310">
        <ele>418.7900000</ele>
        <time>2010-04-06T12:09:41Z</time>
      </trkpt>
      <trkpt lat="47.9484300" lon="12.8874790">
        <ele>418.3100000</ele>
        <time>2010-04-06T12:09:46Z</time>
      </trkpt>
      <trkpt lat="47.9485660" lon="12.8873250">
        <ele>417.3500000</ele>
        <time>2010-04-06T12:09:51Z</time>
      </trkpt>
      <trkpt lat="47.9486830" lon="12.8871300">
        <ele>415.4300000</ele>
        <time>2010-04-06T12:09:56Z</time>
      </trkpt>
      <trkpt lat="47.9487810" lon="12.8869390">
        <ele>414.4700000</ele>
        <time>2010-04-06T12:10:00Z</time>
      </trkpt>
      <trkpt lat="47.9490960" lon="12.8866780">
        <ele>413.0200000</ele>
        <time>2010-04-06T12:10:06Z</time>
      </trkpt>
      <trkpt lat="47.9493760" lon="12.8863730">
        <ele>411.5800000</ele>
        <time>2010-04-06T12:10:11Z</time>
      </trkpt>
      <trkpt lat="47.9495460" lon="12.8860240">
        <ele>411.5800000</ele>
        <time>2010-04-06T12:10:16Z</time>
      </trkpt>
      <trkpt lat="47.9496810" lon="12.8856760">
        <ele>411.1000000</ele>
        <time>2010-04-06T12:10:21Z</time>
      </trkpt>
      <trkpt lat="47.9498660" lon="12.8854470">
        <ele>411.1000000</ele>
        <time>2010-04-06T12:10:26Z</time>
      </trkpt>
      <trkpt lat="47.9500200" lon="12.8852220">
        <ele>411.5800000</ele>
        <time>2010-04-06T12:10:31Z</time>
      </trkpt>
      <trkpt lat="47.9501320" lon="12.8850110">
        <ele>411.1000000</ele>
        <time>2010-04-06T12:10:36Z</time>
      </trkpt>
      <trkpt lat="47.9502680" lon="12.8847930">
        <ele>411.1000000</ele>
        <time>2010-04-06T12:10:41Z</time>
      </trkpt>
      <trkpt lat="47.9503820" lon="12.8846820">
        <ele>411.5800000</ele>
        <time>2010-04-06T12:10:46Z</time>
      </trkpt>
      <trkpt lat="47.9504700" lon="12.8846650">
        <ele>412.0600000</ele>
        <time>2010-04-06T12:10:51Z</time>
      </trkpt>
      <trkpt lat="47.9504860" lon="12.8846550">
        <ele>412.0600000</ele>
        <time>2010-04-06T12:10:56Z</time>
      </trkpt>
      <trkpt lat="47.9505170" lon="12.8846190">
        <ele>412.0600000</ele>
        <time>2010-04-06T12:11:01Z</time>
      </trkpt>
      <trkpt lat="47.9505170" lon="12.8846190">
        <ele>412.5400000</ele>
        <time>2010-04-06T12:11:06Z</time>
      </trkpt>
      <trkpt lat="47.9505170" lon="12.8846190">
        <ele>412.5400000</ele>
        <time>2010-04-06T12:11:11Z</time>
      </trkpt>
      <trkpt lat="47.9505170" lon="12.8846190">
        <ele>412.0600000</ele>
        <time>2010-04-06T12:11:16Z</time>
      </trkpt>
      <trkpt lat="47.9505170" lon="12.8846190">
        <ele>412.5400000</ele>
        <time>2010-04-06T12:11:21Z</time>
      </trkpt>
      <trkpt lat="47.9505170" lon="12.8846190">
        <ele>412.0600000</ele>
        <time>2010-04-06T12:11:26Z</time>
      </trkpt>
      <trkpt lat="47.9505170" lon="12.8846190">
        <ele>412.0600000</ele>
        <time>2010-04-06T12:11:31Z</time>
      </trkpt>
      <trkpt lat="47.9505170" lon="12.8846190">
        <ele>412.0600000</ele>
        <time>2010-04-06T12:11:36Z</time>
      </trkpt>
      <trkpt lat="47.9505180" lon="12.8846200">
        <ele>412.5400000</ele>
        <time>2010-04-06T12:11:41Z</time>
      </trkpt>
      <trkpt lat="47.9505180" lon="12.8846200">
        <ele>412.5400000</ele>
        <time>2010-04-06T12:11:46Z</time>
      </trkpt>
      <trkpt lat="47.9505180" lon="12.8846200">
        <ele>412.5400000</ele>
        <time>2010-04-06T12:11:51Z</time>
      </trkpt>
      <trkpt lat="47.9505180" lon="12.8846200">
        <ele>412.0600000</ele>
        <time>2010-04-06T12:11:56Z</time>
      </trkpt>
      <trkpt lat="47.9505180" lon="12.8846200">
        <ele>412.5400000</ele>
        <time>2010-04-06T12:12:01Z</time>
      </trkpt>
      <trkpt lat="47.9505180" lon="12.8846200">
        <ele>412.0600000</ele>
        <time>2010-04-06T12:12:06Z</time>
      </trkpt>
      <trkpt lat="47.9505180" lon="12.8846200">
        <ele>412.0600000</ele>
        <time>2010-04-06T12:12:11Z</time>
      </trkpt>
      <trkpt lat="47.9505180" lon="12.8846200">
        <ele>412.0600000</ele>
        <time>2010-04-06T12:12:16Z</time>
      </trkpt>
      <trkpt lat="47.9505190" lon="12.8846200">
        <ele>412.0600000</ele>
        <time>2010-04-06T12:12:22Z</time>
      </trkpt>
      <trkpt lat="47.9505190" lon="12.8846200">
        <ele>412.0600000</ele>
        <time>2010-04-06T12:12:27Z</time>
      </trkpt>
      <trkpt lat="47.9505190" lon="12.8846200">
        <ele>412.0600000</ele>
        <time>2010-04-06T12:12:32Z</time>
      </trkpt>
      <trkpt lat="47.9505190" lon="12.8846200">
        <ele>412.0600000</ele>
        <time>2010-04-06T12:12:37Z</time>
      </trkpt>
      <trkpt lat="47.9505190" lon="12.8846200">
        <ele>412.5400000</ele>
        <time>2010-04-06T12:12:42Z</time>
      </trkpt>
      <trkpt lat="47.9505190" lon="12.8846200">
        <ele>412.0600000</ele>
        <time>2010-04-06T12:12:47Z</time>
      </trkpt>
      <trkpt lat="47.9505190" lon="12.8846200">
        <ele>411.5800000</ele>
        <time>2010-04-06T12:12:52Z</time>
      </trkpt>
      <trkpt lat="47.9505190" lon="12.8846200">
        <ele>412.0600000</ele>
        <time>2010-04-06T12:12:57Z</time>
      </trkpt>
      <trkpt lat="47.9505220" lon="12.8846190">
        <ele>412.0600000</ele>
        <time>2010-04-06T12:13:02Z</time>
      </trkpt>
      <trkpt lat="47.9505220" lon="12.8846190">
        <ele>412.0600000</ele>
        <time>2010-04-06T12:13:07Z</time>
      </trkpt>
      <trkpt lat="47.9505220" lon="12.8846190">
        <ele>412.5400000</ele>
        <time>2010-04-06T12:13:12Z</time>
      </trkpt>
      <trkpt lat="47.9505220" lon="12.8846190">
        <ele>412.5400000</ele>
        <time>2010-04-06T12:13:17Z</time>
      </trkpt>
      <trkpt lat="47.9505220" lon="12.8846190">
        <ele>412.0600000</ele>
        <time>2010-04-06T12:13:22Z</time>
      </trkpt>
      <trkpt lat="47.9505220" lon="12.8846190">
        <ele>412.5400000</ele>
        <time>2010-04-06T12:13:27Z</time>
      </trkpt>
      <trkpt lat="47.9505220" lon="12.8846190">
        <ele>412.0600000</ele>
        <time>2010-04-06T12:13:32Z</time>
      </trkpt>
      <trkpt lat="47.9505220" lon="12.8846190">
        <ele>412.5400000</ele>
        <time>2010-04-06T12:13:37Z</time>
      </trkpt>
      <trkpt lat="47.9505230" lon="12.8846160">
        <ele>412.0600000</ele>
        <time>2010-04-06T12:13:42Z</time>
      </trkpt>
      <trkpt lat="47.9505230" lon="12.8846160">
        <ele>412.5400000</ele>
        <time>2010-04-06T12:13:47Z</time>
      </trkpt>
      <trkpt lat="47.9505230" lon="12.8846160">
        <ele>412.0600000</ele>
        <time>2010-04-06T12:13:52Z</time>
      </trkpt>
      <trkpt lat="47.9505230" lon="12.8846160">
        <ele>412.5400000</ele>
        <time>2010-04-06T12:13:57Z</time>
      </trkpt>
      <trkpt lat="47.9505230" lon="12.8846160">
        <ele>412.5400000</ele>
        <time>2010-04-06T12:14:02Z</time>
      </trkpt>
      <trkpt lat="47.9505230" lon="12.8846160">
        <ele>411.5800000</ele>
        <time>2010-04-06T12:14:07Z</time>
      </trkpt>
      <trkpt lat="47.9505230" lon="12.8846160">
        <ele>412.0600000</ele>
        <time>2010-04-06T12:14:12Z</time>
      </trkpt>
      <trkpt lat="47.9505230" lon="12.8846160">
        <ele>412.5400000</ele>
        <time>2010-04-06T12:14:17Z</time>
      </trkpt>
      <trkpt lat="47.9505200" lon="12.8846200">
        <ele>412.5400000</ele>
        <time>2010-04-06T12:14:22Z</time>
      </trkpt>
      <trkpt lat="47.9505200" lon="12.8846200">
        <ele>412.5400000</ele>
        <time>2010-04-06T12:14:27Z</time>
      </trkpt>
      <trkpt lat="47.9505200" lon="12.8846200">
        <ele>412.0600000</ele>
        <time>2010-04-06T12:14:32Z</time>
      </trkpt>
      <trkpt lat="47.9505200" lon="12.8846200">
        <ele>412.5400000</ele>
        <time>2010-04-06T12:14:37Z</time>
      </trkpt>
      <trkpt lat="47.9505200" lon="12.8846200">
        <ele>412.5400000</ele>
        <time>2010-04-06T12:14:42Z</time>
      </trkpt>
      <trkpt lat="47.9505200" lon="12.8846200">
        <ele>412.5400000</ele>
        <time>2010-04-06T12:14:47Z</time>
      </trkpt>
      <trkpt lat="47.9505460" lon="12.8846300">
        <ele>412.5400000</ele>
        <time>2010-04-06T12:14:52Z</time>
      </trkpt>
      <trkpt lat="47.9505940" lon="12.8846420">
        <ele>412.5400000</ele>
        <time>2010-04-06T12:14:57Z</time>
      </trkpt>
      <trkpt lat="47.9506060" lon="12.8846420">
        <ele>412.5400000</ele>
        <time>2010-04-06T12:15:02Z</time>
      </trkpt>
      <trkpt lat="47.9506060" lon="12.8846420">
        <ele>412.0600000</ele>
        <time>2010-04-06T12:15:07Z</time>
      </trkpt>
      <trkpt lat="47.9506060" lon="12.8846420">
        <ele>413.0200000</ele>
        <time>2010-04-06T12:15:12Z</time>
      </trkpt>
      <trkpt lat="47.9506060" lon="12.8846420">
        <ele>412.5400000</ele>
        <time>2010-04-06T12:15:17Z</time>
      </trkpt>
      <trkpt lat="47.9505900" lon="12.8846500">
        <ele>412.5400000</ele>
        <time>2010-04-06T12:15:22Z</time>
      </trkpt>
      <trkpt lat="47.9505440" lon="12.8846310">
        <ele>412.5400000</ele>
        <time>2010-04-06T12:15:27Z</time>
      </trkpt>
      <trkpt lat="47.9504500" lon="12.8846260">
        <ele>412.5400000</ele>
        <time>2010-04-06T12:15:32Z</time>
      </trkpt>
      <trkpt lat="47.9503300" lon="12.8845420">
        <ele>412.0600000</ele>
        <time>2010-04-06T12:15:37Z</time>
      </trkpt>
      <trkpt lat="47.9503130" lon="12.8843610">
        <ele>412.0600000</ele>
        <time>2010-04-06T12:15:42Z</time>
      </trkpt>
      <trkpt lat="47.9503090" lon="12.8842140">
        <ele>412.0600000</ele>
        <time>2010-04-06T12:15:46Z</time>
      </trkpt>
      <trkpt lat="47.9503210" lon="12.8839110">
        <ele>411.5800000</ele>
        <time>2010-04-06T12:15:52Z</time>
      </trkpt>
      <trkpt lat="47.9503200" lon="12.8836420">
        <ele>412.0600000</ele>
        <time>2010-04-06T12:15:57Z</time>
      </trkpt>
      <trkpt lat="47.9503230" lon="12.8833780">
        <ele>411.5800000</ele>
        <time>2010-04-06T12:16:02Z</time>
      </trkpt>
      <trkpt lat="47.9503220" lon="12.8831110">
        <ele>411.5800000</ele>
        <time>2010-04-06T12:16:07Z</time>
      </trkpt>
      <trkpt lat="47.9503160" lon="12.8828620">
        <ele>411.5800000</ele>
        <time>2010-04-06T12:16:12Z</time>
      </trkpt>
      <trkpt lat="47.9503080" lon="12.8826120">
        <ele>411.5800000</ele>
        <time>2010-04-06T12:16:17Z</time>
      </trkpt>
      <trkpt lat="47.9503090" lon="12.8823670">
        <ele>412.0600000</ele>
        <time>2010-04-06T12:16:22Z</time>
      </trkpt>
      <trkpt lat="47.9503280" lon="12.8821390">
        <ele>412.0600000</ele>
        <time>2010-04-06T12:16:27Z</time>
      </trkpt>
      <trkpt lat="47.9503010" lon="12.8818860">
        <ele>412.0600000</ele>
        <time>2010-04-06T12:16:32Z</time>
      </trkpt>
      <trkpt lat="47.9502320" lon="12.8816250">
        <ele>412.5400000</ele>
        <time>2010-04-06T12:16:37Z</time>
      </trkpt>
      <trkpt lat="47.9501550" lon="12.8813710">
        <ele>412.0600000</ele>
        <time>2010-04-06T12:16:42Z</time>
      </trkpt>
      <trkpt lat="47.9500680" lon="12.8811560">
        <ele>412.0600000</ele>
        <time>2010-04-06T12:16:47Z</time>
      </trkpt>
      <trkpt lat="47.9499720" lon="12.8809260">
        <ele>412.0600000</ele>
        <time>2010-04-06T12:16:52Z</time>
      </trkpt>
      <trkpt lat="47.9498840" lon="12.8806990">
        <ele>411.5800000</ele>
        <time>2010-04-06T12:16:57Z</time>
      </trkpt>
      <trkpt lat="47.9498500" lon="12.8804530">
        <ele>413.0200000</ele>
        <time>2010-04-06T12:17:02Z</time>
      </trkpt>
      <trkpt lat="47.9498670" lon="12.8801900">
        <ele>412.5400000</ele>
        <time>2010-04-06T12:17:07Z</time>
      </trkpt>
      <trkpt lat="47.9498760" lon="12.8799280">
        <ele>412.5400000</ele>
        <time>2010-04-06T12:17:12Z</time>
      </trkpt>
      <trkpt lat="47.9499310" lon="12.8797290">
        <ele>412.0600000</ele>
        <time>2010-04-06T12:17:17Z</time>
      </trkpt>
      <trkpt lat="47.9500680" lon="12.8795650">
        <ele>412.5400000</ele>
        <time>2010-04-06T12:17:22Z</time>
      </trkpt>
      <trkpt lat="47.9501930" lon="12.8793900">
        <ele>412.5400000</ele>
        <time>2010-04-06T12:17:27Z</time>
      </trkpt>
      <trkpt lat="47.9503250" lon="12.8792010">
        <ele>412.5400000</ele>
        <time>2010-04-06T12:17:32Z</time>
      </trkpt>
      <trkpt lat="47.9504920" lon="12.8790260">
        <ele>413.5000000</ele>
        <time>2010-04-06T12:17:37Z</time>
      </trkpt>
      <trkpt lat="47.9506420" lon="12.8788760">
        <ele>413.5000000</ele>
        <time>2010-04-06T12:17:42Z</time>
      </trkpt>
      <trkpt lat="47.9508080" lon="12.8786770">
        <ele>413.5000000</ele>
        <time>2010-04-06T12:17:47Z</time>
      </trkpt>
      <trkpt lat="47.9509340" lon="12.8785550">
        <ele>413.9800000</ele>
        <time>2010-04-06T12:17:52Z</time>
      </trkpt>
      <trkpt lat="47.9509550" lon="12.8785320">
        <ele>413.9800000</ele>
        <time>2010-04-06T12:17:57Z</time>
      </trkpt>
      <trkpt lat="47.9509550" lon="12.8785320">
        <ele>413.9800000</ele>
        <time>2010-04-06T12:18:02Z</time>
      </trkpt>
      <trkpt lat="47.9509550" lon="12.8785320">
        <ele>414.4700000</ele>
        <time>2010-04-06T12:18:07Z</time>
      </trkpt>
      <trkpt lat="47.9509550" lon="12.8785320">
        <ele>414.9500000</ele>
        <time>2010-04-06T12:18:12Z</time>
      </trkpt>
      <trkpt lat="47.9509550" lon="12.8785320">
        <ele>414.4700000</ele>
        <time>2010-04-06T12:18:17Z</time>
      </trkpt>
      <trkpt lat="47.9509550" lon="12.8785320">
        <ele>414.4700000</ele>
        <time>2010-04-06T12:18:22Z</time>
      </trkpt>
      <trkpt lat="47.9509550" lon="12.8785320">
        <ele>414.4700000</ele>
        <time>2010-04-06T12:18:27Z</time>
      </trkpt>
      <trkpt lat="47.9509550" lon="12.8785320">
        <ele>414.4700000</ele>
        <time>2010-04-06T12:18:32Z</time>
      </trkpt>
      <trkpt lat="47.9509560" lon="12.8785300">
        <ele>414.4700000</ele>
        <time>2010-04-06T12:18:37Z</time>
      </trkpt>
      <trkpt lat="47.9509560" lon="12.8785300">
        <ele>414.4700000</ele>
        <time>2010-04-06T12:18:42Z</time>
      </trkpt>
      <trkpt lat="47.9509530" lon="12.8784200">
        <ele>414.4700000</ele>
        <time>2010-04-06T12:18:47Z</time>
      </trkpt>
      <trkpt lat="47.9509530" lon="12.8782360">
        <ele>416.8700000</ele>
        <time>2010-04-06T12:18:52Z</time>
      </trkpt>
      <trkpt lat="47.9509420" lon="12.8780470">
        <ele>417.8300000</ele>
        <time>2010-04-06T12:18:57Z</time>
      </trkpt>
      <trkpt lat="47.9508980" lon="12.8778540">
        <ele>418.3100000</ele>
        <time>2010-04-06T12:19:02Z</time>
      </trkpt>
      <trkpt lat="47.9507910" lon="12.8777060">
        <ele>418.7900000</ele>
        <time>2010-04-06T12:19:07Z</time>
      </trkpt>
      <trkpt lat="47.9506720" lon="12.8775650">
        <ele>419.2700000</ele>
        <time>2010-04-06T12:19:12Z</time>
      </trkpt>
      <trkpt lat="47.9505160" lon="12.8773800">
        <ele>419.2700000</ele>
        <time>2010-04-06T12:19:18Z</time>
      </trkpt>
      <trkpt lat="47.9503910" lon="12.8772530">
        <ele>419.2700000</ele>
        <time>2010-04-06T12:19:23Z</time>
      </trkpt>
      <trkpt lat="47.9502660" lon="12.8771260">
        <ele>418.7900000</ele>
        <time>2010-04-06T12:19:28Z</time>
      </trkpt>
      <trkpt lat="47.9501370" lon="12.8769980">
        <ele>419.7500000</ele>
        <time>2010-04-06T12:19:33Z</time>
      </trkpt>
      <trkpt lat="47.9500230" lon="12.8769010">
        <ele>420.7100000</ele>
        <time>2010-04-06T12:19:38Z</time>
      </trkpt>
      <trkpt lat="47.9498800" lon="12.8767920">
        <ele>420.7100000</ele>
        <time>2010-04-06T12:19:43Z</time>
      </trkpt>
      <trkpt lat="47.9497680" lon="12.8766650">
        <ele>421.6800000</ele>
        <time>2010-04-06T12:19:48Z</time>
      </trkpt>
      <trkpt lat="47.9496960" lon="12.8765400">
        <ele>422.6400000</ele>
        <time>2010-04-06T12:19:53Z</time>
      </trkpt>
      <trkpt lat="47.9495900" lon="12.8763800">
        <ele>424.0800000</ele>
        <time>2010-04-06T12:19:58Z</time>
      </trkpt>
      <trkpt lat="47.9495170" lon="12.8762090">
        <ele>424.0800000</ele>
        <time>2010-04-06T12:20:03Z</time>
      </trkpt>
      <trkpt lat="47.9494290" lon="12.8759980">
        <ele>424.0800000</ele>
        <time>2010-04-06T12:20:08Z</time>
      </trkpt>
      <trkpt lat="47.9492970" lon="12.8757810">
        <ele>423.6000000</ele>
        <time>2010-04-06T12:20:13Z</time>
      </trkpt>
      <trkpt lat="47.9491780" lon="12.8756560">
        <ele>422.6400000</ele>
        <time>2010-04-06T12:20:18Z</time>
      </trkpt>
      <trkpt lat="47.9490630" lon="12.8754830">
        <ele>423.6000000</ele>
        <time>2010-04-06T12:20:23Z</time>
      </trkpt>
      <trkpt lat="47.9489690" lon="12.8753320">
        <ele>425.0400000</ele>
        <time>2010-04-06T12:20:28Z</time>
      </trkpt>
      <trkpt lat="47.9488820" lon="12.8751970">
        <ele>425.5200000</ele>
        <time>2010-04-06T12:20:33Z</time>
      </trkpt>
      <trkpt lat="47.9487950" lon="12.8750330">
        <ele>425.0400000</ele>
        <time>2010-04-06T12:20:38Z</time>
      </trkpt>
      <trkpt lat="47.9487110" lon="12.8748400">
        <ele>426.0000000</ele>
        <time>2010-04-06T12:20:43Z</time>
      </trkpt>
      <trkpt lat="47.9485630" lon="12.8746890">
        <ele>426.0000000</ele>
        <time>2010-04-06T12:20:48Z</time>
      </trkpt>
      <trkpt lat="47.9484170" lon="12.8745450">
        <ele>425.5200000</ele>
        <time>2010-04-06T12:20:53Z</time>
      </trkpt>
      <trkpt lat="47.9482660" lon="12.8744310">
        <ele>426.0000000</ele>
        <time>2010-04-06T12:20:58Z</time>
      </trkpt>
      <trkpt lat="47.9481150" lon="12.8743190">
        <ele>426.0000000</ele>
        <time>2010-04-06T12:21:03Z</time>
      </trkpt>
      <trkpt lat="47.9479970" lon="12.8741070">
        <ele>426.0000000</ele>
        <time>2010-04-06T12:21:08Z</time>
      </trkpt>
      <trkpt lat="47.9479930" lon="12.8738180">
        <ele>426.4800000</ele>
        <time>2010-04-06T12:21:13Z</time>
      </trkpt>
      <trkpt lat="47.9480120" lon="12.8735220">
        <ele>426.4800000</ele>
        <time>2010-04-06T12:21:18Z</time>
      </trkpt>
      <trkpt lat="47.9480030" lon="12.8731990">
        <ele>426.0000000</ele>
        <time>2010-04-06T12:21:23Z</time>
      </trkpt>
      <trkpt lat="47.9480290" lon="12.8729040">
        <ele>426.0000000</ele>
        <time>2010-04-06T12:21:28Z</time>
      </trkpt>
      <trkpt lat="47.9480250" lon="12.8725810">
        <ele>425.5200000</ele>
        <time>2010-04-06T12:21:33Z</time>
      </trkpt>
      <trkpt lat="47.9479610" lon="12.8722300">
        <ele>425.0400000</ele>
        <time>2010-04-06T12:21:38Z</time>
      </trkpt>
      <trkpt lat="47.9479450" lon="12.8718670">
        <ele>424.0800000</ele>
        <time>2010-04-06T12:21:43Z</time>
      </trkpt>
      <trkpt lat="47.9479360" lon="12.8715110">
        <ele>424.5600000</ele>
        <time>2010-04-06T12:21:48Z</time>
      </trkpt>
      <trkpt lat="47.9479240" lon="12.8711460">
        <ele>424.0800000</ele>
        <time>2010-04-06T12:21:53Z</time>
      </trkpt>
      <trkpt lat="47.9479180" lon="12.8708040">
        <ele>424.5600000</ele>
        <time>2010-04-06T12:21:58Z</time>
      </trkpt>
      <trkpt lat="47.9479190" lon="12.8704620">
        <ele>425.5200000</ele>
        <time>2010-04-06T12:22:03Z</time>
      </trkpt>
      <trkpt lat="47.9479080" lon="12.8701320">
        <ele>425.0400000</ele>
        <time>2010-04-06T12:22:08Z</time>
      </trkpt>
      <trkpt lat="47.9478810" lon="12.8697810">
        <ele>424.0800000</ele>
        <time>2010-04-06T12:22:13Z</time>
      </trkpt>
      <trkpt lat="47.9478230" lon="12.8694060">
        <ele>423.6000000</ele>
        <time>2010-04-06T12:22:18Z</time>
      </trkpt>
      <trkpt lat="47.9478180" lon="12.8690360">
        <ele>423.1200000</ele>
        <time>2010-04-06T12:22:23Z</time>
      </trkpt>
      <trkpt lat="47.9478140" lon="12.8686880">
        <ele>423.6000000</ele>
        <time>2010-04-06T12:22:28Z</time>
      </trkpt>
      <trkpt lat="47.9478080" lon="12.8683380">
        <ele>423.1200000</ele>
        <time>2010-04-06T12:22:33Z</time>
      </trkpt>
      <trkpt lat="47.9477980" lon="12.8679950">
        <ele>424.0800000</ele>
        <time>2010-04-06T12:22:38Z</time>
      </trkpt>
      <trkpt lat="47.9478070" lon="12.8676610">
        <ele>424.5600000</ele>
        <time>2010-04-06T12:22:43Z</time>
      </trkpt>
      <trkpt lat="47.9478280" lon="12.8673190">
        <ele>425.0400000</ele>
        <time>2010-04-06T12:22:48Z</time>
      </trkpt>
      <trkpt lat="47.9478560" lon="12.8669880">
        <ele>425.0400000</ele>
        <time>2010-04-06T12:22:53Z</time>
      </trkpt>
      <trkpt lat="47.9478840" lon="12.8666560">
        <ele>424.5600000</ele>
        <time>2010-04-06T12:22:58Z</time>
      </trkpt>
      <trkpt lat="47.9479170" lon="12.8663470">
        <ele>424.0800000</ele>
        <time>2010-04-06T12:23:03Z</time>
      </trkpt>
      <trkpt lat="47.9479780" lon="12.8660040">
        <ele>423.6000000</ele>
        <time>2010-04-06T12:23:08Z</time>
      </trkpt>
      <trkpt lat="47.9478850" lon="12.8657240">
        <ele>422.6400000</ele>
        <time>2010-04-06T12:23:13Z</time>
      </trkpt>
      <trkpt lat="47.9476040" lon="12.8656790">
        <ele>421.1900000</ele>
        <time>2010-04-06T12:23:18Z</time>
      </trkpt>
      <trkpt lat="47.9473380" lon="12.8654510">
        <ele>418.7900000</ele>
        <time>2010-04-06T12:23:23Z</time>
      </trkpt>
      <trkpt lat="47.9470400" lon="12.8651930">
        <ele>419.2700000</ele>
        <time>2010-04-06T12:23:28Z</time>
      </trkpt>
      <trkpt lat="47.9468320" lon="12.8649990">
        <ele>421.6800000</ele>
        <time>2010-04-06T12:23:33Z</time>
      </trkpt>
      <trkpt lat="47.9466820" lon="12.8648870">
        <ele>424.5600000</ele>
        <time>2010-04-06T12:23:38Z</time>
      </trkpt>
      <trkpt lat="47.9465490" lon="12.8647990">
        <ele>426.0000000</ele>
        <time>2010-04-06T12:23:43Z</time>
      </trkpt>
      <trkpt lat="47.9464010" lon="12.8646770">
        <ele>426.9600000</ele>
        <time>2010-04-06T12:23:48Z</time>
      </trkpt>
      <trkpt lat="47.9462980" lon="12.8644750">
        <ele>426.9600000</ele>
        <time>2010-04-06T12:23:53Z</time>
      </trkpt>
      <trkpt lat="47.9462400" lon="12.8642330">
        <ele>427.4400000</ele>
        <time>2010-04-06T12:23:58Z</time>
      </trkpt>
      <trkpt lat="47.9461350" lon="12.8640130">
        <ele>426.9600000</ele>
        <time>2010-04-06T12:24:03Z</time>
      </trkpt>
      <trkpt lat="47.9459500" lon="12.8637160">
        <ele>425.0400000</ele>
        <time>2010-04-06T12:24:08Z</time>
      </trkpt>
      <trkpt lat="47.9457210" lon="12.8633710">
        <ele>423.6000000</ele>
        <time>2010-04-06T12:24:13Z</time>
      </trkpt>
      <trkpt lat="47.9454820" lon="12.8629840">
        <ele>422.1600000</ele>
        <time>2010-04-06T12:24:18Z</time>
      </trkpt>
      <trkpt lat="47.9452420" lon="12.8625290">
        <ele>420.7100000</ele>
        <time>2010-04-06T12:24:23Z</time>
      </trkpt>
      <trkpt lat="47.9450470" lon="12.8620950">
        <ele>421.6800000</ele>
        <time>2010-04-06T12:24:28Z</time>
      </trkpt>
      <trkpt lat="47.9448440" lon="12.8617760">
        <ele>422.6400000</ele>
        <time>2010-04-06T12:24:33Z</time>
      </trkpt>
      <trkpt lat="47.9446500" lon="12.8614980">
        <ele>422.6400000</ele>
        <time>2010-04-06T12:24:38Z</time>
      </trkpt>
      <trkpt lat="47.9444540" lon="12.8612360">
        <ele>423.1200000</ele>
        <time>2010-04-06T12:24:43Z</time>
      </trkpt>
      <trkpt lat="47.9442300" lon="12.8610440">
        <ele>423.6000000</ele>
        <time>2010-04-06T12:24:48Z</time>
      </trkpt>
      <trkpt lat="47.9440210" lon="12.8608960">
        <ele>424.5600000</ele>
        <time>2010-04-06T12:24:53Z</time>
      </trkpt>
      <trkpt lat="47.9438290" lon="12.8610600">
        <ele>423.6000000</ele>
        <time>2010-04-06T12:24:58Z</time>
      </trkpt>
      <trkpt lat="47.9437460" lon="12.8613780">
        <ele>423.1200000</ele>
        <time>2010-04-06T12:25:03Z</time>
      </trkpt>
      <trkpt lat="47.9436480" lon="12.8616630">
        <ele>424.0800000</ele>
        <time>2010-04-06T12:25:08Z</time>
      </trkpt>
      <trkpt lat="47.9435540" lon="12.8619430">
        <ele>424.5600000</ele>
        <time>2010-04-06T12:25:13Z</time>
      </trkpt>
      <trkpt lat="47.9434610" lon="12.8622160">
        <ele>424.0800000</ele>
        <time>2010-04-06T12:25:18Z</time>
      </trkpt>
      <trkpt lat="47.9433530" lon="12.8624990">
        <ele>424.0800000</ele>
        <time>2010-04-06T12:25:23Z</time>
      </trkpt>
      <trkpt lat="47.9432170" lon="12.8627340">
        <ele>424.5600000</ele>
        <time>2010-04-06T12:25:28Z</time>
      </trkpt>
      <trkpt lat="47.9430490" lon="12.8629580">
        <ele>425.0400000</ele>
        <time>2010-04-06T12:25:33Z</time>
      </trkpt>
      <trkpt lat="47.9428800" lon="12.8631700">
        <ele>425.5200000</ele>
        <time>2010-04-06T12:25:38Z</time>
      </trkpt>
      <trkpt lat="47.9427090" lon="12.8633920">
        <ele>425.5200000</ele>
        <time>2010-04-06T12:25:43Z</time>
      </trkpt>
      <trkpt lat="47.9425380" lon="12.8636140">
        <ele>426.0000000</ele>
        <time>2010-04-06T12:25:48Z</time>
      </trkpt>
      <trkpt lat="47.9423720" lon="12.8638230">
        <ele>426.0000000</ele>
        <time>2010-04-06T12:25:53Z</time>
      </trkpt>
      <trkpt lat="47.9422130" lon="12.8640210">
        <ele>427.4400000</ele>
        <time>2010-04-06T12:25:58Z</time>
      </trkpt>
      <trkpt lat="47.9420560" lon="12.8641890">
        <ele>428.8900000</ele>
        <time>2010-04-06T12:26:03Z</time>
      </trkpt>
      <trkpt lat="47.9418800" lon="12.8643280">
        <ele>430.8100000</ele>
        <time>2010-04-06T12:26:08Z</time>
      </trkpt>
      <trkpt lat="47.9417170" lon="12.8644580">
        <ele>430.3300000</ele>
        <time>2010-04-06T12:26:13Z</time>
      </trkpt>
      <trkpt lat="47.9415350" lon="12.8646130">
        <ele>430.8100000</ele>
        <time>2010-04-06T12:26:18Z</time>
      </trkpt>
      <trkpt lat="47.9413390" lon="12.8646860">
        <ele>430.8100000</ele>
        <time>2010-04-06T12:26:23Z</time>
      </trkpt>
      <trkpt lat="47.9411680" lon="12.8645450">
        <ele>431.2900000</ele>
        <time>2010-04-06T12:26:28Z</time>
      </trkpt>
      <trkpt lat="47.9409510" lon="12.8644360">
        <ele>430.8100000</ele>
        <time>2010-04-06T12:26:33Z</time>
      </trkpt>
      <trkpt lat="47.9407390" lon="12.8642580">
        <ele>430.8100000</ele>
        <time>2010-04-06T12:26:38Z</time>
      </trkpt>
      <trkpt lat="47.9405180" lon="12.8640700">
        <ele>430.8100000</ele>
        <time>2010-04-06T12:26:43Z</time>
      </trkpt>
      <trkpt lat="47.9403050" lon="12.8639110">
        <ele>429.8500000</ele>
        <time>2010-04-06T12:26:48Z</time>
      </trkpt>
      <trkpt lat="47.9401050" lon="12.8637870">
        <ele>430.8100000</ele>
        <time>2010-04-06T12:26:53Z</time>
      </trkpt>
      <trkpt lat="47.9399440" lon="12.8636800">
        <ele>430.8100000</ele>
        <time>2010-04-06T12:26:58Z</time>
      </trkpt>
      <trkpt lat="47.9397640" lon="12.8635350">
        <ele>430.8100000</ele>
        <time>2010-04-06T12:27:03Z</time>
      </trkpt>
      <trkpt lat="47.9395510" lon="12.8633620">
        <ele>430.3300000</ele>
        <time>2010-04-06T12:27:08Z</time>
      </trkpt>
      <trkpt lat="47.9393180" lon="12.8632180">
        <ele>430.3300000</ele>
        <time>2010-04-06T12:27:13Z</time>
      </trkpt>
      <trkpt lat="47.9390950" lon="12.8630130">
        <ele>430.3300000</ele>
        <time>2010-04-06T12:27:18Z</time>
      </trkpt>
      <trkpt lat="47.9388840" lon="12.8628400">
        <ele>430.8100000</ele>
        <time>2010-04-06T12:27:23Z</time>
      </trkpt>
      <trkpt lat="47.9386540" lon="12.8626440">
        <ele>430.3300000</ele>
        <time>2010-04-06T12:27:28Z</time>
      </trkpt>
      <trkpt lat="47.9384320" lon="12.8624400">
        <ele>430.8100000</ele>
        <time>2010-04-06T12:27:33Z</time>
      </trkpt>
      <trkpt lat="47.9382190" lon="12.8622600">
        <ele>431.2900000</ele>
        <time>2010-04-06T12:27:38Z</time>
      </trkpt>
      <trkpt lat="47.9379750" lon="12.8621340">
        <ele>431.2900000</ele>
        <time>2010-04-06T12:27:43Z</time>
      </trkpt>
      <trkpt lat="47.9377370" lon="12.8619930">
        <ele>431.7700000</ele>
        <time>2010-04-06T12:27:48Z</time>
      </trkpt>
      <trkpt lat="47.9375080" lon="12.8618260">
        <ele>431.7700000</ele>
        <time>2010-04-06T12:27:53Z</time>
      </trkpt>
      <trkpt lat="47.9372990" lon="12.8616990">
        <ele>431.7700000</ele>
        <time>2010-04-06T12:27:58Z</time>
      </trkpt>
      <trkpt lat="47.9371000" lon="12.8615570">
        <ele>432.2500000</ele>
        <time>2010-04-06T12:28:03Z</time>
      </trkpt>
      <trkpt lat="47.9368850" lon="12.8613840">
        <ele>431.7700000</ele>
        <time>2010-04-06T12:28:08Z</time>
      </trkpt>
      <trkpt lat="47.9366670" lon="12.8612300">
        <ele>432.2500000</ele>
        <time>2010-04-06T12:28:13Z</time>
      </trkpt>
      <trkpt lat="47.9364310" lon="12.8611120">
        <ele>432.2500000</ele>
        <time>2010-04-06T12:28:18Z</time>
      </trkpt>
      <trkpt lat="47.9361940" lon="12.8609820">
        <ele>431.7700000</ele>
        <time>2010-04-06T12:28:23Z</time>
      </trkpt>
      <trkpt lat="47.9359970" lon="12.8609120">
        <ele>431.7700000</ele>
        <time>2010-04-06T12:28:27Z</time>
      </trkpt>
      <trkpt lat="47.9357160" lon="12.8607880">
        <ele>431.7700000</ele>
        <time>2010-04-06T12:28:33Z</time>
      </trkpt>
      <trkpt lat="47.9354790" lon="12.8606790">
        <ele>431.7700000</ele>
        <time>2010-04-06T12:28:38Z</time>
      </trkpt>
      <trkpt lat="47.9352600" lon="12.8605710">
        <ele>432.2500000</ele>
        <time>2010-04-06T12:28:43Z</time>
      </trkpt>
      <trkpt lat="47.9350340" lon="12.8604710">
        <ele>432.2500000</ele>
        <time>2010-04-06T12:28:48Z</time>
      </trkpt>
      <trkpt lat="47.9348030" lon="12.8603810">
        <ele>432.7300000</ele>
        <time>2010-04-06T12:28:53Z</time>
      </trkpt>
      <trkpt lat="47.9345790" lon="12.8602600">
        <ele>432.7300000</ele>
        <time>2010-04-06T12:28:58Z</time>
      </trkpt>
      <trkpt lat="47.9343750" lon="12.8601820">
        <ele>432.2500000</ele>
        <time>2010-04-06T12:29:03Z</time>
      </trkpt>
      <trkpt lat="47.9341750" lon="12.8601360">
        <ele>432.7300000</ele>
        <time>2010-04-06T12:29:08Z</time>
      </trkpt>
      <trkpt lat="47.9339500" lon="12.8600430">
        <ele>433.2100000</ele>
        <time>2010-04-06T12:29:13Z</time>
      </trkpt>
      <trkpt lat="47.9336980" lon="12.8599610">
        <ele>432.2500000</ele>
        <time>2010-04-06T12:29:18Z</time>
      </trkpt>
      <trkpt lat="47.9334340" lon="12.8598580">
        <ele>432.2500000</ele>
        <time>2010-04-06T12:29:23Z</time>
      </trkpt>
      <trkpt lat="47.9331710" lon="12.8597830">
        <ele>432.7300000</ele>
        <time>2010-04-06T12:29:28Z</time>
      </trkpt>
      <trkpt lat="47.9329240" lon="12.8596900">
        <ele>433.2100000</ele>
        <time>2010-04-06T12:29:33Z</time>
      </trkpt>
      <trkpt lat="47.9326940" lon="12.8595910">
        <ele>433.2100000</ele>
        <time>2010-04-06T12:29:38Z</time>
      </trkpt>
      <trkpt lat="47.9324520" lon="12.8594880">
        <ele>433.2100000</ele>
        <time>2010-04-06T12:29:43Z</time>
      </trkpt>
      <trkpt lat="47.9321990" lon="12.8594050">
        <ele>433.2100000</ele>
        <time>2010-04-06T12:29:48Z</time>
      </trkpt>
      <trkpt lat="47.9319440" lon="12.8593310">
        <ele>433.2100000</ele>
        <time>2010-04-06T12:29:53Z</time>
      </trkpt>
      <trkpt lat="47.9316860" lon="12.8592360">
        <ele>433.6900000</ele>
        <time>2010-04-06T12:29:58Z</time>
      </trkpt>
      <trkpt lat="47.9314310" lon="12.8591010">
        <ele>432.7300000</ele>
        <time>2010-04-06T12:30:03Z</time>
      </trkpt>
      <trkpt lat="47.9311770" lon="12.8589500">
        <ele>432.7300000</ele>
        <time>2010-04-06T12:30:08Z</time>
      </trkpt>
      <trkpt lat="47.9309040" lon="12.8588000">
        <ele>432.7300000</ele>
        <time>2010-04-06T12:30:13Z</time>
      </trkpt>
      <trkpt lat="47.9306430" lon="12.8586510">
        <ele>433.2100000</ele>
        <time>2010-04-06T12:30:18Z</time>
      </trkpt>
      <trkpt lat="47.9304020" lon="12.8585180">
        <ele>433.2100000</ele>
        <time>2010-04-06T12:30:23Z</time>
      </trkpt>
      <trkpt lat="47.9301720" lon="12.8583840">
        <ele>433.6900000</ele>
        <time>2010-04-06T12:30:28Z</time>
      </trkpt>
      <trkpt lat="47.9299490" lon="12.8582590">
        <ele>434.6500000</ele>
        <time>2010-04-06T12:30:33Z</time>
      </trkpt>
      <trkpt lat="47.9297230" lon="12.8581240">
        <ele>434.1700000</ele>
        <time>2010-04-06T12:30:38Z</time>
      </trkpt>
      <trkpt lat="47.9294980" lon="12.8579940">
        <ele>435.6100000</ele>
        <time>2010-04-06T12:30:43Z</time>
      </trkpt>
      <trkpt lat="47.9292560" lon="12.8578510">
        <ele>435.1300000</ele>
        <time>2010-04-06T12:30:48Z</time>
      </trkpt>
      <trkpt lat="47.9290250" lon="12.8577240">
        <ele>435.1300000</ele>
        <time>2010-04-06T12:30:53Z</time>
      </trkpt>
      <trkpt lat="47.9288040" lon="12.8575890">
        <ele>435.1300000</ele>
        <time>2010-04-06T12:30:58Z</time>
      </trkpt>
      <trkpt lat="47.9285780" lon="12.8574520">
        <ele>435.1300000</ele>
        <time>2010-04-06T12:31:03Z</time>
      </trkpt>
      <trkpt lat="47.9283440" lon="12.8573120">
        <ele>435.6100000</ele>
        <time>2010-04-06T12:31:08Z</time>
      </trkpt>
      <trkpt lat="47.9280990" lon="12.8571760">
        <ele>435.6100000</ele>
        <time>2010-04-06T12:31:13Z</time>
      </trkpt>
      <trkpt lat="47.9278650" lon="12.8570260">
        <ele>435.6100000</ele>
        <time>2010-04-06T12:31:18Z</time>
      </trkpt>
      <trkpt lat="47.9276230" lon="12.8568900">
        <ele>436.1000000</ele>
        <time>2010-04-06T12:31:23Z</time>
      </trkpt>
      <trkpt lat="47.9273820" lon="12.8567450">
        <ele>436.1000000</ele>
        <time>2010-04-06T12:31:28Z</time>
      </trkpt>
      <trkpt lat="47.9271460" lon="12.8565980">
        <ele>436.5800000</ele>
        <time>2010-04-06T12:31:33Z</time>
      </trkpt>
      <trkpt lat="47.9269020" lon="12.8564570">
        <ele>436.5800000</ele>
        <time>2010-04-06T12:31:38Z</time>
      </trkpt>
      <trkpt lat="47.9266600" lon="12.8563070">
        <ele>437.0600000</ele>
        <time>2010-04-06T12:31:43Z</time>
      </trkpt>
      <trkpt lat="47.9264220" lon="12.8561720">
        <ele>437.0600000</ele>
        <time>2010-04-06T12:31:48Z</time>
      </trkpt>
      <trkpt lat="47.9261770" lon="12.8560300">
        <ele>437.5400000</ele>
        <time>2010-04-06T12:31:53Z</time>
      </trkpt>
      <trkpt lat="47.9259270" lon="12.8558800">
        <ele>437.5400000</ele>
        <time>2010-04-06T12:31:58Z</time>
      </trkpt>
      <trkpt lat="47.9256930" lon="12.8557240">
        <ele>437.0600000</ele>
        <time>2010-04-06T12:32:03Z</time>
      </trkpt>
      <trkpt lat="47.9254620" lon="12.8555890">
        <ele>437.0600000</ele>
        <time>2010-04-06T12:32:08Z</time>
      </trkpt>
      <trkpt lat="47.9252160" lon="12.8554360">
        <ele>437.0600000</ele>
        <time>2010-04-06T12:32:13Z</time>
      </trkpt>
      <trkpt lat="47.9249830" lon="12.8552860">
        <ele>437.0600000</ele>
        <time>2010-04-06T12:32:18Z</time>
      </trkpt>
      <trkpt lat="47.9247370" lon="12.8551370">
        <ele>437.0600000</ele>
        <time>2010-04-06T12:32:23Z</time>
      </trkpt>
      <trkpt lat="47.9244950" lon="12.8550150">
        <ele>437.0600000</ele>
        <time>2010-04-06T12:32:28Z</time>
      </trkpt>
      <trkpt lat="47.9242540" lon="12.8548810">
        <ele>437.0600000</ele>
        <time>2010-04-06T12:32:33Z</time>
      </trkpt>
      <trkpt lat="47.9240120" lon="12.8547430">
        <ele>437.5400000</ele>
        <time>2010-04-06T12:32:38Z</time>
      </trkpt>
      <trkpt lat="47.9237850" lon="12.8545840">
        <ele>437.5400000</ele>
        <time>2010-04-06T12:32:43Z</time>
      </trkpt>
      <trkpt lat="47.9235750" lon="12.8544320">
        <ele>437.0600000</ele>
        <time>2010-04-06T12:32:48Z</time>
      </trkpt>
      <trkpt lat="47.9233420" lon="12.8543010">
        <ele>437.5400000</ele>
        <time>2010-04-06T12:32:53Z</time>
      </trkpt>
      <trkpt lat="47.9230990" lon="12.8541640">
        <ele>437.5400000</ele>
        <time>2010-04-06T12:32:58Z</time>
      </trkpt>
      <trkpt lat="47.9228640" lon="12.8540340">
        <ele>437.5400000</ele>
        <time>2010-04-06T12:33:03Z</time>
      </trkpt>
      <trkpt lat="47.9226440" lon="12.8539420">
        <ele>438.0200000</ele>
        <time>2010-04-06T12:33:08Z</time>
      </trkpt>
      <trkpt lat="47.9224240" lon="12.8538840">
        <ele>438.0200000</ele>
        <time>2010-04-06T12:33:13Z</time>
      </trkpt>
      <trkpt lat="47.9221830" lon="12.8538800">
        <ele>438.5000000</ele>
        <time>2010-04-06T12:33:18Z</time>
      </trkpt>
      <trkpt lat="47.9219380" lon="12.8539160">
        <ele>437.5400000</ele>
        <time>2010-04-06T12:33:23Z</time>
      </trkpt>
      <trkpt lat="47.9216900" lon="12.8539700">
        <ele>438.5000000</ele>
        <time>2010-04-06T12:33:28Z</time>
      </trkpt>
      <trkpt lat="47.9214500" lon="12.8540230">
        <ele>438.5000000</ele>
        <time>2010-04-06T12:33:33Z</time>
      </trkpt>
      <trkpt lat="47.9212210" lon="12.8540530">
        <ele>438.9800000</ele>
        <time>2010-04-06T12:33:38Z</time>
      </trkpt>
      <trkpt lat="47.9209930" lon="12.8540990">
        <ele>438.9800000</ele>
        <time>2010-04-06T12:33:43Z</time>
      </trkpt>
      <trkpt lat="47.9207730" lon="12.8541350">
        <ele>439.9400000</ele>
        <time>2010-04-06T12:33:48Z</time>
      </trkpt>
      <trkpt lat="47.9206650" lon="12.8542810">
        <ele>440.9000000</ele>
        <time>2010-04-06T12:33:53Z</time>
      </trkpt>
      <trkpt lat="47.9206670" lon="12.8545490">
        <ele>440.9000000</ele>
        <time>2010-04-06T12:33:58Z</time>
      </trkpt>
      <trkpt lat="47.9206480" lon="12.8548740">
        <ele>440.4200000</ele>
        <time>2010-04-06T12:34:03Z</time>
      </trkpt>
      <trkpt lat="47.9206950" lon="12.8551640">
        <ele>440.9000000</ele>
        <time>2010-04-06T12:34:08Z</time>
      </trkpt>
      <trkpt lat="47.9206980" lon="12.8553680">
        <ele>440.9000000</ele>
        <time>2010-04-06T12:34:13Z</time>
      </trkpt>
      <trkpt lat="47.9206980" lon="12.8553680">
        <ele>440.4200000</ele>
        <time>2010-04-06T12:34:18Z</time>
      </trkpt>
      <trkpt lat="47.9206930" lon="12.8553910">
        <ele>439.9400000</ele>
        <time>2010-04-06T12:34:23Z</time>
      </trkpt>
      <trkpt lat="47.9206670" lon="12.8555950">
        <ele>439.4600000</ele>
        <time>2010-04-06T12:34:28Z</time>
      </trkpt>
      <trkpt lat="47.9206910" lon="12.8557810">
        <ele>439.4600000</ele>
        <time>2010-04-06T12:34:33Z</time>
      </trkpt>
      <trkpt lat="47.9207620" lon="12.8559960">
        <ele>440.4200000</ele>
        <time>2010-04-06T12:34:38Z</time>
      </trkpt>
      <trkpt lat="47.9208400" lon="12.8561610">
        <ele>441.8600000</ele>
        <time>2010-04-06T12:34:43Z</time>
      </trkpt>
      <trkpt lat="47.9209230" lon="12.8563570">
        <ele>441.8600000</ele>
        <time>2010-04-06T12:34:48Z</time>
      </trkpt>
      <trkpt lat="47.9210570" lon="12.8565860">
        <ele>440.9000000</ele>
        <time>2010-04-06T12:34:53Z</time>
      </trkpt>
      <trkpt lat="47.9211850" lon="12.8568530">
        <ele>439.9400000</ele>
        <time>2010-04-06T12:34:58Z</time>
      </trkpt>
      <trkpt lat="47.9212510" lon="12.8570940">
        <ele>438.9800000</ele>
        <time>2010-04-06T12:35:03Z</time>
      </trkpt>
      <trkpt lat="47.9213760" lon="12.8572280">
        <ele>438.0200000</ele>
        <time>2010-04-06T12:35:08Z</time>
      </trkpt>
      <trkpt lat="47.9214630" lon="12.8574500">
        <ele>437.5400000</ele>
        <time>2010-04-06T12:35:13Z</time>
      </trkpt>
      <trkpt lat="47.9215480" lon="12.8577410">
        <ele>436.5800000</ele>
        <time>2010-04-06T12:35:18Z</time>
      </trkpt>
      <trkpt lat="47.9215180" lon="12.8581440">
        <ele>436.1000000</ele>
        <time>2010-04-06T12:35:23Z</time>
      </trkpt>
      <trkpt lat="47.9215280" lon="12.8584390">
        <ele>436.5800000</ele>
        <time>2010-04-06T12:35:28Z</time>
      </trkpt>
      <trkpt lat="47.9215450" lon="12.8587000">
        <ele>436.5800000</ele>
        <time>2010-04-06T12:35:33Z</time>
      </trkpt>
      <trkpt lat="47.9215730" lon="12.8589800">
        <ele>436.5800000</ele>
        <time>2010-04-06T12:35:38Z</time>
      </trkpt>
      <trkpt lat="47.9215850" lon="12.8592480">
        <ele>436.1000000</ele>
        <time>2010-04-06T12:35:43Z</time>
      </trkpt>
      <trkpt lat="47.9215760" lon="12.8595000">
        <ele>436.1000000</ele>
        <time>2010-04-06T12:35:48Z</time>
      </trkpt>
      <trkpt lat="47.9215490" lon="12.8597400">
        <ele>436.1000000</ele>
        <time>2010-04-06T12:35:53Z</time>
      </trkpt>
      <trkpt lat="47.9215200" lon="12.8599620">
        <ele>436.5800000</ele>
        <time>2010-04-06T12:35:58Z</time>
      </trkpt>
      <trkpt lat="47.9214790" lon="12.8601970">
        <ele>436.1000000</ele>
        <time>2010-04-06T12:36:03Z</time>
      </trkpt>
      <trkpt lat="47.9214590" lon="12.8605190">
        <ele>436.1000000</ele>
        <time>2010-04-06T12:36:08Z</time>
      </trkpt>
      <trkpt lat="47.9214720" lon="12.8607700">
        <ele>435.6100000</ele>
        <time>2010-04-06T12:36:13Z</time>
      </trkpt>
      <trkpt lat="47.9215310" lon="12.8610360">
        <ele>433.6900000</ele>
        <time>2010-04-06T12:36:18Z</time>
      </trkpt>
      <trkpt lat="47.9215040" lon="12.8614170">
        <ele>431.7700000</ele>
        <time>2010-04-06T12:36:23Z</time>
      </trkpt>
      <trkpt lat="47.9214640" lon="12.8617630">
        <ele>432.2500000</ele>
        <time>2010-04-06T12:36:28Z</time>
      </trkpt>
      <trkpt lat="47.9214500" lon="12.8620740">
        <ele>432.2500000</ele>
        <time>2010-04-06T12:36:33Z</time>
      </trkpt>
      <trkpt lat="47.9214120" lon="12.8623710">
        <ele>432.2500000</ele>
        <time>2010-04-06T12:36:38Z</time>
      </trkpt>
      <trkpt lat="47.9213920" lon="12.8626010">
        <ele>432.2500000</ele>
        <time>2010-04-06T12:36:43Z</time>
      </trkpt>
      <trkpt lat="47.9213520" lon="12.8628680">
        <ele>432.7300000</ele>
        <time>2010-04-06T12:36:48Z</time>
      </trkpt>
      <trkpt lat="47.9213540" lon="12.8630980">
        <ele>434.1700000</ele>
        <time>2010-04-06T12:36:53Z</time>
      </trkpt>
      <trkpt lat="47.9213820" lon="12.8632760">
        <ele>434.6500000</ele>
        <time>2010-04-06T12:36:58Z</time>
      </trkpt>
      <trkpt lat="47.9214130" lon="12.8634770">
        <ele>434.6500000</ele>
        <time>2010-04-06T12:37:03Z</time>
      </trkpt>
      <trkpt lat="47.9214120" lon="12.8637260">
        <ele>435.1300000</ele>
        <time>2010-04-06T12:37:08Z</time>
      </trkpt>
      <trkpt lat="47.9214280" lon="12.8639340">
        <ele>434.1700000</ele>
        <time>2010-04-06T12:37:13Z</time>
      </trkpt>
      <trkpt lat="47.9214630" lon="12.8641610">
        <ele>434.1700000</ele>
        <time>2010-04-06T12:37:18Z</time>
      </trkpt>
      <trkpt lat="47.9215040" lon="12.8643850">
        <ele>433.2100000</ele>
        <time>2010-04-06T12:37:23Z</time>
      </trkpt>
      <trkpt lat="47.9215810" lon="12.8644890">
        <ele>432.7300000</ele>
        <time>2010-04-06T12:37:28Z</time>
      </trkpt>
      <trkpt lat="47.9216550" lon="12.8645700">
        <ele>433.2100000</ele>
        <time>2010-04-06T12:37:33Z</time>
      </trkpt>
      <trkpt lat="47.9217240" lon="12.8646710">
        <ele>432.7300000</ele>
        <time>2010-04-06T12:37:38Z</time>
      </trkpt>
      <trkpt lat="47.9217780" lon="12.8646820">
        <ele>432.7300000</ele>
        <time>2010-04-06T12:37:43Z</time>
      </trkpt>
      <trkpt lat="47.9217880" lon="12.8647330">
        <ele>432.7300000</ele>
        <time>2010-04-06T12:37:48Z</time>
      </trkpt>
      <trkpt lat="47.9216840" lon="12.8649690">
        <ele>432.2500000</ele>
        <time>2010-04-06T12:37:53Z</time>
      </trkpt>
      <trkpt lat="47.9215810" lon="12.8649720">
        <ele>432.7300000</ele>
        <time>2010-04-06T12:37:58Z</time>
      </trkpt>
      <trkpt lat="47.9214960" lon="12.8649050">
        <ele>432.2500000</ele>
        <time>2010-04-06T12:38:03Z</time>
      </trkpt>
      <trkpt lat="47.9213860" lon="12.8648900">
        <ele>432.2500000</ele>
        <time>2010-04-06T12:38:08Z</time>
      </trkpt>
      <trkpt lat="47.9213130" lon="12.8649640">
        <ele>432.2500000</ele>
        <time>2010-04-06T12:38:13Z</time>
      </trkpt>
      <trkpt lat="47.9212870" lon="12.8650280">
        <ele>431.2900000</ele>
        <time>2010-04-06T12:38:18Z</time>
      </trkpt>
      <trkpt lat="47.9212390" lon="12.8651010">
        <ele>431.2900000</ele>
        <time>2010-04-06T12:38:23Z</time>
      </trkpt>
      <trkpt lat="47.9211900" lon="12.8651790">
        <ele>430.8100000</ele>
        <time>2010-04-06T12:38:28Z</time>
      </trkpt>
      <trkpt lat="47.9211220" lon="12.8652350">
        <ele>430.3300000</ele>
        <time>2010-04-06T12:38:33Z</time>
      </trkpt>
      <trkpt lat="47.9210670" lon="12.8653530">
        <ele>430.3300000</ele>
        <time>2010-04-06T12:38:38Z</time>
      </trkpt>
      <trkpt lat="47.9210290" lon="12.8654090">
        <ele>430.3300000</ele>
        <time>2010-04-06T12:38:43Z</time>
      </trkpt>
      <trkpt lat="47.9210290" lon="12.8654090">
        <ele>429.8500000</ele>
        <time>2010-04-06T12:38:48Z</time>
      </trkpt>
      <trkpt lat="47.9210290" lon="12.8654090">
        <ele>429.8500000</ele>
        <time>2010-04-06T12:38:53Z</time>
      </trkpt>
      <trkpt lat="47.9210290" lon="12.8654090">
        <ele>429.8500000</ele>
        <time>2010-04-06T12:38:58Z</time>
      </trkpt>
      <trkpt lat="47.9210290" lon="12.8654090">
        <ele>429.8500000</ele>
        <time>2010-04-06T12:39:03Z</time>
      </trkpt>
      <trkpt lat="47.9210290" lon="12.8654090">
        <ele>429.3700000</ele>
        <time>2010-04-06T12:39:08Z</time>
      </trkpt>
      <trkpt lat="47.9210200" lon="12.8654250">
        <ele>429.3700000</ele>
        <time>2010-04-06T12:39:13Z</time>
      </trkpt>
      <trkpt lat="47.9210140" lon="12.8654670">
        <ele>429.8500000</ele>
        <time>2010-04-06T12:39:18Z</time>
      </trkpt>
      <trkpt lat="47.9210110" lon="12.8654790">
        <ele>429.3700000</ele>
        <time>2010-04-06T12:39:23Z</time>
      </trkpt>
      <trkpt lat="47.9210060" lon="12.8654990">
        <ele>428.8900000</ele>
        <time>2010-04-06T12:39:28Z</time>
      </trkpt>
      <trkpt lat="47.9209990" lon="12.8655300">
        <ele>428.8900000</ele>
        <time>2010-04-06T12:39:33Z</time>
      </trkpt>
      <trkpt lat="47.9209920" lon="12.8656470">
        <ele>428.4000000</ele>
        <time>2010-04-06T12:39:38Z</time>
      </trkpt>
      <trkpt lat="47.9210470" lon="12.8657390">
        <ele>428.8900000</ele>
        <time>2010-04-06T12:39:42Z</time>
      </trkpt>
      <trkpt lat="47.9211400" lon="12.8659140">
        <ele>428.4000000</ele>
        <time>2010-04-06T12:39:48Z</time>
      </trkpt>
      <trkpt lat="47.9211780" lon="12.8661350">
        <ele>427.4400000</ele>
        <time>2010-04-06T12:39:53Z</time>
      </trkpt>
      <trkpt lat="47.9212270" lon="12.8662060">
        <ele>427.4400000</ele>
        <time>2010-04-06T12:39:58Z</time>
      </trkpt>
      <trkpt lat="47.9213560" lon="12.8662690">
        <ele>427.4400000</ele>
        <time>2010-04-06T12:40:03Z</time>
      </trkpt>
      <trkpt lat="47.9214370" lon="12.8663390">
        <ele>427.4400000</ele>
        <time>2010-04-06T12:40:08Z</time>
      </trkpt>
      <trkpt lat="47.9214370" lon="12.8663390">
        <ele>427.9200000</ele>
        <time>2010-04-06T12:40:13Z</time>
      </trkpt>
      <trkpt lat="47.9214370" lon="12.8663390">
        <ele>427.9200000</ele>
        <time>2010-04-06T12:40:18Z</time>
      </trkpt>
      <trkpt lat="47.9214370" lon="12.8663390">
        <ele>426.9600000</ele>
        <time>2010-04-06T12:40:23Z</time>
      </trkpt>
      <trkpt lat="47.9214520" lon="12.8663590">
        <ele>427.4400000</ele>
        <time>2010-04-06T12:40:28Z</time>
      </trkpt>
      <trkpt lat="47.9214520" lon="12.8663590">
        <ele>427.4400000</ele>
        <time>2010-04-06T12:40:33Z</time>
      </trkpt>
      <trkpt lat="47.9214520" lon="12.8663590">
        <ele>427.4400000</ele>
        <time>2010-04-06T12:40:38Z</time>
      </trkpt>
      <trkpt lat="47.9214520" lon="12.8663590">
        <ele>427.4400000</ele>
        <time>2010-04-06T12:40:43Z</time>
      </trkpt>
      <trkpt lat="47.9214520" lon="12.8663590">
        <ele>427.4400000</ele>
        <time>2010-04-06T12:40:48Z</time>
      </trkpt>
      <trkpt lat="47.9214520" lon="12.8663590">
        <ele>426.9600000</ele>
        <time>2010-04-06T12:40:53Z</time>
      </trkpt>
      <trkpt lat="47.9214520" lon="12.8663590">
        <ele>427.4400000</ele>
        <time>2010-04-06T12:40:58Z</time>
      </trkpt>
      <trkpt lat="47.9214520" lon="12.8663590">
        <ele>426.9600000</ele>
        <time>2010-04-06T12:41:03Z</time>
      </trkpt>
      <trkpt lat="47.9214620" lon="12.8663560">
        <ele>426.9600000</ele>
        <time>2010-04-06T12:41:08Z</time>
      </trkpt>
      <trkpt lat="47.9214620" lon="12.8663560">
        <ele>426.9600000</ele>
        <time>2010-04-06T12:41:13Z</time>
      </trkpt>
      <trkpt lat="47.9214620" lon="12.8663560">
        <ele>426.9600000</ele>
        <time>2010-04-06T12:41:18Z</time>
      </trkpt>
      <trkpt lat="47.9214620" lon="12.8663560">
        <ele>426.9600000</ele>
        <time>2010-04-06T12:41:23Z</time>
      </trkpt>
      <trkpt lat="47.9214620" lon="12.8663560">
        <ele>426.4800000</ele>
        <time>2010-04-06T12:41:28Z</time>
      </trkpt>
      <trkpt lat="47.9214670" lon="12.8663590">
        <ele>426.9600000</ele>
        <time>2010-04-06T12:41:33Z</time>
      </trkpt>
      <trkpt lat="47.9214670" lon="12.8663590">
        <ele>426.9600000</ele>
        <time>2010-04-06T12:41:38Z</time>
      </trkpt>
      <trkpt lat="47.9214670" lon="12.8663590">
        <ele>426.9600000</ele>
        <time>2010-04-06T12:41:43Z</time>
      </trkpt>
      <trkpt lat="47.9214670" lon="12.8663590">
        <ele>426.9600000</ele>
        <time>2010-04-06T12:41:48Z</time>
      </trkpt>
      <trkpt lat="47.9214670" lon="12.8663590">
        <ele>427.4400000</ele>
        <time>2010-04-06T12:41:53Z</time>
      </trkpt>
      <trkpt lat="47.9214670" lon="12.8663590">
        <ele>427.4400000</ele>
        <time>2010-04-06T12:41:58Z</time>
      </trkpt>
      <trkpt lat="47.9214670" lon="12.8663590">
        <ele>426.9600000</ele>
        <time>2010-04-06T12:42:03Z</time>
      </trkpt>
      <trkpt lat="47.9214670" lon="12.8663590">
        <ele>427.4400000</ele>
        <time>2010-04-06T12:42:08Z</time>
      </trkpt>
      <trkpt lat="47.9214690" lon="12.8663780">
        <ele>426.9600000</ele>
        <time>2010-04-06T12:42:13Z</time>
      </trkpt>
      <trkpt lat="47.9214770" lon="12.8664590">
        <ele>426.4800000</ele>
        <time>2010-04-06T12:42:18Z</time>
      </trkpt>
      <trkpt lat="47.9214810" lon="12.8665970">
        <ele>426.4800000</ele>
        <time>2010-04-06T12:42:22Z</time>
      </trkpt>
      <trkpt lat="47.9214810" lon="12.8667840">
        <ele>426.0000000</ele>
        <time>2010-04-06T12:42:28Z</time>
      </trkpt>
      <trkpt lat="47.9214670" lon="12.8670340">
        <ele>425.5200000</ele>
        <time>2010-04-06T12:42:34Z</time>
      </trkpt>
      <trkpt lat="47.9216110" lon="12.8672530">
        <ele>425.5200000</ele>
        <time>2010-04-06T12:42:39Z</time>
      </trkpt>
      <trkpt lat="47.9217260" lon="12.8674830">
        <ele>426.0000000</ele>
        <time>2010-04-06T12:42:44Z</time>
      </trkpt>
      <trkpt lat="47.9218230" lon="12.8677510">
        <ele>426.9600000</ele>
        <time>2010-04-06T12:42:49Z</time>
      </trkpt>
      <trkpt lat="47.9219560" lon="12.8680200">
        <ele>426.4800000</ele>
        <time>2010-04-06T12:42:54Z</time>
      </trkpt>
      <trkpt lat="47.9219990" lon="12.8682190">
        <ele>426.9600000</ele>
        <time>2010-04-06T12:42:59Z</time>
      </trkpt>
      <trkpt lat="47.9218410" lon="12.8682830">
        <ele>426.9600000</ele>
        <time>2010-04-06T12:43:04Z</time>
      </trkpt>
      <trkpt lat="47.9216540" lon="12.8683330">
        <ele>426.9600000</ele>
        <time>2010-04-06T12:43:09Z</time>
      </trkpt>
      <trkpt lat="47.9214560" lon="12.8684120">
        <ele>426.9600000</ele>
        <time>2010-04-06T12:43:14Z</time>
      </trkpt>
      <trkpt lat="47.9212630" lon="12.8684880">
        <ele>427.4400000</ele>
        <time>2010-04-06T12:43:19Z</time>
      </trkpt>
      <trkpt lat="47.9210580" lon="12.8685680">
        <ele>427.4400000</ele>
        <time>2010-04-06T12:43:24Z</time>
      </trkpt>
      <trkpt lat="47.9208620" lon="12.8686360">
        <ele>427.4400000</ele>
        <time>2010-04-06T12:43:29Z</time>
      </trkpt>
      <trkpt lat="47.9206640" lon="12.8687000">
        <ele>426.9600000</ele>
        <time>2010-04-06T12:43:34Z</time>
      </trkpt>
      <trkpt lat="47.9204850" lon="12.8687670">
        <ele>426.4800000</ele>
        <time>2010-04-06T12:43:39Z</time>
      </trkpt>
      <trkpt lat="47.9203030" lon="12.8688740">
        <ele>425.5200000</ele>
        <time>2010-04-06T12:43:44Z</time>
      </trkpt>
      <trkpt lat="47.9201450" lon="12.8690790">
        <ele>425.0400000</ele>
        <time>2010-04-06T12:43:49Z</time>
      </trkpt>
      <trkpt lat="47.9199540" lon="12.8693220">
        <ele>424.0800000</ele>
        <time>2010-04-06T12:43:54Z</time>
      </trkpt>
      <trkpt lat="47.9197030" lon="12.8696680">
        <ele>421.1900000</ele>
        <time>2010-04-06T12:43:59Z</time>
      </trkpt>
      <trkpt lat="47.9195000" lon="12.8700180">
        <ele>422.6400000</ele>
        <time>2010-04-06T12:44:04Z</time>
      </trkpt>
      <trkpt lat="47.9193660" lon="12.8702860">
        <ele>424.0800000</ele>
        <time>2010-04-06T12:44:09Z</time>
      </trkpt>
      <trkpt lat="47.9191880" lon="12.8703700">
        <ele>425.5200000</ele>
        <time>2010-04-06T12:44:14Z</time>
      </trkpt>
      <trkpt lat="47.9189720" lon="12.8703160">
        <ele>426.9600000</ele>
        <time>2010-04-06T12:44:19Z</time>
      </trkpt>
      <trkpt lat="47.9187560" lon="12.8702810">
        <ele>426.9600000</ele>
        <time>2010-04-06T12:44:24Z</time>
      </trkpt>
      <trkpt lat="47.9185400" lon="12.8702470">
        <ele>427.9200000</ele>
        <time>2010-04-06T12:44:29Z</time>
      </trkpt>
      <trkpt lat="47.9183130" lon="12.8702240">
        <ele>428.4000000</ele>
        <time>2010-04-06T12:44:34Z</time>
      </trkpt>
      <trkpt lat="47.9180790" lon="12.8702010">
        <ele>428.4000000</ele>
        <time>2010-04-06T12:44:39Z</time>
      </trkpt>
      <trkpt lat="47.9178530" lon="12.8701650">
        <ele>428.4000000</ele>
        <time>2010-04-06T12:44:44Z</time>
      </trkpt>
      <trkpt lat="47.9176260" lon="12.8701380">
        <ele>428.8900000</ele>
        <time>2010-04-06T12:44:49Z</time>
      </trkpt>
      <trkpt lat="47.9174070" lon="12.8701080">
        <ele>428.8900000</ele>
        <time>2010-04-06T12:44:54Z</time>
      </trkpt>
      <trkpt lat="47.9171840" lon="12.8700840">
        <ele>429.8500000</ele>
        <time>2010-04-06T12:44:59Z</time>
      </trkpt>
      <trkpt lat="47.9169700" lon="12.8700490">
        <ele>430.8100000</ele>
        <time>2010-04-06T12:45:04Z</time>
      </trkpt>
      <trkpt lat="47.9167520" lon="12.8700230">
        <ele>431.2900000</ele>
        <time>2010-04-06T12:45:09Z</time>
      </trkpt>
      <trkpt lat="47.9165360" lon="12.8699690">
        <ele>431.7700000</ele>
        <time>2010-04-06T12:45:14Z</time>
      </trkpt>
      <trkpt lat="47.9163290" lon="12.8698710">
        <ele>431.7700000</ele>
        <time>2010-04-06T12:45:19Z</time>
      </trkpt>
      <trkpt lat="47.9161130" lon="12.8696930">
        <ele>431.2900000</ele>
        <time>2010-04-06T12:45:24Z</time>
      </trkpt>
      <trkpt lat="47.9159060" lon="12.8694330">
        <ele>430.3300000</ele>
        <time>2010-04-06T12:45:29Z</time>
      </trkpt>
      <trkpt lat="47.9157040" lon="12.8690740">
        <ele>429.8500000</ele>
        <time>2010-04-06T12:45:34Z</time>
      </trkpt>
      <trkpt lat="47.9154450" lon="12.8687210">
        <ele>428.4000000</ele>
        <time>2010-04-06T12:45:39Z</time>
      </trkpt>
      <trkpt lat="47.9151250" lon="12.8684730">
        <ele>428.4000000</ele>
        <time>2010-04-06T12:45:44Z</time>
      </trkpt>
      <trkpt lat="47.9147790" lon="12.8683810">
        <ele>428.4000000</ele>
        <time>2010-04-06T12:45:49Z</time>
      </trkpt>
      <trkpt lat="47.9144460" lon="12.8684110">
        <ele>429.3700000</ele>
        <time>2010-04-06T12:45:54Z</time>
      </trkpt>
      <trkpt lat="47.9141450" lon="12.8685310">
        <ele>429.8500000</ele>
        <time>2010-04-06T12:45:59Z</time>
      </trkpt>
      <trkpt lat="47.9138770" lon="12.8686600">
        <ele>431.7700000</ele>
        <time>2010-04-06T12:46:04Z</time>
      </trkpt>
      <trkpt lat="47.9136300" lon="12.8687900">
        <ele>432.2500000</ele>
        <time>2010-04-06T12:46:09Z</time>
      </trkpt>
      <trkpt lat="47.9133840" lon="12.8689490">
        <ele>432.7300000</ele>
        <time>2010-04-06T12:46:14Z</time>
      </trkpt>
      <trkpt lat="47.9130820" lon="12.8690610">
        <ele>433.2100000</ele>
        <time>2010-04-06T12:46:19Z</time>
      </trkpt>
      <trkpt lat="47.9128090" lon="12.8691520">
        <ele>433.2100000</ele>
        <time>2010-04-06T12:46:24Z</time>
      </trkpt>
      <trkpt lat="47.9125440" lon="12.8692710">
        <ele>433.2100000</ele>
        <time>2010-04-06T12:46:29Z</time>
      </trkpt>
      <trkpt lat="47.9122710" lon="12.8693950">
        <ele>432.7300000</ele>
        <time>2010-04-06T12:46:34Z</time>
      </trkpt>
      <trkpt lat="47.9119680" lon="12.8695360">
        <ele>431.7700000</ele>
        <time>2010-04-06T12:46:39Z</time>
      </trkpt>
      <trkpt lat="47.9116560" lon="12.8697520">
        <ele>430.8100000</ele>
        <time>2010-04-06T12:46:44Z</time>
      </trkpt>
      <trkpt lat="47.9113690" lon="12.8700490">
        <ele>429.3700000</ele>
        <time>2010-04-06T12:46:49Z</time>
      </trkpt>
      <trkpt lat="47.9111340" lon="12.8704390">
        <ele>428.8900000</ele>
        <time>2010-04-06T12:46:54Z</time>
      </trkpt>
      <trkpt lat="47.9109440" lon="12.8708890">
        <ele>427.9200000</ele>
        <time>2010-04-06T12:46:59Z</time>
      </trkpt>
      <trkpt lat="47.9108270" lon="12.8713910">
        <ele>427.4400000</ele>
        <time>2010-04-06T12:47:04Z</time>
      </trkpt>
      <trkpt lat="47.9107570" lon="12.8718880">
        <ele>427.4400000</ele>
        <time>2010-04-06T12:47:09Z</time>
      </trkpt>
      <trkpt lat="47.9106020" lon="12.8722650">
        <ele>428.4000000</ele>
        <time>2010-04-06T12:47:14Z</time>
      </trkpt>
      <trkpt lat="47.9104510" lon="12.8724580">
        <ele>429.8500000</ele>
        <time>2010-04-06T12:47:19Z</time>
      </trkpt>
      <trkpt lat="47.9103310" lon="12.8726340">
        <ele>429.3700000</ele>
        <time>2010-04-06T12:47:24Z</time>
      </trkpt>
      <trkpt lat="47.9102300" lon="12.8728380">
        <ele>428.8900000</ele>
        <time>2010-04-06T12:47:29Z</time>
      </trkpt>
      <trkpt lat="47.9101500" lon="12.8730600">
        <ele>428.8900000</ele>
        <time>2010-04-06T12:47:34Z</time>
      </trkpt>
      <trkpt lat="47.9099940" lon="12.8731450">
        <ele>429.3700000</ele>
        <time>2010-04-06T12:47:39Z</time>
      </trkpt>
      <trkpt lat="47.9097480" lon="12.8732060">
        <ele>427.9200000</ele>
        <time>2010-04-06T12:47:44Z</time>
      </trkpt>
      <trkpt lat="47.9094770" lon="12.8733490">
        <ele>427.9200000</ele>
        <time>2010-04-06T12:47:49Z</time>
      </trkpt>
      <trkpt lat="47.9091910" lon="12.8735120">
        <ele>427.9200000</ele>
        <time>2010-04-06T12:47:54Z</time>
      </trkpt>
      <trkpt lat="47.9089050" lon="12.8736970">
        <ele>427.4400000</ele>
        <time>2010-04-06T12:47:59Z</time>
      </trkpt>
      <trkpt lat="47.9086340" lon="12.8739240">
        <ele>426.9600000</ele>
        <time>2010-04-06T12:48:04Z</time>
      </trkpt>
      <trkpt lat="47.9083900" lon="12.8741960">
        <ele>426.9600000</ele>
        <time>2010-04-06T12:48:09Z</time>
      </trkpt>
      <trkpt lat="47.9081440" lon="12.8744880">
        <ele>426.4800000</ele>
        <time>2010-04-06T12:48:14Z</time>
      </trkpt>
      <trkpt lat="47.9078990" lon="12.8747830">
        <ele>426.0000000</ele>
        <time>2010-04-06T12:48:19Z</time>
      </trkpt>
      <trkpt lat="47.9076510" lon="12.8751240">
        <ele>424.5600000</ele>
        <time>2010-04-06T12:48:24Z</time>
      </trkpt>
      <trkpt lat="47.9074210" lon="12.8755250">
        <ele>424.0800000</ele>
        <time>2010-04-06T12:48:29Z</time>
      </trkpt>
      <trkpt lat="47.9071820" lon="12.8758960">
        <ele>424.5600000</ele>
        <time>2010-04-06T12:48:34Z</time>
      </trkpt>
      <trkpt lat="47.9068990" lon="12.8761490">
        <ele>424.5600000</ele>
        <time>2010-04-06T12:48:39Z</time>
      </trkpt>
      <trkpt lat="47.9065660" lon="12.8763030">
        <ele>424.0800000</ele>
        <time>2010-04-06T12:48:44Z</time>
      </trkpt>
      <trkpt lat="47.9061940" lon="12.8763100">
        <ele>422.6400000</ele>
        <time>2010-04-06T12:48:49Z</time>
      </trkpt>
      <trkpt lat="47.9058310" lon="12.8762530">
        <ele>422.1600000</ele>
        <time>2010-04-06T12:48:54Z</time>
      </trkpt>
      <trkpt lat="47.9054710" lon="12.8761850">
        <ele>423.1200000</ele>
        <time>2010-04-06T12:48:59Z</time>
      </trkpt>
      <trkpt lat="47.9051370" lon="12.8761210">
        <ele>422.6400000</ele>
        <time>2010-04-06T12:49:04Z</time>
      </trkpt>
      <trkpt lat="47.9048190" lon="12.8760630">
        <ele>423.6000000</ele>
        <time>2010-04-06T12:49:09Z</time>
      </trkpt>
      <trkpt lat="47.9045150" lon="12.8760130">
        <ele>423.1200000</ele>
        <time>2010-04-06T12:49:14Z</time>
      </trkpt>
      <trkpt lat="47.9042310" lon="12.8759930">
        <ele>424.0800000</ele>
        <time>2010-04-06T12:49:19Z</time>
      </trkpt>
      <trkpt lat="47.9039590" lon="12.8760120">
        <ele>425.5200000</ele>
        <time>2010-04-06T12:49:24Z</time>
      </trkpt>
      <trkpt lat="47.9036970" lon="12.8760400">
        <ele>426.4800000</ele>
        <time>2010-04-06T12:49:29Z</time>
      </trkpt>
      <trkpt lat="47.9034260" lon="12.8760720">
        <ele>426.0000000</ele>
        <time>2010-04-06T12:49:34Z</time>
      </trkpt>
      <trkpt lat="47.9031370" lon="12.8761060">
        <ele>425.5200000</ele>
        <time>2010-04-06T12:49:39Z</time>
      </trkpt>
      <trkpt lat="47.9028280" lon="12.8761360">
        <ele>425.5200000</ele>
        <time>2010-04-06T12:49:44Z</time>
      </trkpt>
      <trkpt lat="47.9025400" lon="12.8760710">
        <ele>426.0000000</ele>
        <time>2010-04-06T12:49:49Z</time>
      </trkpt>
      <trkpt lat="47.9022760" lon="12.8759160">
        <ele>426.4800000</ele>
        <time>2010-04-06T12:49:54Z</time>
      </trkpt>
      <trkpt lat="47.9020300" lon="12.8757450">
        <ele>426.4800000</ele>
        <time>2010-04-06T12:49:59Z</time>
      </trkpt>
      <trkpt lat="47.9019810" lon="12.8753850">
        <ele>426.4800000</ele>
        <time>2010-04-06T12:50:04Z</time>
      </trkpt>
      <trkpt lat="47.9020060" lon="12.8749800">
        <ele>426.4800000</ele>
        <time>2010-04-06T12:50:09Z</time>
      </trkpt>
      <trkpt lat="47.9020360" lon="12.8746290">
        <ele>427.9200000</ele>
        <time>2010-04-06T12:50:14Z</time>
      </trkpt>
      <trkpt lat="47.9020820" lon="12.8743000">
        <ele>428.8900000</ele>
        <time>2010-04-06T12:50:19Z</time>
      </trkpt>
      <trkpt lat="47.9021370" lon="12.8739630">
        <ele>428.8900000</ele>
        <time>2010-04-06T12:50:24Z</time>
      </trkpt>
      <trkpt lat="47.9021970" lon="12.8736350">
        <ele>429.3700000</ele>
        <time>2010-04-06T12:50:29Z</time>
      </trkpt>
      <trkpt lat="47.9021440" lon="12.8733350">
        <ele>429.8500000</ele>
        <time>2010-04-06T12:50:34Z</time>
      </trkpt>
      <trkpt lat="47.9019380" lon="12.8731760">
        <ele>429.8500000</ele>
        <time>2010-04-06T12:50:39Z</time>
      </trkpt>
      <trkpt lat="47.9017040" lon="12.8730700">
        <ele>430.3300000</ele>
        <time>2010-04-06T12:50:44Z</time>
      </trkpt>
      <trkpt lat="47.9014580" lon="12.8730000">
        <ele>430.8100000</ele>
        <time>2010-04-06T12:50:49Z</time>
      </trkpt>
      <trkpt lat="47.9012220" lon="12.8729400">
        <ele>430.8100000</ele>
        <time>2010-04-06T12:50:54Z</time>
      </trkpt>
      <trkpt lat="47.9009820" lon="12.8728500">
        <ele>430.8100000</ele>
        <time>2010-04-06T12:50:59Z</time>
      </trkpt>
      <trkpt lat="47.9007460" lon="12.8727530">
        <ele>431.2900000</ele>
        <time>2010-04-06T12:51:04Z</time>
      </trkpt>
      <trkpt lat="47.9005090" lon="12.8726530">
        <ele>431.7700000</ele>
        <time>2010-04-06T12:51:09Z</time>
      </trkpt>
      <trkpt lat="47.9002700" lon="12.8725460">
        <ele>431.2900000</ele>
        <time>2010-04-06T12:51:14Z</time>
      </trkpt>
      <trkpt lat="47.9000240" lon="12.8724320">
        <ele>431.2900000</ele>
        <time>2010-04-06T12:51:19Z</time>
      </trkpt>
      <trkpt lat="47.8997830" lon="12.8723210">
        <ele>431.7700000</ele>
        <time>2010-04-06T12:51:24Z</time>
      </trkpt>
      <trkpt lat="47.8995610" lon="12.8721420">
        <ele>431.2900000</ele>
        <time>2010-04-06T12:51:29Z</time>
      </trkpt>
      <trkpt lat="47.8994630" lon="12.8718380">
        <ele>431.2900000</ele>
        <time>2010-04-06T12:51:34Z</time>
      </trkpt>
      <trkpt lat="47.8995560" lon="12.8715260">
        <ele>431.7700000</ele>
        <time>2010-04-06T12:51:39Z</time>
      </trkpt>
      <trkpt lat="47.8996580" lon="12.8712690">
        <ele>432.2500000</ele>
        <time>2010-04-06T12:51:44Z</time>
      </trkpt>
      <trkpt lat="47.8997270" lon="12.8710490">
        <ele>432.7300000</ele>
        <time>2010-04-06T12:51:49Z</time>
      </trkpt>
      <trkpt lat="47.8997470" lon="12.8709170">
        <ele>433.2100000</ele>
        <time>2010-04-06T12:51:54Z</time>
      </trkpt>
      <trkpt lat="47.8997430" lon="12.8709040">
        <ele>433.2100000</ele>
        <time>2010-04-06T12:51:59Z</time>
      </trkpt>
      <trkpt lat="47.8997480" lon="12.8709640">
        <ele>433.6900000</ele>
        <time>2010-04-06T12:52:04Z</time>
      </trkpt>
      <trkpt lat="47.8997060" lon="12.8711810">
        <ele>432.7300000</ele>
        <time>2010-04-06T12:52:09Z</time>
      </trkpt>
      <trkpt lat="47.8995940" lon="12.8714670">
        <ele>432.2500000</ele>
        <time>2010-04-06T12:52:14Z</time>
      </trkpt>
      <trkpt lat="47.8994890" lon="12.8715120">
        <ele>432.7300000</ele>
        <time>2010-04-06T12:52:19Z</time>
      </trkpt>
      <trkpt lat="47.8993260" lon="12.8714270">
        <ele>432.2500000</ele>
        <time>2010-04-06T12:52:24Z</time>
      </trkpt>
      <trkpt lat="47.8991450" lon="12.8713400">
        <ele>431.2900000</ele>
        <time>2010-04-06T12:52:29Z</time>
      </trkpt>
      <trkpt lat="47.8989770" lon="12.8712160">
        <ele>432.2500000</ele>
        <time>2010-04-06T12:52:34Z</time>
      </trkpt>
      <trkpt lat="47.8988350" lon="12.8710720">
        <ele>432.2500000</ele>
        <time>2010-04-06T12:52:39Z</time>
      </trkpt>
      <trkpt lat="47.8987120" lon="12.8709270">
        <ele>432.2500000</ele>
        <time>2010-04-06T12:52:44Z</time>
      </trkpt>
      <trkpt lat="47.8986110" lon="12.8707930">
        <ele>432.2500000</ele>
        <time>2010-04-06T12:52:49Z</time>
      </trkpt>
      <trkpt lat="47.8985140" lon="12.8707680">
        <ele>432.2500000</ele>
        <time>2010-04-06T12:52:54Z</time>
      </trkpt>
      <trkpt lat="47.8984240" lon="12.8709120">
        <ele>432.7300000</ele>
        <time>2010-04-06T12:52:59Z</time>
      </trkpt>
      <trkpt lat="47.8983540" lon="12.8711030">
        <ele>432.7300000</ele>
        <time>2010-04-06T12:53:04Z</time>
      </trkpt>
      <trkpt lat="47.8982570" lon="12.8712520">
        <ele>432.7300000</ele>
        <time>2010-04-06T12:53:09Z</time>
      </trkpt>
      <trkpt lat="47.8981280" lon="12.8713310">
        <ele>433.2100000</ele>
        <time>2010-04-06T12:53:14Z</time>
      </trkpt>
      <trkpt lat="47.8980140" lon="12.8714280">
        <ele>433.2100000</ele>
        <time>2010-04-06T12:53:19Z</time>
      </trkpt>
      <trkpt lat="47.8978850" lon="12.8715520">
        <ele>433.2100000</ele>
        <time>2010-04-06T12:53:24Z</time>
      </trkpt>
      <trkpt lat="47.8977490" lon="12.8717080">
        <ele>433.6900000</ele>
        <time>2010-04-06T12:53:29Z</time>
      </trkpt>
      <trkpt lat="47.8976740" lon="12.8718350">
        <ele>433.6900000</ele>
        <time>2010-04-06T12:53:34Z</time>
      </trkpt>
      <trkpt lat="47.8975970" lon="12.8719440">
        <ele>434.6500000</ele>
        <time>2010-04-06T12:53:39Z</time>
      </trkpt>
      <trkpt lat="47.8975480" lon="12.8720350">
        <ele>435.1300000</ele>
        <time>2010-04-06T12:53:44Z</time>
      </trkpt>
      <trkpt lat="47.8974950" lon="12.8721100">
        <ele>436.5800000</ele>
        <time>2010-04-06T12:53:49Z</time>
      </trkpt>
      <trkpt lat="47.8974030" lon="12.8722280">
        <ele>437.5400000</ele>
        <time>2010-04-06T12:53:54Z</time>
      </trkpt>
      <trkpt lat="47.8972850" lon="12.8723750">
        <ele>438.0200000</ele>
        <time>2010-04-06T12:53:59Z</time>
      </trkpt>
      <trkpt lat="47.8971810" lon="12.8725350">
        <ele>438.5000000</ele>
        <time>2010-04-06T12:54:04Z</time>
      </trkpt>
      <trkpt lat="47.8970530" lon="12.8726600">
        <ele>438.5000000</ele>
        <time>2010-04-06T12:54:09Z</time>
      </trkpt>
      <trkpt lat="47.8969500" lon="12.8727390">
        <ele>439.9400000</ele>
        <time>2010-04-06T12:54:14Z</time>
      </trkpt>
      <trkpt lat="47.8968360" lon="12.8728040">
        <ele>440.4200000</ele>
        <time>2010-04-06T12:54:19Z</time>
      </trkpt>
      <trkpt lat="47.8967170" lon="12.8728750">
        <ele>440.9000000</ele>
        <time>2010-04-06T12:54:24Z</time>
      </trkpt>
      <trkpt lat="47.8966120" lon="12.8729660">
        <ele>440.9000000</ele>
        <time>2010-04-06T12:54:29Z</time>
      </trkpt>
      <trkpt lat="47.8964950" lon="12.8730550">
        <ele>440.9000000</ele>
        <time>2010-04-06T12:54:34Z</time>
      </trkpt>
      <trkpt lat="47.8963620" lon="12.8731400">
        <ele>439.9400000</ele>
        <time>2010-04-06T12:54:39Z</time>
      </trkpt>
      <trkpt lat="47.8962060" lon="12.8732590">
        <ele>440.4200000</ele>
        <time>2010-04-06T12:54:44Z</time>
      </trkpt>
      <trkpt lat="47.8960680" lon="12.8733710">
        <ele>439.9400000</ele>
        <time>2010-04-06T12:54:49Z</time>
      </trkpt>
      <trkpt lat="47.8959520" lon="12.8734830">
        <ele>439.9400000</ele>
        <time>2010-04-06T12:54:54Z</time>
      </trkpt>
      <trkpt lat="47.8958570" lon="12.8735550">
        <ele>439.9400000</ele>
        <time>2010-04-06T12:54:59Z</time>
      </trkpt>
      <trkpt lat="47.8957370" lon="12.8736280">
        <ele>439.4600000</ele>
        <time>2010-04-06T12:55:04Z</time>
      </trkpt>
      <trkpt lat="47.8956730" lon="12.8736620">
        <ele>439.4600000</ele>
        <time>2010-04-06T12:55:09Z</time>
      </trkpt>
      <trkpt lat="47.8956240" lon="12.8736830">
        <ele>439.4600000</ele>
        <time>2010-04-06T12:55:14Z</time>
      </trkpt>
      <trkpt lat="47.8955390" lon="12.8737150">
        <ele>438.9800000</ele>
        <time>2010-04-06T12:55:19Z</time>
      </trkpt>
      <trkpt lat="47.8954220" lon="12.8737150">
        <ele>437.5400000</ele>
        <time>2010-04-06T12:55:24Z</time>
      </trkpt>
      <trkpt lat="47.8953020" lon="12.8737160">
        <ele>437.0600000</ele>
        <time>2010-04-06T12:55:29Z</time>
      </trkpt>
      <trkpt lat="47.8951850" lon="12.8737490">
        <ele>437.0600000</ele>
        <time>2010-04-06T12:55:34Z</time>
      </trkpt>
      <trkpt lat="47.8950530" lon="12.8737540">
        <ele>437.5400000</ele>
        <time>2010-04-06T12:55:39Z</time>
      </trkpt>
      <trkpt lat="47.8948900" lon="12.8738370">
        <ele>437.5400000</ele>
        <time>2010-04-06T12:55:45Z</time>
      </trkpt>
      <trkpt lat="47.8947800" lon="12.8738700">
        <ele>437.5400000</ele>
        <time>2010-04-06T12:55:50Z</time>
      </trkpt>
      <trkpt lat="47.8946570" lon="12.8738800">
        <ele>438.0200000</ele>
        <time>2010-04-06T12:55:55Z</time>
      </trkpt>
      <trkpt lat="47.8945730" lon="12.8738760">
        <ele>438.0200000</ele>
        <time>2010-04-06T12:56:00Z</time>
      </trkpt>
      <trkpt lat="47.8945210" lon="12.8738670">
        <ele>437.5400000</ele>
        <time>2010-04-06T12:56:05Z</time>
      </trkpt>
      <trkpt lat="47.8944470" lon="12.8738920">
        <ele>437.0600000</ele>
        <time>2010-04-06T12:56:10Z</time>
      </trkpt>
      <trkpt lat="47.8943470" lon="12.8739130">
        <ele>436.1000000</ele>
        <time>2010-04-06T12:56:15Z</time>
      </trkpt>
      <trkpt lat="47.8942650" lon="12.8738800">
        <ele>436.5800000</ele>
        <time>2010-04-06T12:56:20Z</time>
      </trkpt>
      <trkpt lat="47.8941850" lon="12.8738030">
        <ele>436.1000000</ele>
        <time>2010-04-06T12:56:25Z</time>
      </trkpt>
      <trkpt lat="47.8941600" lon="12.8737140">
        <ele>436.1000000</ele>
        <time>2010-04-06T12:56:30Z</time>
      </trkpt>
      <trkpt lat="47.8941540" lon="12.8736080">
        <ele>436.1000000</ele>
        <time>2010-04-06T12:56:35Z</time>
      </trkpt>
      <trkpt lat="47.8941550" lon="12.8735140">
        <ele>436.1000000</ele>
        <time>2010-04-06T12:56:40Z</time>
      </trkpt>
      <trkpt lat="47.8941920" lon="12.8734230">
        <ele>436.5800000</ele>
        <time>2010-04-06T12:56:45Z</time>
      </trkpt>
      <trkpt lat="47.8942280" lon="12.8732920">
        <ele>436.5800000</ele>
        <time>2010-04-06T12:56:50Z</time>
      </trkpt>
      <trkpt lat="47.8942620" lon="12.8731300">
        <ele>436.5800000</ele>
        <time>2010-04-06T12:56:55Z</time>
      </trkpt>
      <trkpt lat="47.8943150" lon="12.8729720">
        <ele>436.5800000</ele>
        <time>2010-04-06T12:57:00Z</time>
      </trkpt>
      <trkpt lat="47.8943690" lon="12.8728030">
        <ele>437.0600000</ele>
        <time>2010-04-06T12:57:05Z</time>
      </trkpt>
      <trkpt lat="47.8944270" lon="12.8726550">
        <ele>437.0600000</ele>
        <time>2010-04-06T12:57:10Z</time>
      </trkpt>
      <trkpt lat="47.8944900" lon="12.8725120">
        <ele>437.5400000</ele>
        <time>2010-04-06T12:57:15Z</time>
      </trkpt>
      <trkpt lat="47.8945170" lon="12.8724440">
        <ele>437.0600000</ele>
        <time>2010-04-06T12:57:20Z</time>
      </trkpt>
      <trkpt lat="47.8945170" lon="12.8724440">
        <ele>437.0600000</ele>
        <time>2010-04-06T12:57:25Z</time>
      </trkpt>
      <trkpt lat="47.8945180" lon="12.8724470">
        <ele>437.0600000</ele>
        <time>2010-04-06T12:57:30Z</time>
      </trkpt>
      <trkpt lat="47.8945180" lon="12.8724470">
        <ele>437.5400000</ele>
        <time>2010-04-06T12:57:35Z</time>
      </trkpt>
      <trkpt lat="47.8945180" lon="12.8724470">
        <ele>437.5400000</ele>
        <time>2010-04-06T12:57:40Z</time>
      </trkpt>
      <trkpt lat="47.8945180" lon="12.8724350">
        <ele>437.5400000</ele>
        <time>2010-04-06T12:57:45Z</time>
      </trkpt>
      <trkpt lat="47.8945180" lon="12.8724350">
        <ele>437.0600000</ele>
        <time>2010-04-06T12:57:50Z</time>
      </trkpt>
      <trkpt lat="47.8945180" lon="12.8724350">
        <ele>437.0600000</ele>
        <time>2010-04-06T12:57:55Z</time>
      </trkpt>
      <trkpt lat="47.8945370" lon="12.8723990">
        <ele>436.5800000</ele>
        <time>2010-04-06T12:58:00Z</time>
      </trkpt>
      <trkpt lat="47.8945940" lon="12.8722860">
        <ele>437.0600000</ele>
        <time>2010-04-06T12:58:05Z</time>
      </trkpt>
      <trkpt lat="47.8946680" lon="12.8721240">
        <ele>437.0600000</ele>
        <time>2010-04-06T12:58:10Z</time>
      </trkpt>
      <trkpt lat="47.8947710" lon="12.8719640">
        <ele>437.0600000</ele>
        <time>2010-04-06T12:58:15Z</time>
      </trkpt>
      <trkpt lat="47.8948490" lon="12.8718460">
        <ele>437.0600000</ele>
        <time>2010-04-06T12:58:20Z</time>
      </trkpt>
      <trkpt lat="47.8949330" lon="12.8716860">
        <ele>437.0600000</ele>
        <time>2010-04-06T12:58:25Z</time>
      </trkpt>
      <trkpt lat="47.8950320" lon="12.8715480">
        <ele>436.5800000</ele>
        <time>2010-04-06T12:58:30Z</time>
      </trkpt>
      <trkpt lat="47.8951090" lon="12.8713990">
        <ele>436.5800000</ele>
        <time>2010-04-06T12:58:35Z</time>
      </trkpt>
      <trkpt lat="47.8951860" lon="12.8712840">
        <ele>437.5400000</ele>
        <time>2010-04-06T12:58:40Z</time>
      </trkpt>
      <trkpt lat="47.8952510" lon="12.8711610">
        <ele>437.0600000</ele>
        <time>2010-04-06T12:58:45Z</time>
      </trkpt>
      <trkpt lat="47.8953270" lon="12.8710390">
        <ele>437.0600000</ele>
        <time>2010-04-06T12:58:50Z</time>
      </trkpt>
      <trkpt lat="47.8954070" lon="12.8709340">
        <ele>437.5400000</ele>
        <time>2010-04-06T12:58:55Z</time>
      </trkpt>
      <trkpt lat="47.8955260" lon="12.8709400">
        <ele>437.0600000</ele>
        <time>2010-04-06T12:59:00Z</time>
      </trkpt>
      <trkpt lat="47.8956050" lon="12.8708010">
        <ele>437.0600000</ele>
        <time>2010-04-06T12:59:05Z</time>
      </trkpt>
      <trkpt lat="47.8956780" lon="12.8706370">
        <ele>437.0600000</ele>
        <time>2010-04-06T12:59:10Z</time>
      </trkpt>
      <trkpt lat="47.8957730" lon="12.8705180">
        <ele>437.0600000</ele>
        <time>2010-04-06T12:59:15Z</time>
      </trkpt>
      <trkpt lat="47.8958710" lon="12.8704190">
        <ele>437.5400000</ele>
        <time>2010-04-06T12:59:20Z</time>
      </trkpt>
      <trkpt lat="47.8959670" lon="12.8703040">
        <ele>437.0600000</ele>
        <time>2010-04-06T12:59:25Z</time>
      </trkpt>
      <trkpt lat="47.8960570" lon="12.8701800">
        <ele>437.0600000</ele>
        <time>2010-04-06T12:59:30Z</time>
      </trkpt>
      <trkpt lat="47.8961400" lon="12.8700840">
        <ele>437.0600000</ele>
        <time>2010-04-06T12:59:35Z</time>
      </trkpt>
      <trkpt lat="47.8962260" lon="12.8699840">
        <ele>437.0600000</ele>
        <time>2010-04-06T12:59:40Z</time>
      </trkpt>
      <trkpt lat="47.8963210" lon="12.8699040">
        <ele>437.0600000</ele>
        <time>2010-04-06T12:59:45Z</time>
      </trkpt>
      <trkpt lat="47.8964200" lon="12.8698260">
        <ele>437.5400000</ele>
        <time>2010-04-06T12:59:50Z</time>
      </trkpt>
      <trkpt lat="47.8964950" lon="12.8697510">
        <ele>437.5400000</ele>
        <time>2010-04-06T12:59:55Z</time>
      </trkpt>
      <trkpt lat="47.8965880" lon="12.8696890">
        <ele>437.0600000</ele>
        <time>2010-04-06T13:00:00Z</time>
      </trkpt>
      <trkpt lat="47.8967020" lon="12.8695820">
        <ele>437.0600000</ele>
        <time>2010-04-06T13:00:05Z</time>
      </trkpt>
      <trkpt lat="47.8967840" lon="12.8694570">
        <ele>437.5400000</ele>
        <time>2010-04-06T13:00:10Z</time>
      </trkpt>
      <trkpt lat="47.8968060" lon="12.8694210">
        <ele>437.0600000</ele>
        <time>2010-04-06T13:00:15Z</time>
      </trkpt>
      <trkpt lat="47.8968060" lon="12.8694210">
        <ele>437.0600000</ele>
        <time>2010-04-06T13:00:20Z</time>
      </trkpt>
      <trkpt lat="47.8967990" lon="12.8694000">
        <ele>436.5800000</ele>
        <time>2010-04-06T13:00:25Z</time>
      </trkpt>
      <trkpt lat="47.8967500" lon="12.8693510">
        <ele>437.0600000</ele>
        <time>2010-04-06T13:00:30Z</time>
      </trkpt>
      <trkpt lat="47.8967100" lon="12.8692840">
        <ele>437.0600000</ele>
        <time>2010-04-06T13:00:35Z</time>
      </trkpt>
      <trkpt lat="47.8967250" lon="12.8690730">
        <ele>436.5800000</ele>
        <time>2010-04-06T13:00:40Z</time>
      </trkpt>
      <trkpt lat="47.8967920" lon="12.8688920">
        <ele>436.1000000</ele>
        <time>2010-04-06T13:00:45Z</time>
      </trkpt>
      <trkpt lat="47.8968850" lon="12.8687620">
        <ele>437.0600000</ele>
        <time>2010-04-06T13:00:50Z</time>
      </trkpt>
      <trkpt lat="47.8969670" lon="12.8686110">
        <ele>436.1000000</ele>
        <time>2010-04-06T13:00:55Z</time>
      </trkpt>
      <trkpt lat="47.8970080" lon="12.8684520">
        <ele>436.1000000</ele>
        <time>2010-04-06T13:01:00Z</time>
      </trkpt>
      <trkpt lat="47.8970420" lon="12.8682890">
        <ele>436.5800000</ele>
        <time>2010-04-06T13:01:05Z</time>
      </trkpt>
      <trkpt lat="47.8971330" lon="12.8682040">
        <ele>436.1000000</ele>
        <time>2010-04-06T13:01:10Z</time>
      </trkpt>
      <trkpt lat="47.8971940" lon="12.8682180">
        <ele>436.1000000</ele>
        <time>2010-04-06T13:01:15Z</time>
      </trkpt>
      <trkpt lat="47.8972630" lon="12.8682550">
        <ele>436.5800000</ele>
        <time>2010-04-06T13:01:20Z</time>
      </trkpt>
      <trkpt lat="47.8973390" lon="12.8682530">
        <ele>436.1000000</ele>
        <time>2010-04-06T13:01:25Z</time>
      </trkpt>
      <trkpt lat="47.8974040" lon="12.8682550">
        <ele>435.1300000</ele>
        <time>2010-04-06T13:01:30Z</time>
      </trkpt>
      <trkpt lat="47.8974240" lon="12.8682550">
        <ele>432.7300000</ele>
        <time>2010-04-06T13:01:35Z</time>
      </trkpt>
      <trkpt lat="47.8974240" lon="12.8682550">
        <ele>436.1000000</ele>
        <time>2010-04-06T13:01:40Z</time>
      </trkpt>
      <trkpt lat="47.8974240" lon="12.8682550">
        <ele>436.1000000</ele>
        <time>2010-04-06T13:01:45Z</time>
      </trkpt>
      <trkpt lat="47.8974240" lon="12.8682550">
        <ele>436.1000000</ele>
        <time>2010-04-06T13:01:50Z</time>
      </trkpt>
      <trkpt lat="47.8974240" lon="12.8682550">
        <ele>436.1000000</ele>
        <time>2010-04-06T13:01:55Z</time>
      </trkpt>
      <trkpt lat="47.8974730" lon="12.8682650">
        <ele>435.6100000</ele>
        <time>2010-04-06T13:02:00Z</time>
      </trkpt>
      <trkpt lat="47.8974920" lon="12.8683050">
        <ele>436.1000000</ele>
        <time>2010-04-06T13:02:05Z</time>
      </trkpt>
      <trkpt lat="47.8975490" lon="12.8682810">
        <ele>435.6100000</ele>
        <time>2010-04-06T13:02:10Z</time>
      </trkpt>
      <trkpt lat="47.8975860" lon="12.8682770">
        <ele>435.6100000</ele>
        <time>2010-04-06T13:02:15Z</time>
      </trkpt>
      <trkpt lat="47.8975960" lon="12.8683020">
        <ele>435.6100000</ele>
        <time>2010-04-06T13:02:20Z</time>
      </trkpt>
      <trkpt lat="47.8976490" lon="12.8683440">
        <ele>435.6100000</ele>
        <time>2010-04-06T13:02:25Z</time>
      </trkpt>
      <trkpt lat="47.8977070" lon="12.8683780">
        <ele>435.1300000</ele>
        <time>2010-04-06T13:02:30Z</time>
      </trkpt>
      <trkpt lat="47.8977210" lon="12.8684030">
        <ele>434.6500000</ele>
        <time>2010-04-06T13:02:35Z</time>
      </trkpt>
      <trkpt lat="47.8977550" lon="12.8684200">
        <ele>434.6500000</ele>
        <time>2010-04-06T13:02:40Z</time>
      </trkpt>
      <trkpt lat="47.8977600" lon="12.8684170">
        <ele>434.1700000</ele>
        <time>2010-04-06T13:02:45Z</time>
      </trkpt>
      <trkpt lat="47.8977720" lon="12.8684180">
        <ele>434.1700000</ele>
        <time>2010-04-06T13:02:50Z</time>
      </trkpt>
      <trkpt lat="47.8978430" lon="12.8684350">
        <ele>433.2100000</ele>
        <time>2010-04-06T13:02:55Z</time>
      </trkpt>
      <trkpt lat="47.8979350" lon="12.8684270">
        <ele>433.2100000</ele>
        <time>2010-04-06T13:03:00Z</time>
      </trkpt>
      <trkpt lat="47.8980080" lon="12.8683970">
        <ele>433.2100000</ele>
        <time>2010-04-06T13:03:05Z</time>
      </trkpt>
      <trkpt lat="47.8980520" lon="12.8683860">
        <ele>432.7300000</ele>
        <time>2010-04-06T13:03:10Z</time>
      </trkpt>
      <trkpt lat="47.8981060" lon="12.8684070">
        <ele>432.7300000</ele>
        <time>2010-04-06T13:03:15Z</time>
      </trkpt>
      <trkpt lat="47.8981640" lon="12.8684560">
        <ele>432.7300000</ele>
        <time>2010-04-06T13:03:20Z</time>
      </trkpt>
      <trkpt lat="47.8982090" lon="12.8684920">
        <ele>432.7300000</ele>
        <time>2010-04-06T13:03:25Z</time>
      </trkpt>
      <trkpt lat="47.8982730" lon="12.8685220">
        <ele>433.2100000</ele>
        <time>2010-04-06T13:03:30Z</time>
      </trkpt>
      <trkpt lat="47.8983430" lon="12.8685250">
        <ele>433.2100000</ele>
        <time>2010-04-06T13:03:35Z</time>
      </trkpt>
      <trkpt lat="47.8983990" lon="12.8685300">
        <ele>432.7300000</ele>
        <time>2010-04-06T13:03:40Z</time>
      </trkpt>
      <trkpt lat="47.8984590" lon="12.8685050">
        <ele>432.2500000</ele>
        <time>2010-04-06T13:03:45Z</time>
      </trkpt>
      <trkpt lat="47.8984970" lon="12.8684570">
        <ele>432.2500000</ele>
        <time>2010-04-06T13:03:50Z</time>
      </trkpt>
      <trkpt lat="47.8985270" lon="12.8684200">
        <ele>432.7300000</ele>
        <time>2010-04-06T13:03:55Z</time>
      </trkpt>
      <trkpt lat="47.8985060" lon="12.8684760">
        <ele>431.7700000</ele>
        <time>2010-04-06T13:04:00Z</time>
      </trkpt>
      <trkpt lat="47.8984970" lon="12.8685440">
        <ele>432.2500000</ele>
        <time>2010-04-06T13:04:05Z</time>
      </trkpt>
      <trkpt lat="47.8985020" lon="12.8685620">
        <ele>432.7300000</ele>
        <time>2010-04-06T13:04:10Z</time>
      </trkpt>
      <trkpt lat="47.8984850" lon="12.8686360">
        <ele>432.2500000</ele>
        <time>2010-04-06T13:04:15Z</time>
      </trkpt>
      <trkpt lat="47.8984940" lon="12.8687100">
        <ele>432.7300000</ele>
        <time>2010-04-06T13:04:20Z</time>
      </trkpt>
      <trkpt lat="47.8984950" lon="12.8687940">
        <ele>432.7300000</ele>
        <time>2010-04-06T13:04:25Z</time>
      </trkpt>
      <trkpt lat="47.8985070" lon="12.8688040">
        <ele>433.2100000</ele>
        <time>2010-04-06T13:04:30Z</time>
      </trkpt>
      <trkpt lat="47.8985120" lon="12.8688070">
        <ele>432.2500000</ele>
        <time>2010-04-06T13:04:35Z</time>
      </trkpt>
      <trkpt lat="47.8985330" lon="12.8688010">
        <ele>432.2500000</ele>
        <time>2010-04-06T13:04:40Z</time>
      </trkpt>
      <trkpt lat="47.8985550" lon="12.8688300">
        <ele>432.7300000</ele>
        <time>2010-04-06T13:04:45Z</time>
      </trkpt>
      <trkpt lat="47.8985550" lon="12.8688300">
        <ele>431.7700000</ele>
        <time>2010-04-06T13:04:50Z</time>
      </trkpt>
      <trkpt lat="47.8985550" lon="12.8688300">
        <ele>431.7700000</ele>
        <time>2010-04-06T13:04:55Z</time>
      </trkpt>
      <trkpt lat="47.8985550" lon="12.8688300">
        <ele>432.2500000</ele>
        <time>2010-04-06T13:05:00Z</time>
      </trkpt>
      <trkpt lat="47.8985550" lon="12.8688300">
        <ele>432.2500000</ele>
        <time>2010-04-06T13:05:05Z</time>
      </trkpt>
      <trkpt lat="47.8985550" lon="12.8688300">
        <ele>431.7700000</ele>
        <time>2010-04-06T13:05:10Z</time>
      </trkpt>
      <trkpt lat="47.8985550" lon="12.8688300">
        <ele>432.2500000</ele>
        <time>2010-04-06T13:05:15Z</time>
      </trkpt>
      <trkpt lat="47.8985550" lon="12.8688300">
        <ele>432.2500000</ele>
        <time>2010-04-06T13:05:20Z</time>
      </trkpt>
      <trkpt lat="47.8985540" lon="12.8688440">
        <ele>431.7700000</ele>
        <time>2010-04-06T13:05:25Z</time>
      </trkpt>
      <trkpt lat="47.8985540" lon="12.8688440">
        <ele>432.7300000</ele>
        <time>2010-04-06T13:05:30Z</time>
      </trkpt>
      <trkpt lat="47.8985570" lon="12.8688560">
        <ele>432.7300000</ele>
        <time>2010-04-06T13:05:35Z</time>
      </trkpt>
      <trkpt lat="47.8985850" lon="12.8689440">
        <ele>432.7300000</ele>
        <time>2010-04-06T13:05:40Z</time>
      </trkpt>
      <trkpt lat="47.8986110" lon="12.8690600">
        <ele>432.7300000</ele>
        <time>2010-04-06T13:05:45Z</time>
      </trkpt>
      <trkpt lat="47.8986190" lon="12.8691620">
        <ele>432.7300000</ele>
        <time>2010-04-06T13:05:50Z</time>
      </trkpt>
      <trkpt lat="47.8986330" lon="12.8692670">
        <ele>432.2500000</ele>
        <time>2010-04-06T13:05:55Z</time>
      </trkpt>
      <trkpt lat="47.8986460" lon="12.8693660">
        <ele>431.7700000</ele>
        <time>2010-04-06T13:06:00Z</time>
      </trkpt>
      <trkpt lat="47.8986560" lon="12.8694700">
        <ele>432.2500000</ele>
        <time>2010-04-06T13:06:05Z</time>
      </trkpt>
      <trkpt lat="47.8986880" lon="12.8695680">
        <ele>432.7300000</ele>
        <time>2010-04-06T13:06:10Z</time>
      </trkpt>
      <trkpt lat="47.8986930" lon="12.8696690">
        <ele>431.7700000</ele>
        <time>2010-04-06T13:06:15Z</time>
      </trkpt>
      <trkpt lat="47.8986910" lon="12.8697510">
        <ele>431.7700000</ele>
        <time>2010-04-06T13:06:20Z</time>
      </trkpt>
      <trkpt lat="47.8987110" lon="12.8698570">
        <ele>432.2500000</ele>
        <time>2010-04-06T13:06:25Z</time>
      </trkpt>
      <trkpt lat="47.8987480" lon="12.8699320">
        <ele>432.2500000</ele>
        <time>2010-04-06T13:06:30Z</time>
      </trkpt>
      <trkpt lat="47.8988130" lon="12.8699760">
        <ele>431.7700000</ele>
        <time>2010-04-06T13:06:35Z</time>
      </trkpt>
      <trkpt lat="47.8988690" lon="12.8699910">
        <ele>432.2500000</ele>
        <time>2010-04-06T13:06:40Z</time>
      </trkpt>
      <trkpt lat="47.8988900" lon="12.8699920">
        <ele>432.2500000</ele>
        <time>2010-04-06T13:06:45Z</time>
      </trkpt>
      <trkpt lat="47.8989840" lon="12.8699810">
        <ele>432.7300000</ele>
        <time>2010-04-06T13:06:50Z</time>
      </trkpt>
      <trkpt lat="47.8991060" lon="12.8699840">
        <ele>431.7700000</ele>
        <time>2010-04-06T13:06:55Z</time>
      </trkpt>
      <trkpt lat="47.8992500" lon="12.8699590">
        <ele>432.2500000</ele>
        <time>2010-04-06T13:07:00Z</time>
      </trkpt>
      <trkpt lat="47.8993970" lon="12.8699220">
        <ele>432.2500000</ele>
        <time>2010-04-06T13:07:05Z</time>
      </trkpt>
      <trkpt lat="47.8995370" lon="12.8698760">
        <ele>432.7300000</ele>
        <time>2010-04-06T13:07:10Z</time>
      </trkpt>
      <trkpt lat="47.8996250" lon="12.8698260">
        <ele>433.6900000</ele>
        <time>2010-04-06T13:07:15Z</time>
      </trkpt>
      <trkpt lat="47.8996220" lon="12.8698340">
        <ele>434.1700000</ele>
        <time>2010-04-06T13:07:20Z</time>
      </trkpt>
      <trkpt lat="47.8996300" lon="12.8698480">
        <ele>433.6900000</ele>
        <time>2010-04-06T13:07:25Z</time>
      </trkpt>
      <trkpt lat="47.8996300" lon="12.8698480">
        <ele>433.6900000</ele>
        <time>2010-04-06T13:07:30Z</time>
      </trkpt>
      <trkpt lat="47.8996300" lon="12.8698480">
        <ele>433.6900000</ele>
        <time>2010-04-06T13:07:35Z</time>
      </trkpt>
      <trkpt lat="47.8996330" lon="12.8698570">
        <ele>434.1700000</ele>
        <time>2010-04-06T13:07:40Z</time>
      </trkpt>
      <trkpt lat="47.8996330" lon="12.8698570">
        <ele>434.1700000</ele>
        <time>2010-04-06T13:07:45Z</time>
      </trkpt>
      <trkpt lat="47.8996330" lon="12.8698570">
        <ele>434.1700000</ele>
        <time>2010-04-06T13:07:50Z</time>
      </trkpt>
      <trkpt lat="47.8996330" lon="12.8698570">
        <ele>433.6900000</ele>
        <time>2010-04-06T13:07:55Z</time>
      </trkpt>
      <trkpt lat="47.8996490" lon="12.8699510">
        <ele>434.1700000</ele>
        <time>2010-04-06T13:08:00Z</time>
      </trkpt>
      <trkpt lat="47.8996800" lon="12.8702010">
        <ele>433.6900000</ele>
        <time>2010-04-06T13:08:05Z</time>
      </trkpt>
      <trkpt lat="47.8997010" lon="12.8704470">
        <ele>433.2100000</ele>
        <time>2010-04-06T13:08:10Z</time>
      </trkpt>
      <trkpt lat="47.8997000" lon="12.8707070">
        <ele>432.7300000</ele>
        <time>2010-04-06T13:08:15Z</time>
      </trkpt>
      <trkpt lat="47.8996790" lon="12.8710290">
        <ele>431.7700000</ele>
        <time>2010-04-06T13:08:20Z</time>
      </trkpt>
      <trkpt lat="47.8995950" lon="12.8713040">
        <ele>431.7700000</ele>
        <time>2010-04-06T13:08:25Z</time>
      </trkpt>
      <trkpt lat="47.8994900" lon="12.8715650">
        <ele>431.2900000</ele>
        <time>2010-04-06T13:08:30Z</time>
      </trkpt>
      <trkpt lat="47.8994280" lon="12.8718890">
        <ele>431.2900000</ele>
        <time>2010-04-06T13:08:35Z</time>
      </trkpt>
      <trkpt lat="47.8995420" lon="12.8721830">
        <ele>430.8100000</ele>
        <time>2010-04-06T13:08:40Z</time>
      </trkpt>
      <trkpt lat="47.8997550" lon="12.8723440">
        <ele>430.8100000</ele>
        <time>2010-04-06T13:08:45Z</time>
      </trkpt>
      <trkpt lat="47.8999960" lon="12.8724680">
        <ele>431.2900000</ele>
        <time>2010-04-06T13:08:50Z</time>
      </trkpt>
      <trkpt lat="47.9002340" lon="12.8725640">
        <ele>430.8100000</ele>
        <time>2010-04-06T13:08:55Z</time>
      </trkpt>
      <trkpt lat="47.9004680" lon="12.8726680">
        <ele>430.8100000</ele>
        <time>2010-04-06T13:09:00Z</time>
      </trkpt>
      <trkpt lat="47.9007010" lon="12.8727670">
        <ele>431.2900000</ele>
        <time>2010-04-06T13:09:05Z</time>
      </trkpt>
      <trkpt lat="47.9009500" lon="12.8728660">
        <ele>430.3300000</ele>
        <time>2010-04-06T13:09:10Z</time>
      </trkpt>
      <trkpt lat="47.9012010" lon="12.8729730">
        <ele>430.8100000</ele>
        <time>2010-04-06T13:09:15Z</time>
      </trkpt>
      <trkpt lat="47.9014670" lon="12.8730370">
        <ele>429.8500000</ele>
        <time>2010-04-06T13:09:20Z</time>
      </trkpt>
      <trkpt lat="47.9017230" lon="12.8731290">
        <ele>429.8500000</ele>
        <time>2010-04-06T13:09:25Z</time>
      </trkpt>
      <trkpt lat="47.9019810" lon="12.8732460">
        <ele>429.8500000</ele>
        <time>2010-04-06T13:09:30Z</time>
      </trkpt>
      <trkpt lat="47.9021530" lon="12.8735100">
        <ele>429.8500000</ele>
        <time>2010-04-06T13:09:35Z</time>
      </trkpt>
      <trkpt lat="47.9021260" lon="12.8738880">
        <ele>429.8500000</ele>
        <time>2010-04-06T13:09:40Z</time>
      </trkpt>
      <trkpt lat="47.9020600" lon="12.8742950">
        <ele>428.8900000</ele>
        <time>2010-04-06T13:09:45Z</time>
      </trkpt>
      <trkpt lat="47.9019970" lon="12.8747380">
        <ele>427.9200000</ele>
        <time>2010-04-06T13:09:50Z</time>
      </trkpt>
      <trkpt lat="47.9019670" lon="12.8752620">
        <ele>426.9600000</ele>
        <time>2010-04-06T13:09:55Z</time>
      </trkpt>
      <trkpt lat="47.9018970" lon="12.8756810">
        <ele>426.4800000</ele>
        <time>2010-04-06T13:10:00Z</time>
      </trkpt>
      <trkpt lat="47.9016880" lon="12.8756490">
        <ele>427.9200000</ele>
        <time>2010-04-06T13:10:05Z</time>
      </trkpt>
      <trkpt lat="47.9014550" lon="12.8755790">
        <ele>428.4000000</ele>
        <time>2010-04-06T13:10:10Z</time>
      </trkpt>
      <trkpt lat="47.9012150" lon="12.8754990">
        <ele>429.3700000</ele>
        <time>2010-04-06T13:10:15Z</time>
      </trkpt>
      <trkpt lat="47.9009820" lon="12.8755470">
        <ele>429.3700000</ele>
        <time>2010-04-06T13:10:20Z</time>
      </trkpt>
      <trkpt lat="47.9007710" lon="12.8757500">
        <ele>429.3700000</ele>
        <time>2010-04-06T13:10:25Z</time>
      </trkpt>
      <trkpt lat="47.9005560" lon="12.8759470">
        <ele>429.8500000</ele>
        <time>2010-04-06T13:10:30Z</time>
      </trkpt>
      <trkpt lat="47.9003270" lon="12.8759460">
        <ele>430.3300000</ele>
        <time>2010-04-06T13:10:35Z</time>
      </trkpt>
      <trkpt lat="47.9001410" lon="12.8756770">
        <ele>430.3300000</ele>
        <time>2010-04-06T13:10:40Z</time>
      </trkpt>
      <trkpt lat="47.8999450" lon="12.8754490">
        <ele>430.3300000</ele>
        <time>2010-04-06T13:10:45Z</time>
      </trkpt>
      <trkpt lat="47.8997690" lon="12.8756260">
        <ele>429.3700000</ele>
        <time>2010-04-06T13:10:50Z</time>
      </trkpt>
      <trkpt lat="47.8996270" lon="12.8758560">
        <ele>429.8500000</ele>
        <time>2010-04-06T13:10:55Z</time>
      </trkpt>
      <trkpt lat="47.8994530" lon="12.8760810">
        <ele>429.8500000</ele>
        <time>2010-04-06T13:11:00Z</time>
      </trkpt>
      <trkpt lat="47.8992730" lon="12.8762870">
        <ele>429.8500000</ele>
        <time>2010-04-06T13:11:05Z</time>
      </trkpt>
      <trkpt lat="47.8992020" lon="12.8765980">
        <ele>429.8500000</ele>
        <time>2010-04-06T13:11:10Z</time>
      </trkpt>
      <trkpt lat="47.8991200" lon="12.8769150">
        <ele>429.8500000</ele>
        <time>2010-04-06T13:11:15Z</time>
      </trkpt>
      <trkpt lat="47.8989990" lon="12.8771820">
        <ele>430.3300000</ele>
        <time>2010-04-06T13:11:20Z</time>
      </trkpt>
      <trkpt lat="47.8988210" lon="12.8773330">
        <ele>430.3300000</ele>
        <time>2010-04-06T13:11:25Z</time>
      </trkpt>
      <trkpt lat="47.8986480" lon="12.8774750">
        <ele>430.3300000</ele>
        <time>2010-04-06T13:11:30Z</time>
      </trkpt>
      <trkpt lat="47.8985160" lon="12.8777490">
        <ele>430.8100000</ele>
        <time>2010-04-06T13:11:35Z</time>
      </trkpt>
      <trkpt lat="47.8984250" lon="12.8780380">
        <ele>430.8100000</ele>
        <time>2010-04-06T13:11:40Z</time>
      </trkpt>
      <trkpt lat="47.8983490" lon="12.8783580">
        <ele>430.3300000</ele>
        <time>2010-04-06T13:11:45Z</time>
      </trkpt>
      <trkpt lat="47.8982680" lon="12.8786820">
        <ele>430.3300000</ele>
        <time>2010-04-06T13:11:50Z</time>
      </trkpt>
      <trkpt lat="47.8981850" lon="12.8790040">
        <ele>429.8500000</ele>
        <time>2010-04-06T13:11:55Z</time>
      </trkpt>
      <trkpt lat="47.8981050" lon="12.8792980">
        <ele>430.8100000</ele>
        <time>2010-04-06T13:12:00Z</time>
      </trkpt>
      <trkpt lat="47.8980550" lon="12.8795610">
        <ele>430.3300000</ele>
        <time>2010-04-06T13:12:05Z</time>
      </trkpt>
      <trkpt lat="47.8979650" lon="12.8796770">
        <ele>430.8100000</ele>
        <time>2010-04-06T13:12:10Z</time>
      </trkpt>
      <trkpt lat="47.8978570" lon="12.8798000">
        <ele>430.3300000</ele>
        <time>2010-04-06T13:12:15Z</time>
      </trkpt>
      <trkpt lat="47.8977370" lon="12.8800500">
        <ele>429.8500000</ele>
        <time>2010-04-06T13:12:20Z</time>
      </trkpt>
      <trkpt lat="47.8976360" lon="12.8802900">
        <ele>429.8500000</ele>
        <time>2010-04-06T13:12:25Z</time>
      </trkpt>
      <trkpt lat="47.8975210" lon="12.8804170">
        <ele>429.8500000</ele>
        <time>2010-04-06T13:12:30Z</time>
      </trkpt>
      <trkpt lat="47.8973350" lon="12.8804380">
        <ele>429.8500000</ele>
        <time>2010-04-06T13:12:35Z</time>
      </trkpt>
      <trkpt lat="47.8971830" lon="12.8804920">
        <ele>429.3700000</ele>
        <time>2010-04-06T13:12:40Z</time>
      </trkpt>
      <trkpt lat="47.8969650" lon="12.8806980">
        <ele>428.4000000</ele>
        <time>2010-04-06T13:12:45Z</time>
      </trkpt>
      <trkpt lat="47.8967510" lon="12.8809210">
        <ele>427.9200000</ele>
        <time>2010-04-06T13:12:50Z</time>
      </trkpt>
      <trkpt lat="47.8965520" lon="12.8809630">
        <ele>428.4000000</ele>
        <time>2010-04-06T13:12:55Z</time>
      </trkpt>
      <trkpt lat="47.8963660" lon="12.8809540">
        <ele>428.4000000</ele>
        <time>2010-04-06T13:13:00Z</time>
      </trkpt>
      <trkpt lat="47.8962040" lon="12.8809480">
        <ele>428.4000000</ele>
        <time>2010-04-06T13:13:05Z</time>
      </trkpt>
      <trkpt lat="47.8960880" lon="12.8809290">
        <ele>428.8900000</ele>
        <time>2010-04-06T13:13:10Z</time>
      </trkpt>
      <trkpt lat="47.8960660" lon="12.8809130">
        <ele>428.8900000</ele>
        <time>2010-04-06T13:13:15Z</time>
      </trkpt>
      <trkpt lat="47.8960460" lon="12.8809240">
        <ele>428.8900000</ele>
        <time>2010-04-06T13:13:20Z</time>
      </trkpt>
      <trkpt lat="47.8960400" lon="12.8809150">
        <ele>428.8900000</ele>
        <time>2010-04-06T13:13:25Z</time>
      </trkpt>
      <trkpt lat="47.8960280" lon="12.8809040">
        <ele>428.8900000</ele>
        <time>2010-04-06T13:13:30Z</time>
      </trkpt>
      <trkpt lat="47.8960250" lon="12.8809010">
        <ele>428.8900000</ele>
        <time>2010-04-06T13:13:35Z</time>
      </trkpt>
      <trkpt lat="47.8960100" lon="12.8808760">
        <ele>429.3700000</ele>
        <time>2010-04-06T13:13:40Z</time>
      </trkpt>
      <trkpt lat="47.8959670" lon="12.8807530">
        <ele>427.9200000</ele>
        <time>2010-04-06T13:13:45Z</time>
      </trkpt>
      <trkpt lat="47.8959050" lon="12.8805630">
        <ele>428.8900000</ele>
        <time>2010-04-06T13:13:50Z</time>
      </trkpt>
      <trkpt lat="47.8957950" lon="12.8803990">
        <ele>429.3700000</ele>
        <time>2010-04-06T13:13:55Z</time>
      </trkpt>
      <trkpt lat="47.8956620" lon="12.8804100">
        <ele>429.3700000</ele>
        <time>2010-04-06T13:14:00Z</time>
      </trkpt>
      <trkpt lat="47.8955210" lon="12.8804540">
        <ele>429.3700000</ele>
        <time>2010-04-06T13:14:05Z</time>
      </trkpt>
      <trkpt lat="47.8953730" lon="12.8805030">
        <ele>429.8500000</ele>
        <time>2010-04-06T13:14:10Z</time>
      </trkpt>
      <trkpt lat="47.8952390" lon="12.8805480">
        <ele>430.8100000</ele>
        <time>2010-04-06T13:14:15Z</time>
      </trkpt>
      <trkpt lat="47.8951330" lon="12.8806380">
        <ele>432.2500000</ele>
        <time>2010-04-06T13:14:20Z</time>
      </trkpt>
      <trkpt lat="47.8950280" lon="12.8806630">
        <ele>432.7300000</ele>
        <time>2010-04-06T13:14:25Z</time>
      </trkpt>
      <trkpt lat="47.8949500" lon="12.8806830">
        <ele>434.6500000</ele>
        <time>2010-04-06T13:14:30Z</time>
      </trkpt>
      <trkpt lat="47.8948560" lon="12.8807010">
        <ele>435.6100000</ele>
        <time>2010-04-06T13:14:35Z</time>
      </trkpt>
      <trkpt lat="47.8947560" lon="12.8807300">
        <ele>436.1000000</ele>
        <time>2010-04-06T13:14:40Z</time>
      </trkpt>
      <trkpt lat="47.8946480" lon="12.8807440">
        <ele>436.5800000</ele>
        <time>2010-04-06T13:14:45Z</time>
      </trkpt>
      <trkpt lat="47.8945330" lon="12.8807430">
        <ele>436.5800000</ele>
        <time>2010-04-06T13:14:50Z</time>
      </trkpt>
      <trkpt lat="47.8944440" lon="12.8807620">
        <ele>435.1300000</ele>
        <time>2010-04-06T13:14:55Z</time>
      </trkpt>
      <trkpt lat="47.8943430" lon="12.8807900">
        <ele>438.0200000</ele>
        <time>2010-04-06T13:15:00Z</time>
      </trkpt>
      <trkpt lat="47.8942500" lon="12.8808130">
        <ele>438.5000000</ele>
        <time>2010-04-06T13:15:05Z</time>
      </trkpt>
      <trkpt lat="47.8941510" lon="12.8808410">
        <ele>439.4600000</ele>
        <time>2010-04-06T13:15:10Z</time>
      </trkpt>
      <trkpt lat="47.8940540" lon="12.8808880">
        <ele>440.4200000</ele>
        <time>2010-04-06T13:15:15Z</time>
      </trkpt>
      <trkpt lat="47.8939310" lon="12.8809870">
        <ele>440.4200000</ele>
        <time>2010-04-06T13:15:20Z</time>
      </trkpt>
      <trkpt lat="47.8937900" lon="12.8811350">
        <ele>440.9000000</ele>
        <time>2010-04-06T13:15:25Z</time>
      </trkpt>
      <trkpt lat="47.8936560" lon="12.8812580">
        <ele>440.9000000</ele>
        <time>2010-04-06T13:15:30Z</time>
      </trkpt>
      <trkpt lat="47.8934980" lon="12.8813780">
        <ele>441.8600000</ele>
        <time>2010-04-06T13:15:35Z</time>
      </trkpt>
      <trkpt lat="47.8933380" lon="12.8814990">
        <ele>442.8200000</ele>
        <time>2010-04-06T13:15:40Z</time>
      </trkpt>
      <trkpt lat="47.8931930" lon="12.8816020">
        <ele>442.8200000</ele>
        <time>2010-04-06T13:15:45Z</time>
      </trkpt>
      <trkpt lat="47.8930740" lon="12.8817130">
        <ele>442.3400000</ele>
        <time>2010-04-06T13:15:50Z</time>
      </trkpt>
      <trkpt lat="47.8929740" lon="12.8817930">
        <ele>442.8200000</ele>
        <time>2010-04-06T13:15:55Z</time>
      </trkpt>
      <trkpt lat="47.8928500" lon="12.8819040">
        <ele>442.3400000</ele>
        <time>2010-04-06T13:16:00Z</time>
      </trkpt>
      <trkpt lat="47.8927350" lon="12.8820200">
        <ele>442.3400000</ele>
        <time>2010-04-06T13:16:05Z</time>
      </trkpt>
      <trkpt lat="47.8926280" lon="12.8820900">
        <ele>442.8200000</ele>
        <time>2010-04-06T13:16:10Z</time>
      </trkpt>
      <trkpt lat="47.8924760" lon="12.8822710">
        <ele>442.8200000</ele>
        <time>2010-04-06T13:16:15Z</time>
      </trkpt>
      <trkpt lat="47.8923300" lon="12.8824820">
        <ele>442.8200000</ele>
        <time>2010-04-06T13:16:20Z</time>
      </trkpt>
      <trkpt lat="47.8921940" lon="12.8826740">
        <ele>442.8200000</ele>
        <time>2010-04-06T13:16:25Z</time>
      </trkpt>
      <trkpt lat="47.8920670" lon="12.8828240">
        <ele>442.8200000</ele>
        <time>2010-04-06T13:16:30Z</time>
      </trkpt>
      <trkpt lat="47.8919390" lon="12.8829850">
        <ele>442.8200000</ele>
        <time>2010-04-06T13:16:35Z</time>
      </trkpt>
      <trkpt lat="47.8918240" lon="12.8831400">
        <ele>442.3400000</ele>
        <time>2010-04-06T13:16:40Z</time>
      </trkpt>
      <trkpt lat="47.8916420" lon="12.8833780">
        <ele>442.8200000</ele>
        <time>2010-04-06T13:16:45Z</time>
      </trkpt>
      <trkpt lat="47.8914670" lon="12.8836020">
        <ele>442.8200000</ele>
        <time>2010-04-06T13:16:50Z</time>
      </trkpt>
      <trkpt lat="47.8913200" lon="12.8837680">
        <ele>443.3100000</ele>
        <time>2010-04-06T13:16:55Z</time>
      </trkpt>
      <trkpt lat="47.8911810" lon="12.8839750">
        <ele>442.3400000</ele>
        <time>2010-04-06T13:17:00Z</time>
      </trkpt>
      <trkpt lat="47.8910080" lon="12.8841830">
        <ele>443.3100000</ele>
        <time>2010-04-06T13:17:05Z</time>
      </trkpt>
      <trkpt lat="47.8908670" lon="12.8843110">
        <ele>442.8200000</ele>
        <time>2010-04-06T13:17:10Z</time>
      </trkpt>
      <trkpt lat="47.8907180" lon="12.8844480">
        <ele>442.3400000</ele>
        <time>2010-04-06T13:17:15Z</time>
      </trkpt>
      <trkpt lat="47.8905080" lon="12.8846180">
        <ele>440.4200000</ele>
        <time>2010-04-06T13:17:20Z</time>
      </trkpt>
      <trkpt lat="47.8902720" lon="12.8848510">
        <ele>439.9400000</ele>
        <time>2010-04-06T13:17:25Z</time>
      </trkpt>
      <trkpt lat="47.8899950" lon="12.8851010">
        <ele>439.4600000</ele>
        <time>2010-04-06T13:17:30Z</time>
      </trkpt>
      <trkpt lat="47.8897380" lon="12.8853180">
        <ele>438.9800000</ele>
        <time>2010-04-06T13:17:35Z</time>
      </trkpt>
      <trkpt lat="47.8895230" lon="12.8855000">
        <ele>438.9800000</ele>
        <time>2010-04-06T13:17:40Z</time>
      </trkpt>
      <trkpt lat="47.8893070" lon="12.8856320">
        <ele>438.9800000</ele>
        <time>2010-04-06T13:17:45Z</time>
      </trkpt>
      <trkpt lat="47.8891090" lon="12.8858760">
        <ele>438.9800000</ele>
        <time>2010-04-06T13:17:50Z</time>
      </trkpt>
      <trkpt lat="47.8889290" lon="12.8861420">
        <ele>438.5000000</ele>
        <time>2010-04-06T13:17:55Z</time>
      </trkpt>
      <trkpt lat="47.8887810" lon="12.8864030">
        <ele>436.5800000</ele>
        <time>2010-04-06T13:18:00Z</time>
      </trkpt>
      <trkpt lat="47.8886960" lon="12.8867780">
        <ele>436.5800000</ele>
        <time>2010-04-06T13:18:05Z</time>
      </trkpt>
      <trkpt lat="47.8887090" lon="12.8871000">
        <ele>436.1000000</ele>
        <time>2010-04-06T13:18:10Z</time>
      </trkpt>
      <trkpt lat="47.8888450" lon="12.8873150">
        <ele>436.1000000</ele>
        <time>2010-04-06T13:18:15Z</time>
      </trkpt>
      <trkpt lat="47.8889700" lon="12.8875490">
        <ele>436.5800000</ele>
        <time>2010-04-06T13:18:20Z</time>
      </trkpt>
      <trkpt lat="47.8891090" lon="12.8878010">
        <ele>438.0200000</ele>
        <time>2010-04-06T13:18:25Z</time>
      </trkpt>
      <trkpt lat="47.8892370" lon="12.8880570">
        <ele>438.5000000</ele>
        <time>2010-04-06T13:18:30Z</time>
      </trkpt>
      <trkpt lat="47.8893540" lon="12.8883410">
        <ele>437.5400000</ele>
        <time>2010-04-06T13:18:35Z</time>
      </trkpt>
      <trkpt lat="47.8894320" lon="12.8887040">
        <ele>436.1000000</ele>
        <time>2010-04-06T13:18:40Z</time>
      </trkpt>
      <trkpt lat="47.8894200" lon="12.8891190">
        <ele>434.1700000</ele>
        <time>2010-04-06T13:18:45Z</time>
      </trkpt>
      <trkpt lat="47.8894070" lon="12.8896630">
        <ele>432.7300000</ele>
        <time>2010-04-06T13:18:50Z</time>
      </trkpt>
      <trkpt lat="47.8893980" lon="12.8904260">
        <ele>428.4000000</ele>
        <time>2010-04-06T13:18:56Z</time>
      </trkpt>
      <trkpt lat="47.8893360" lon="12.8911370">
        <ele>426.9600000</ele>
        <time>2010-04-06T13:19:01Z</time>
      </trkpt>
      <trkpt lat="47.8892710" lon="12.8917970">
        <ele>425.0400000</ele>
        <time>2010-04-06T13:19:06Z</time>
      </trkpt>
      <trkpt lat="47.8892250" lon="12.8923550">
        <ele>425.0400000</ele>
        <time>2010-04-06T13:19:11Z</time>
      </trkpt>
      <trkpt lat="47.8892410" lon="12.8928060">
        <ele>426.4800000</ele>
        <time>2010-04-06T13:19:16Z</time>
      </trkpt>
      <trkpt lat="47.8893580" lon="12.8932260">
        <ele>426.4800000</ele>
        <time>2010-04-06T13:19:21Z</time>
      </trkpt>
      <trkpt lat="47.8895610" lon="12.8937010">
        <ele>426.0000000</ele>
        <time>2010-04-06T13:19:27Z</time>
      </trkpt>
      <trkpt lat="47.8897750" lon="12.8940960">
        <ele>426.0000000</ele>
        <time>2010-04-06T13:19:32Z</time>
      </trkpt>
      <trkpt lat="47.8899890" lon="12.8944980">
        <ele>425.0400000</ele>
        <time>2010-04-06T13:19:37Z</time>
      </trkpt>
      <trkpt lat="47.8901720" lon="12.8949290">
        <ele>424.5600000</ele>
        <time>2010-04-06T13:19:42Z</time>
      </trkpt>
      <trkpt lat="47.8902710" lon="12.8953770">
        <ele>424.0800000</ele>
        <time>2010-04-06T13:19:47Z</time>
      </trkpt>
      <trkpt lat="47.8903870" lon="12.8959510">
        <ele>423.6000000</ele>
        <time>2010-04-06T13:19:53Z</time>
      </trkpt>
      <trkpt lat="47.8904880" lon="12.8964200">
        <ele>422.6400000</ele>
        <time>2010-04-06T13:19:58Z</time>
      </trkpt>
      <trkpt lat="47.8905600" lon="12.8968990">
        <ele>423.6000000</ele>
        <time>2010-04-06T13:20:03Z</time>
      </trkpt>
      <trkpt lat="47.8906320" lon="12.8973270">
        <ele>424.0800000</ele>
        <time>2010-04-06T13:20:08Z</time>
      </trkpt>
      <trkpt lat="47.8907460" lon="12.8977140">
        <ele>424.0800000</ele>
        <time>2010-04-06T13:20:13Z</time>
      </trkpt>
      <trkpt lat="47.8908630" lon="12.8980790">
        <ele>424.5600000</ele>
        <time>2010-04-06T13:20:18Z</time>
      </trkpt>
      <trkpt lat="47.8909760" lon="12.8984420">
        <ele>425.0400000</ele>
        <time>2010-04-06T13:20:23Z</time>
      </trkpt>
      <trkpt lat="47.8910790" lon="12.8987650">
        <ele>426.4800000</ele>
        <time>2010-04-06T13:20:28Z</time>
      </trkpt>
      <trkpt lat="47.8911730" lon="12.8990660">
        <ele>427.9200000</ele>
        <time>2010-04-06T13:20:33Z</time>
      </trkpt>
      <trkpt lat="47.8912590" lon="12.8993410">
        <ele>429.3700000</ele>
        <time>2010-04-06T13:20:38Z</time>
      </trkpt>
      <trkpt lat="47.8913410" lon="12.8995960">
        <ele>431.2900000</ele>
        <time>2010-04-06T13:20:43Z</time>
      </trkpt>
      <trkpt lat="47.8914130" lon="12.8998480">
        <ele>432.2500000</ele>
        <time>2010-04-06T13:20:48Z</time>
      </trkpt>
      <trkpt lat="47.8914900" lon="12.9000940">
        <ele>433.2100000</ele>
        <time>2010-04-06T13:20:53Z</time>
      </trkpt>
      <trkpt lat="47.8915730" lon="12.9003380">
        <ele>434.1700000</ele>
        <time>2010-04-06T13:20:58Z</time>
      </trkpt>
      <trkpt lat="47.8916640" lon="12.9005800">
        <ele>434.6500000</ele>
        <time>2010-04-06T13:21:03Z</time>
      </trkpt>
      <trkpt lat="47.8917590" lon="12.9008300">
        <ele>434.1700000</ele>
        <time>2010-04-06T13:21:08Z</time>
      </trkpt>
      <trkpt lat="47.8918740" lon="12.9010790">
        <ele>433.6900000</ele>
        <time>2010-04-06T13:21:13Z</time>
      </trkpt>
      <trkpt lat="47.8919880" lon="12.9013510">
        <ele>433.6900000</ele>
        <time>2010-04-06T13:21:18Z</time>
      </trkpt>
      <trkpt lat="47.8921060" lon="12.9016230">
        <ele>434.1700000</ele>
        <time>2010-04-06T13:21:23Z</time>
      </trkpt>
      <trkpt lat="47.8921710" lon="12.9019050">
        <ele>435.1300000</ele>
        <time>2010-04-06T13:21:28Z</time>
      </trkpt>
      <trkpt lat="47.8920300" lon="12.9021120">
        <ele>435.6100000</ele>
        <time>2010-04-06T13:21:33Z</time>
      </trkpt>
      <trkpt lat="47.8918770" lon="12.9022740">
        <ele>436.5800000</ele>
        <time>2010-04-06T13:21:38Z</time>
      </trkpt>
      <trkpt lat="47.8917350" lon="12.9024170">
        <ele>437.0600000</ele>
        <time>2010-04-06T13:21:43Z</time>
      </trkpt>
      <trkpt lat="47.8915980" lon="12.9025620">
        <ele>438.0200000</ele>
        <time>2010-04-06T13:21:48Z</time>
      </trkpt>
      <trkpt lat="47.8914500" lon="12.9027100">
        <ele>438.9800000</ele>
        <time>2010-04-06T13:21:53Z</time>
      </trkpt>
      <trkpt lat="47.8912980" lon="12.9028530">
        <ele>440.4200000</ele>
        <time>2010-04-06T13:21:58Z</time>
      </trkpt>
      <trkpt lat="47.8911530" lon="12.9030110">
        <ele>440.9000000</ele>
        <time>2010-04-06T13:22:03Z</time>
      </trkpt>
      <trkpt lat="47.8910040" lon="12.9031760">
        <ele>441.3800000</ele>
        <time>2010-04-06T13:22:08Z</time>
      </trkpt>
      <trkpt lat="47.8908660" lon="12.9033500">
        <ele>441.3800000</ele>
        <time>2010-04-06T13:22:13Z</time>
      </trkpt>
      <trkpt lat="47.8907300" lon="12.9035350">
        <ele>443.3100000</ele>
        <time>2010-04-06T13:22:18Z</time>
      </trkpt>
      <trkpt lat="47.8906110" lon="12.9037350">
        <ele>443.7900000</ele>
        <time>2010-04-06T13:22:23Z</time>
      </trkpt>
      <trkpt lat="47.8904880" lon="12.9039290">
        <ele>444.7500000</ele>
        <time>2010-04-06T13:22:28Z</time>
      </trkpt>
      <trkpt lat="47.8903700" lon="12.9041220">
        <ele>445.7100000</ele>
        <time>2010-04-06T13:22:33Z</time>
      </trkpt>
      <trkpt lat="47.8902520" lon="12.9043170">
        <ele>445.7100000</ele>
        <time>2010-04-06T13:22:38Z</time>
      </trkpt>
      <trkpt lat="47.8901320" lon="12.9045090">
        <ele>446.6700000</ele>
        <time>2010-04-06T13:22:43Z</time>
      </trkpt>
      <trkpt lat="47.8900180" lon="12.9046950">
        <ele>447.6300000</ele>
        <time>2010-04-06T13:22:48Z</time>
      </trkpt>
      <trkpt lat="47.8899130" lon="12.9048810">
        <ele>448.5900000</ele>
        <time>2010-04-06T13:22:53Z</time>
      </trkpt>
      <trkpt lat="47.8897990" lon="12.9050510">
        <ele>450.5200000</ele>
        <time>2010-04-06T13:22:58Z</time>
      </trkpt>
      <trkpt lat="47.8896950" lon="12.9052210">
        <ele>451.0000000</ele>
        <time>2010-04-06T13:23:03Z</time>
      </trkpt>
      <trkpt lat="47.8896060" lon="12.9054090">
        <ele>451.9600000</ele>
        <time>2010-04-06T13:23:08Z</time>
      </trkpt>
      <trkpt lat="47.8895610" lon="12.9056260">
        <ele>453.4000000</ele>
        <time>2010-04-06T13:23:13Z</time>
      </trkpt>
      <trkpt lat="47.8895430" lon="12.9058390">
        <ele>454.3600000</ele>
        <time>2010-04-06T13:23:18Z</time>
      </trkpt>
      <trkpt lat="47.8895280" lon="12.9060530">
        <ele>455.3200000</ele>
        <time>2010-04-06T13:23:23Z</time>
      </trkpt>
      <trkpt lat="47.8894990" lon="12.9062610">
        <ele>456.7600000</ele>
        <time>2010-04-06T13:23:28Z</time>
      </trkpt>
      <trkpt lat="47.8894440" lon="12.9064770">
        <ele>457.7200000</ele>
        <time>2010-04-06T13:23:33Z</time>
      </trkpt>
      <trkpt lat="47.8894320" lon="12.9066890">
        <ele>457.7200000</ele>
        <time>2010-04-06T13:23:38Z</time>
      </trkpt>
      <trkpt lat="47.8894670" lon="12.9067180">
        <ele>457.7200000</ele>
        <time>2010-04-06T13:23:43Z</time>
      </trkpt>
      <trkpt lat="47.8894670" lon="12.9067180">
        <ele>458.2100000</ele>
        <time>2010-04-06T13:23:48Z</time>
      </trkpt>
      <trkpt lat="47.8894830" lon="12.9067570">
        <ele>457.2400000</ele>
        <time>2010-04-06T13:23:53Z</time>
      </trkpt>
      <trkpt lat="47.8893940" lon="12.9067660">
        <ele>457.7200000</ele>
        <time>2010-04-06T13:23:58Z</time>
      </trkpt>
      <trkpt lat="47.8893640" lon="12.9069410">
        <ele>457.7200000</ele>
        <time>2010-04-06T13:24:03Z</time>
      </trkpt>
      <trkpt lat="47.8893190" lon="12.9070950">
        <ele>457.7200000</ele>
        <time>2010-04-06T13:24:08Z</time>
      </trkpt>
      <trkpt lat="47.8892220" lon="12.9072530">
        <ele>457.7200000</ele>
        <time>2010-04-06T13:24:13Z</time>
      </trkpt>
      <trkpt lat="47.8890770" lon="12.9073890">
        <ele>457.2400000</ele>
        <time>2010-04-06T13:24:18Z</time>
      </trkpt>
      <trkpt lat="47.8889240" lon="12.9075210">
        <ele>457.2400000</ele>
        <time>2010-04-06T13:24:23Z</time>
      </trkpt>
      <trkpt lat="47.8887610" lon="12.9076920">
        <ele>456.7600000</ele>
        <time>2010-04-06T13:24:28Z</time>
      </trkpt>
      <trkpt lat="47.8885830" lon="12.9078340">
        <ele>457.2400000</ele>
        <time>2010-04-06T13:24:33Z</time>
      </trkpt>
      <trkpt lat="47.8883850" lon="12.9079370">
        <ele>457.7200000</ele>
        <time>2010-04-06T13:24:38Z</time>
      </trkpt>
      <trkpt lat="47.8881990" lon="12.9080540">
        <ele>458.6900000</ele>
        <time>2010-04-06T13:24:43Z</time>
      </trkpt>
      <trkpt lat="47.8880230" lon="12.9082640">
        <ele>458.6900000</ele>
        <time>2010-04-06T13:24:48Z</time>
      </trkpt>
      <trkpt lat="47.8878480" lon="12.9084840">
        <ele>458.2100000</ele>
        <time>2010-04-06T13:24:53Z</time>
      </trkpt>
      <trkpt lat="47.8876670" lon="12.9087150">
        <ele>458.2100000</ele>
        <time>2010-04-06T13:24:58Z</time>
      </trkpt>
      <trkpt lat="47.8874780" lon="12.9089570">
        <ele>457.7200000</ele>
        <time>2010-04-06T13:25:03Z</time>
      </trkpt>
      <trkpt lat="47.8872930" lon="12.9092150">
        <ele>457.7200000</ele>
        <time>2010-04-06T13:25:08Z</time>
      </trkpt>
      <trkpt lat="47.8871030" lon="12.9094650">
        <ele>457.7200000</ele>
        <time>2010-04-06T13:25:13Z</time>
      </trkpt>
      <trkpt lat="47.8869100" lon="12.9097160">
        <ele>458.2100000</ele>
        <time>2010-04-06T13:25:18Z</time>
      </trkpt>
      <trkpt lat="47.8867300" lon="12.9099730">
        <ele>458.2100000</ele>
        <time>2010-04-06T13:25:23Z</time>
      </trkpt>
      <trkpt lat="47.8865470" lon="12.9102310">
        <ele>458.6900000</ele>
        <time>2010-04-06T13:25:28Z</time>
      </trkpt>
      <trkpt lat="47.8863700" lon="12.9105060">
        <ele>459.1700000</ele>
        <time>2010-04-06T13:25:33Z</time>
      </trkpt>
      <trkpt lat="47.8861850" lon="12.9107990">
        <ele>459.1700000</ele>
        <time>2010-04-06T13:25:38Z</time>
      </trkpt>
      <trkpt lat="47.8860110" lon="12.9110990">
        <ele>459.6500000</ele>
        <time>2010-04-06T13:25:43Z</time>
      </trkpt>
      <trkpt lat="47.8858410" lon="12.9114040">
        <ele>460.1300000</ele>
        <time>2010-04-06T13:25:48Z</time>
      </trkpt>
      <trkpt lat="47.8856790" lon="12.9117250">
        <ele>460.1300000</ele>
        <time>2010-04-06T13:25:53Z</time>
      </trkpt>
      <trkpt lat="47.8855220" lon="12.9120490">
        <ele>461.0900000</ele>
        <time>2010-04-06T13:25:58Z</time>
      </trkpt>
      <trkpt lat="47.8853750" lon="12.9123790">
        <ele>461.0900000</ele>
        <time>2010-04-06T13:26:03Z</time>
      </trkpt>
      <trkpt lat="47.8852320" lon="12.9127170">
        <ele>461.5700000</ele>
        <time>2010-04-06T13:26:08Z</time>
      </trkpt>
      <trkpt lat="47.8850940" lon="12.9130520">
        <ele>461.5700000</ele>
        <time>2010-04-06T13:26:13Z</time>
      </trkpt>
      <trkpt lat="47.8849560" lon="12.9133930">
        <ele>461.5700000</ele>
        <time>2010-04-06T13:26:18Z</time>
      </trkpt>
      <trkpt lat="47.8848200" lon="12.9137430">
        <ele>462.5300000</ele>
        <time>2010-04-06T13:26:23Z</time>
      </trkpt>
      <trkpt lat="47.8846840" lon="12.9140940">
        <ele>462.5300000</ele>
        <time>2010-04-06T13:26:28Z</time>
      </trkpt>
      <trkpt lat="47.8845520" lon="12.9144370">
        <ele>463.0100000</ele>
        <time>2010-04-06T13:26:33Z</time>
      </trkpt>
      <trkpt lat="47.8844160" lon="12.9147550">
        <ele>462.5300000</ele>
        <time>2010-04-06T13:26:38Z</time>
      </trkpt>
      <trkpt lat="47.8842040" lon="12.9145810">
        <ele>463.4900000</ele>
        <time>2010-04-06T13:26:43Z</time>
      </trkpt>
      <trkpt lat="47.8840000" lon="12.9143020">
        <ele>463.4900000</ele>
        <time>2010-04-06T13:26:48Z</time>
      </trkpt>
      <trkpt lat="47.8838570" lon="12.9140810">
        <ele>465.9000000</ele>
        <time>2010-04-06T13:26:53Z</time>
      </trkpt>
      <trkpt lat="47.8837330" lon="12.9139070">
        <ele>468.3000000</ele>
        <time>2010-04-06T13:26:58Z</time>
      </trkpt>
      <trkpt lat="47.8836140" lon="12.9137500">
        <ele>470.7000000</ele>
        <time>2010-04-06T13:27:03Z</time>
      </trkpt>
      <trkpt lat="47.8834560" lon="12.9135700">
        <ele>471.6600000</ele>
        <time>2010-04-06T13:27:09Z</time>
      </trkpt>
      <trkpt lat="47.8833530" lon="12.9134570">
        <ele>471.6600000</ele>
        <time>2010-04-06T13:27:14Z</time>
      </trkpt>
      <trkpt lat="47.8832440" lon="12.9133380">
        <ele>471.1800000</ele>
        <time>2010-04-06T13:27:19Z</time>
      </trkpt>
      <trkpt lat="47.8830840" lon="12.9131720">
        <ele>470.2200000</ele>
        <time>2010-04-06T13:27:24Z</time>
      </trkpt>
      <trkpt lat="47.8828320" lon="12.9129690">
        <ele>467.8200000</ele>
        <time>2010-04-06T13:27:29Z</time>
      </trkpt>
      <trkpt lat="47.8824880" lon="12.9127000">
        <ele>464.4500000</ele>
        <time>2010-04-06T13:27:34Z</time>
      </trkpt>
      <trkpt lat="47.8821180" lon="12.9123480">
        <ele>463.0100000</ele>
        <time>2010-04-06T13:27:39Z</time>
      </trkpt>
      <trkpt lat="47.8817800" lon="12.9119400">
        <ele>461.5700000</ele>
        <time>2010-04-06T13:27:44Z</time>
      </trkpt>
      <trkpt lat="47.8814830" lon="12.9115130">
        <ele>462.0500000</ele>
        <time>2010-04-06T13:27:49Z</time>
      </trkpt>
      <trkpt lat="47.8812240" lon="12.9111430">
        <ele>462.5300000</ele>
        <time>2010-04-06T13:27:54Z</time>
      </trkpt>
      <trkpt lat="47.8809990" lon="12.9108220">
        <ele>462.5300000</ele>
        <time>2010-04-06T13:27:59Z</time>
      </trkpt>
      <trkpt lat="47.8808000" lon="12.9105310">
        <ele>463.0100000</ele>
        <time>2010-04-06T13:28:04Z</time>
      </trkpt>
      <trkpt lat="47.8805920" lon="12.9102610">
        <ele>462.5300000</ele>
        <time>2010-04-06T13:28:09Z</time>
      </trkpt>
      <trkpt lat="47.8803160" lon="12.9100810">
        <ele>459.6500000</ele>
        <time>2010-04-06T13:28:14Z</time>
      </trkpt>
      <trkpt lat="47.8800920" lon="12.9104560">
        <ele>458.2100000</ele>
        <time>2010-04-06T13:28:19Z</time>
      </trkpt>
      <trkpt lat="47.8799160" lon="12.9107030">
        <ele>459.6500000</ele>
        <time>2010-04-06T13:28:24Z</time>
      </trkpt>
      <trkpt lat="47.8797720" lon="12.9109320">
        <ele>461.5700000</ele>
        <time>2010-04-06T13:28:29Z</time>
      </trkpt>
      <trkpt lat="47.8796990" lon="12.9111790">
        <ele>462.0500000</ele>
        <time>2010-04-06T13:28:34Z</time>
      </trkpt>
      <trkpt lat="47.8796330" lon="12.9114390">
        <ele>463.0100000</ele>
        <time>2010-04-06T13:28:39Z</time>
      </trkpt>
      <trkpt lat="47.8795510" lon="12.9117540">
        <ele>462.5300000</ele>
        <time>2010-04-06T13:28:44Z</time>
      </trkpt>
      <trkpt lat="47.8794230" lon="12.9120690">
        <ele>462.5300000</ele>
        <time>2010-04-06T13:28:49Z</time>
      </trkpt>
      <trkpt lat="47.8792520" lon="12.9123960">
        <ele>462.0500000</ele>
        <time>2010-04-06T13:28:54Z</time>
      </trkpt>
      <trkpt lat="47.8790470" lon="12.9127720">
        <ele>461.0900000</ele>
        <time>2010-04-06T13:28:59Z</time>
      </trkpt>
      <trkpt lat="47.8788090" lon="12.9131490">
        <ele>460.1300000</ele>
        <time>2010-04-06T13:29:04Z</time>
      </trkpt>
      <trkpt lat="47.8785950" lon="12.9134600">
        <ele>459.1700000</ele>
        <time>2010-04-06T13:29:08Z</time>
      </trkpt>
      <trkpt lat="47.8782510" lon="12.9138900">
        <ele>457.7200000</ele>
        <time>2010-04-06T13:29:14Z</time>
      </trkpt>
      <trkpt lat="47.8779720" lon="12.9142270">
        <ele>456.7600000</ele>
        <time>2010-04-06T13:29:19Z</time>
      </trkpt>
      <trkpt lat="47.8777090" lon="12.9145830">
        <ele>456.2800000</ele>
        <time>2010-04-06T13:29:24Z</time>
      </trkpt>
      <trkpt lat="47.8774370" lon="12.9148940">
        <ele>455.8000000</ele>
        <time>2010-04-06T13:29:29Z</time>
      </trkpt>
      <trkpt lat="47.8771200" lon="12.9149170">
        <ele>454.8400000</ele>
        <time>2010-04-06T13:29:34Z</time>
      </trkpt>
      <trkpt lat="47.8768200" lon="12.9148450">
        <ele>455.3200000</ele>
        <time>2010-04-06T13:29:39Z</time>
      </trkpt>
      <trkpt lat="47.8765600" lon="12.9148700">
        <ele>455.3200000</ele>
        <time>2010-04-06T13:29:44Z</time>
      </trkpt>
      <trkpt lat="47.8763460" lon="12.9150910">
        <ele>455.3200000</ele>
        <time>2010-04-06T13:29:49Z</time>
      </trkpt>
      <trkpt lat="47.8761370" lon="12.9154020">
        <ele>454.3600000</ele>
        <time>2010-04-06T13:29:54Z</time>
      </trkpt>
      <trkpt lat="47.8759180" lon="12.9156830">
        <ele>454.3600000</ele>
        <time>2010-04-06T13:29:59Z</time>
      </trkpt>
      <trkpt lat="47.8756500" lon="12.9160670">
        <ele>453.8800000</ele>
        <time>2010-04-06T13:30:04Z</time>
      </trkpt>
      <trkpt lat="47.8754620" lon="12.9164810">
        <ele>451.4800000</ele>
        <time>2010-04-06T13:30:09Z</time>
      </trkpt>
      <trkpt lat="47.8751820" lon="12.9170350">
        <ele>449.0700000</ele>
        <time>2010-04-06T13:30:14Z</time>
      </trkpt>
      <trkpt lat="47.8749170" lon="12.9175160">
        <ele>448.5900000</ele>
        <time>2010-04-06T13:30:19Z</time>
      </trkpt>
      <trkpt lat="47.8746950" lon="12.9178620">
        <ele>449.0700000</ele>
        <time>2010-04-06T13:30:24Z</time>
      </trkpt>
      <trkpt lat="47.8745410" lon="12.9179510">
        <ele>450.0300000</ele>
        <time>2010-04-06T13:30:29Z</time>
      </trkpt>
      <trkpt lat="47.8743720" lon="12.9180220">
        <ele>452.9200000</ele>
        <time>2010-04-06T13:30:34Z</time>
      </trkpt>
      <trkpt lat="47.8741130" lon="12.9182010">
        <ele>453.8800000</ele>
        <time>2010-04-06T13:30:39Z</time>
      </trkpt>
      <trkpt lat="47.8738660" lon="12.9184010">
        <ele>454.3600000</ele>
        <time>2010-04-06T13:30:44Z</time>
      </trkpt>
      <trkpt lat="47.8736210" lon="12.9186590">
        <ele>454.8400000</ele>
        <time>2010-04-06T13:30:49Z</time>
      </trkpt>
      <trkpt lat="47.8733510" lon="12.9189100">
        <ele>456.7600000</ele>
        <time>2010-04-06T13:30:54Z</time>
      </trkpt>
      <trkpt lat="47.8731530" lon="12.9191070">
        <ele>458.6900000</ele>
        <time>2010-04-06T13:30:59Z</time>
      </trkpt>
      <trkpt lat="47.8729860" lon="12.9193730">
        <ele>460.1300000</ele>
        <time>2010-04-06T13:31:04Z</time>
      </trkpt>
      <trkpt lat="47.8727940" lon="12.9197350">
        <ele>461.0900000</ele>
        <time>2010-04-06T13:31:09Z</time>
      </trkpt>
      <trkpt lat="47.8726630" lon="12.9200280">
        <ele>461.0900000</ele>
        <time>2010-04-06T13:31:14Z</time>
      </trkpt>
      <trkpt lat="47.8724790" lon="12.9203910">
        <ele>462.5300000</ele>
        <time>2010-04-06T13:31:19Z</time>
      </trkpt>
      <trkpt lat="47.8722910" lon="12.9206610">
        <ele>463.4900000</ele>
        <time>2010-04-06T13:31:24Z</time>
      </trkpt>
      <trkpt lat="47.8721290" lon="12.9208250">
        <ele>463.4900000</ele>
        <time>2010-04-06T13:31:29Z</time>
      </trkpt>
      <trkpt lat="47.8720090" lon="12.9209710">
        <ele>463.4900000</ele>
        <time>2010-04-06T13:31:34Z</time>
      </trkpt>
      <trkpt lat="47.8717530" lon="12.9213120">
        <ele>463.4900000</ele>
        <time>2010-04-06T13:31:39Z</time>
      </trkpt>
      <trkpt lat="47.8715440" lon="12.9215180">
        <ele>462.5300000</ele>
        <time>2010-04-06T13:31:44Z</time>
      </trkpt>
      <trkpt lat="47.8713750" lon="12.9216610">
        <ele>462.5300000</ele>
        <time>2010-04-06T13:31:49Z</time>
      </trkpt>
      <trkpt lat="47.8712660" lon="12.9217230">
        <ele>462.5300000</ele>
        <time>2010-04-06T13:31:54Z</time>
      </trkpt>
      <trkpt lat="47.8711080" lon="12.9217760">
        <ele>461.0900000</ele>
        <time>2010-04-06T13:31:59Z</time>
      </trkpt>
      <trkpt lat="47.8709580" lon="12.9218260">
        <ele>461.0900000</ele>
        <time>2010-04-06T13:32:04Z</time>
      </trkpt>
      <trkpt lat="47.8707330" lon="12.9218970">
        <ele>459.6500000</ele>
        <time>2010-04-06T13:32:09Z</time>
      </trkpt>
      <trkpt lat="47.8704670" lon="12.9221610">
        <ele>458.6900000</ele>
        <time>2010-04-06T13:32:14Z</time>
      </trkpt>
      <trkpt lat="47.8701710" lon="12.9226300">
        <ele>457.2400000</ele>
        <time>2010-04-06T13:32:19Z</time>
      </trkpt>
      <trkpt lat="47.8700450" lon="12.9228880">
        <ele>456.7600000</ele>
        <time>2010-04-06T13:32:24Z</time>
      </trkpt>
      <trkpt lat="47.8699040" lon="12.9232030">
        <ele>454.8400000</ele>
        <time>2010-04-06T13:32:29Z</time>
      </trkpt>
      <trkpt lat="47.8697650" lon="12.9236430">
        <ele>452.4400000</ele>
        <time>2010-04-06T13:32:34Z</time>
      </trkpt>
      <trkpt lat="47.8696770" lon="12.9242010">
        <ele>449.5500000</ele>
        <time>2010-04-06T13:32:39Z</time>
      </trkpt>
      <trkpt lat="47.8695530" lon="12.9248560">
        <ele>446.1900000</ele>
        <time>2010-04-06T13:32:44Z</time>
      </trkpt>
      <trkpt lat="47.8694230" lon="12.9255210">
        <ele>444.7500000</ele>
        <time>2010-04-06T13:32:49Z</time>
      </trkpt>
      <trkpt lat="47.8692810" lon="12.9261250">
        <ele>444.2700000</ele>
        <time>2010-04-06T13:32:54Z</time>
      </trkpt>
      <trkpt lat="47.8689850" lon="12.9264920">
        <ele>443.7900000</ele>
        <time>2010-04-06T13:32:59Z</time>
      </trkpt>
      <trkpt lat="47.8686660" lon="12.9267940">
        <ele>443.3100000</ele>
        <time>2010-04-06T13:33:04Z</time>
      </trkpt>
      <trkpt lat="47.8683730" lon="12.9271180">
        <ele>442.8200000</ele>
        <time>2010-04-06T13:33:09Z</time>
      </trkpt>
      <trkpt lat="47.8681520" lon="12.9274790">
        <ele>442.8200000</ele>
        <time>2010-04-06T13:33:14Z</time>
      </trkpt>
      <trkpt lat="47.8679020" lon="12.9277710">
        <ele>442.3400000</ele>
        <time>2010-04-06T13:33:19Z</time>
      </trkpt>
      <trkpt lat="47.8676030" lon="12.9279750">
        <ele>441.3800000</ele>
        <time>2010-04-06T13:33:24Z</time>
      </trkpt>
      <trkpt lat="47.8673300" lon="12.9280610">
        <ele>440.9000000</ele>
        <time>2010-04-06T13:33:29Z</time>
      </trkpt>
      <trkpt lat="47.8673310" lon="12.9284070">
        <ele>439.9400000</ele>
        <time>2010-04-06T13:33:34Z</time>
      </trkpt>
      <trkpt lat="47.8672880" lon="12.9287600">
        <ele>439.9400000</ele>
        <time>2010-04-06T13:33:39Z</time>
      </trkpt>
      <trkpt lat="47.8672440" lon="12.9290720">
        <ele>439.4600000</ele>
        <time>2010-04-06T13:33:44Z</time>
      </trkpt>
      <trkpt lat="47.8672170" lon="12.9293640">
        <ele>439.4600000</ele>
        <time>2010-04-06T13:33:49Z</time>
      </trkpt>
      <trkpt lat="47.8672700" lon="12.9296880">
        <ele>438.0200000</ele>
        <time>2010-04-06T13:33:54Z</time>
      </trkpt>
      <trkpt lat="47.8673500" lon="12.9300860">
        <ele>435.1300000</ele>
        <time>2010-04-06T13:33:59Z</time>
      </trkpt>
      <trkpt lat="47.8673230" lon="12.9303700">
        <ele>433.2100000</ele>
        <time>2010-04-06T13:34:04Z</time>
      </trkpt>
      <trkpt lat="47.8671000" lon="12.9304210">
        <ele>433.2100000</ele>
        <time>2010-04-06T13:34:09Z</time>
      </trkpt>
      <trkpt lat="47.8668540" lon="12.9304780">
        <ele>433.2100000</ele>
        <time>2010-04-06T13:34:14Z</time>
      </trkpt>
      <trkpt lat="47.8665890" lon="12.9305350">
        <ele>434.1700000</ele>
        <time>2010-04-06T13:34:19Z</time>
      </trkpt>
      <trkpt lat="47.8663190" lon="12.9305990">
        <ele>434.6500000</ele>
        <time>2010-04-06T13:34:24Z</time>
      </trkpt>
      <trkpt lat="47.8660440" lon="12.9307320">
        <ele>434.1700000</ele>
        <time>2010-04-06T13:34:29Z</time>
      </trkpt>
      <trkpt lat="47.8658240" lon="12.9309810">
        <ele>433.6900000</ele>
        <time>2010-04-06T13:34:34Z</time>
      </trkpt>
      <trkpt lat="47.8655800" lon="12.9311770">
        <ele>433.6900000</ele>
        <time>2010-04-06T13:34:39Z</time>
      </trkpt>
      <trkpt lat="47.8653250" lon="12.9313210">
        <ele>433.2100000</ele>
        <time>2010-04-06T13:34:44Z</time>
      </trkpt>
      <trkpt lat="47.8650600" lon="12.9314620">
        <ele>433.2100000</ele>
        <time>2010-04-06T13:34:49Z</time>
      </trkpt>
      <trkpt lat="47.8648010" lon="12.9316060">
        <ele>432.2500000</ele>
        <time>2010-04-06T13:34:54Z</time>
      </trkpt>
      <trkpt lat="47.8645570" lon="12.9318150">
        <ele>431.2900000</ele>
        <time>2010-04-06T13:34:59Z</time>
      </trkpt>
      <trkpt lat="47.8644830" lon="12.9322090">
        <ele>430.3300000</ele>
        <time>2010-04-06T13:35:04Z</time>
      </trkpt>
      <trkpt lat="47.8642220" lon="12.9323470">
        <ele>430.3300000</ele>
        <time>2010-04-06T13:35:09Z</time>
      </trkpt>
      <trkpt lat="47.8639900" lon="12.9324570">
        <ele>430.8100000</ele>
        <time>2010-04-06T13:35:14Z</time>
      </trkpt>
      <trkpt lat="47.8638090" lon="12.9325480">
        <ele>431.2900000</ele>
        <time>2010-04-06T13:35:19Z</time>
      </trkpt>
      <trkpt lat="47.8637930" lon="12.9325870">
        <ele>431.2900000</ele>
        <time>2010-04-06T13:35:24Z</time>
      </trkpt>
      <trkpt lat="47.8637930" lon="12.9325870">
        <ele>431.2900000</ele>
        <time>2010-04-06T13:35:29Z</time>
      </trkpt>
      <trkpt lat="47.8637930" lon="12.9325870">
        <ele>431.2900000</ele>
        <time>2010-04-06T13:35:34Z</time>
      </trkpt>
      <trkpt lat="47.8637930" lon="12.9325870">
        <ele>431.2900000</ele>
        <time>2010-04-06T13:35:39Z</time>
      </trkpt>
      <trkpt lat="47.8637930" lon="12.9325870">
        <ele>431.2900000</ele>
        <time>2010-04-06T13:35:44Z</time>
      </trkpt>
      <trkpt lat="47.8637930" lon="12.9325870">
        <ele>431.2900000</ele>
        <time>2010-04-06T13:35:49Z</time>
      </trkpt>
      <trkpt lat="47.8637930" lon="12.9325870">
        <ele>431.2900000</ele>
        <time>2010-04-06T13:35:54Z</time>
      </trkpt>
      <trkpt lat="47.8638210" lon="12.9327150">
        <ele>431.2900000</ele>
        <time>2010-04-06T13:35:59Z</time>
      </trkpt>
      <trkpt lat="47.8639980" lon="12.9328970">
        <ele>430.3300000</ele>
        <time>2010-04-06T13:36:04Z</time>
      </trkpt>
      <trkpt lat="47.8641440" lon="12.9334100">
        <ele>427.4400000</ele>
        <time>2010-04-06T13:36:10Z</time>
      </trkpt>
      <trkpt lat="47.8643140" lon="12.9339590">
        <ele>423.1200000</ele>
        <time>2010-04-06T13:36:15Z</time>
      </trkpt>
      <trkpt lat="47.8645380" lon="12.9346150">
        <ele>419.2700000</ele>
        <time>2010-04-06T13:36:20Z</time>
      </trkpt>
      <trkpt lat="47.8646600" lon="12.9351920">
        <ele>418.3100000</ele>
        <time>2010-04-06T13:36:25Z</time>
      </trkpt>
      <trkpt lat="47.8644980" lon="12.9356770">
        <ele>417.8300000</ele>
        <time>2010-04-06T13:36:30Z</time>
      </trkpt>
      <trkpt lat="47.8643620" lon="12.9361800">
        <ele>418.3100000</ele>
        <time>2010-04-06T13:36:35Z</time>
      </trkpt>
      <trkpt lat="47.8642090" lon="12.9366660">
        <ele>417.3500000</ele>
        <time>2010-04-06T13:36:40Z</time>
      </trkpt>
      <trkpt lat="47.8640420" lon="12.9371080">
        <ele>417.3500000</ele>
        <time>2010-04-06T13:36:45Z</time>
      </trkpt>
      <trkpt lat="47.8638800" lon="12.9375070">
        <ele>418.3100000</ele>
        <time>2010-04-06T13:36:50Z</time>
      </trkpt>
      <trkpt lat="47.8637310" lon="12.9378840">
        <ele>417.8300000</ele>
        <time>2010-04-06T13:36:55Z</time>
      </trkpt>
      <trkpt lat="47.8636010" lon="12.9382660">
        <ele>418.7900000</ele>
        <time>2010-04-06T13:37:00Z</time>
      </trkpt>
      <trkpt lat="47.8634950" lon="12.9386490">
        <ele>419.2700000</ele>
        <time>2010-04-06T13:37:05Z</time>
      </trkpt>
      <trkpt lat="47.8634110" lon="12.9390470">
        <ele>420.2300000</ele>
        <time>2010-04-06T13:37:10Z</time>
      </trkpt>
      <trkpt lat="47.8633490" lon="12.9394310">
        <ele>420.7100000</ele>
        <time>2010-04-06T13:37:15Z</time>
      </trkpt>
      <trkpt lat="47.8633110" lon="12.9398120">
        <ele>421.1900000</ele>
        <time>2010-04-06T13:37:20Z</time>
      </trkpt>
      <trkpt lat="47.8632700" lon="12.9401910">
        <ele>422.1600000</ele>
        <time>2010-04-06T13:37:25Z</time>
      </trkpt>
      <trkpt lat="47.8632340" lon="12.9405670">
        <ele>421.6800000</ele>
        <time>2010-04-06T13:37:30Z</time>
      </trkpt>
      <trkpt lat="47.8631730" lon="12.9409480">
        <ele>421.1900000</ele>
        <time>2010-04-06T13:37:35Z</time>
      </trkpt>
      <trkpt lat="47.8631070" lon="12.9413820">
        <ele>420.2300000</ele>
        <time>2010-04-06T13:37:40Z</time>
      </trkpt>
      <trkpt lat="47.8630080" lon="12.9418620">
        <ele>419.7500000</ele>
        <time>2010-04-06T13:37:45Z</time>
      </trkpt>
      <trkpt lat="47.8628860" lon="12.9423940">
        <ele>417.3500000</ele>
        <time>2010-04-06T13:37:50Z</time>
      </trkpt>
      <trkpt lat="47.8627260" lon="12.9429520">
        <ele>415.9100000</ele>
        <time>2010-04-06T13:37:55Z</time>
      </trkpt>
      <trkpt lat="47.8625470" lon="12.9435320">
        <ele>413.5000000</ele>
        <time>2010-04-06T13:38:00Z</time>
      </trkpt>
      <trkpt lat="47.8623580" lon="12.9441220">
        <ele>412.0600000</ele>
        <time>2010-04-06T13:38:05Z</time>
      </trkpt>
      <trkpt lat="47.8621790" lon="12.9447050">
        <ele>411.1000000</ele>
        <time>2010-04-06T13:38:10Z</time>
      </trkpt>
      <trkpt lat="47.8620150" lon="12.9452340">
        <ele>411.5800000</ele>
        <time>2010-04-06T13:38:15Z</time>
      </trkpt>
      <trkpt lat="47.8618660" lon="12.9456930">
        <ele>411.5800000</ele>
        <time>2010-04-06T13:38:20Z</time>
      </trkpt>
      <trkpt lat="47.8617170" lon="12.9461310">
        <ele>412.0600000</ele>
        <time>2010-04-06T13:38:25Z</time>
      </trkpt>
      <trkpt lat="47.8615680" lon="12.9465340">
        <ele>412.5400000</ele>
        <time>2010-04-06T13:38:30Z</time>
      </trkpt>
      <trkpt lat="47.8614270" lon="12.9469150">
        <ele>412.5400000</ele>
        <time>2010-04-06T13:38:35Z</time>
      </trkpt>
      <trkpt lat="47.8612640" lon="12.9472910">
        <ele>412.5400000</ele>
        <time>2010-04-06T13:38:40Z</time>
      </trkpt>
      <trkpt lat="47.8610610" lon="12.9476270">
        <ele>413.0200000</ele>
        <time>2010-04-06T13:38:45Z</time>
      </trkpt>
      <trkpt lat="47.8608420" lon="12.9479300">
        <ele>412.5400000</ele>
        <time>2010-04-06T13:38:50Z</time>
      </trkpt>
      <trkpt lat="47.8607260" lon="12.9482790">
        <ele>413.5000000</ele>
        <time>2010-04-06T13:38:55Z</time>
      </trkpt>
      <trkpt lat="47.8607670" lon="12.9487220">
        <ele>413.0200000</ele>
        <time>2010-04-06T13:39:00Z</time>
      </trkpt>
      <trkpt lat="47.8608790" lon="12.9491500">
        <ele>412.0600000</ele>
        <time>2010-04-06T13:39:05Z</time>
      </trkpt>
      <trkpt lat="47.8610490" lon="12.9494100">
        <ele>412.5400000</ele>
        <time>2010-04-06T13:39:10Z</time>
      </trkpt>
      <trkpt lat="47.8612600" lon="12.9495990">
        <ele>412.5400000</ele>
        <time>2010-04-06T13:39:15Z</time>
      </trkpt>
      <trkpt lat="47.8614850" lon="12.9498200">
        <ele>412.5400000</ele>
        <time>2010-04-06T13:39:20Z</time>
      </trkpt>
      <trkpt lat="47.8616370" lon="12.9501800">
        <ele>413.0200000</ele>
        <time>2010-04-06T13:39:25Z</time>
      </trkpt>
      <trkpt lat="47.8617450" lon="12.9506520">
        <ele>413.0200000</ele>
        <time>2010-04-06T13:39:30Z</time>
      </trkpt>
      <trkpt lat="47.8618470" lon="12.9510950">
        <ele>413.5000000</ele>
        <time>2010-04-06T13:39:35Z</time>
      </trkpt>
      <trkpt lat="47.8619660" lon="12.9515480">
        <ele>412.0600000</ele>
        <time>2010-04-06T13:39:40Z</time>
      </trkpt>
      <trkpt lat="47.8620810" lon="12.9519960">
        <ele>411.1000000</ele>
        <time>2010-04-06T13:39:45Z</time>
      </trkpt>
      <trkpt lat="47.8622240" lon="12.9525210">
        <ele>409.6600000</ele>
        <time>2010-04-06T13:39:50Z</time>
      </trkpt>
      <trkpt lat="47.8623460" lon="12.9530640">
        <ele>410.1400000</ele>
        <time>2010-04-06T13:39:55Z</time>
      </trkpt>
      <trkpt lat="47.8625270" lon="12.9535440">
        <ele>411.5800000</ele>
        <time>2010-04-06T13:40:00Z</time>
      </trkpt>
      <trkpt lat="47.8626540" lon="12.9539460">
        <ele>411.5800000</ele>
        <time>2010-04-06T13:40:05Z</time>
      </trkpt>
      <trkpt lat="47.8627250" lon="12.9543730">
        <ele>412.0600000</ele>
        <time>2010-04-06T13:40:10Z</time>
      </trkpt>
      <trkpt lat="47.8626030" lon="12.9547540">
        <ele>412.0600000</ele>
        <time>2010-04-06T13:40:15Z</time>
      </trkpt>
      <trkpt lat="47.8624100" lon="12.9550940">
        <ele>412.5400000</ele>
        <time>2010-04-06T13:40:20Z</time>
      </trkpt>
      <trkpt lat="47.8622410" lon="12.9554320">
        <ele>412.0600000</ele>
        <time>2010-04-06T13:40:25Z</time>
      </trkpt>
      <trkpt lat="47.8620560" lon="12.9557640">
        <ele>412.0600000</ele>
        <time>2010-04-06T13:40:30Z</time>
      </trkpt>
      <trkpt lat="47.8618740" lon="12.9560730">
        <ele>412.5400000</ele>
        <time>2010-04-06T13:40:35Z</time>
      </trkpt>
      <trkpt lat="47.8617000" lon="12.9563840">
        <ele>412.0600000</ele>
        <time>2010-04-06T13:40:40Z</time>
      </trkpt>
      <trkpt lat="47.8615280" lon="12.9567010">
        <ele>412.0600000</ele>
        <time>2010-04-06T13:40:45Z</time>
      </trkpt>
      <trkpt lat="47.8613230" lon="12.9569570">
        <ele>412.5400000</ele>
        <time>2010-04-06T13:40:50Z</time>
      </trkpt>
      <trkpt lat="47.8611310" lon="12.9571820">
        <ele>413.0200000</ele>
        <time>2010-04-06T13:40:55Z</time>
      </trkpt>
      <trkpt lat="47.8610150" lon="12.9575080">
        <ele>413.9800000</ele>
        <time>2010-04-06T13:41:00Z</time>
      </trkpt>
      <trkpt lat="47.8609250" lon="12.9578380">
        <ele>413.9800000</ele>
        <time>2010-04-06T13:41:05Z</time>
      </trkpt>
      <trkpt lat="47.8610540" lon="12.9581470">
        <ele>414.4700000</ele>
        <time>2010-04-06T13:41:10Z</time>
      </trkpt>
      <trkpt lat="47.8612120" lon="12.9584670">
        <ele>413.9800000</ele>
        <time>2010-04-06T13:41:15Z</time>
      </trkpt>
      <trkpt lat="47.8614170" lon="12.9587650">
        <ele>413.0200000</ele>
        <time>2010-04-06T13:41:20Z</time>
      </trkpt>
      <trkpt lat="47.8617110" lon="12.9587910">
        <ele>413.0200000</ele>
        <time>2010-04-06T13:41:25Z</time>
      </trkpt>
      <trkpt lat="47.8619940" lon="12.9588880">
        <ele>413.0200000</ele>
        <time>2010-04-06T13:41:30Z</time>
      </trkpt>
      <trkpt lat="47.8620910" lon="12.9592820">
        <ele>412.5400000</ele>
        <time>2010-04-06T13:41:35Z</time>
      </trkpt>
      <trkpt lat="47.8621410" lon="12.9597040">
        <ele>412.0600000</ele>
        <time>2010-04-06T13:41:40Z</time>
      </trkpt>
      <trkpt lat="47.8621970" lon="12.9601160">
        <ele>412.0600000</ele>
        <time>2010-04-06T13:41:45Z</time>
      </trkpt>
      <trkpt lat="47.8623180" lon="12.9604910">
        <ele>412.0600000</ele>
        <time>2010-04-06T13:41:50Z</time>
      </trkpt>
      <trkpt lat="47.8625810" lon="12.9606530">
        <ele>411.1000000</ele>
        <time>2010-04-06T13:41:55Z</time>
      </trkpt>
      <trkpt lat="47.8628030" lon="12.9606770">
        <ele>411.1000000</ele>
        <time>2010-04-06T13:41:59Z</time>
      </trkpt>
      <trkpt lat="47.8630650" lon="12.9607790">
        <ele>411.5800000</ele>
        <time>2010-04-06T13:42:05Z</time>
      </trkpt>
      <trkpt lat="47.8632190" lon="12.9609160">
        <ele>412.0600000</ele>
        <time>2010-04-06T13:42:10Z</time>
      </trkpt>
      <trkpt lat="47.8634430" lon="12.9610620">
        <ele>411.5800000</ele>
        <time>2010-04-06T13:42:15Z</time>
      </trkpt>
      <trkpt lat="47.8637270" lon="12.9613000">
        <ele>411.1000000</ele>
        <time>2010-04-06T13:42:21Z</time>
      </trkpt>
      <trkpt lat="47.8639220" lon="12.9616020">
        <ele>411.1000000</ele>
        <time>2010-04-06T13:42:26Z</time>
      </trkpt>
      <trkpt lat="47.8639830" lon="12.9620100">
        <ele>411.1000000</ele>
        <time>2010-04-06T13:42:31Z</time>
      </trkpt>
      <trkpt lat="47.8640410" lon="12.9624000">
        <ele>410.6200000</ele>
        <time>2010-04-06T13:42:36Z</time>
      </trkpt>
      <trkpt lat="47.8640920" lon="12.9627740">
        <ele>410.6200000</ele>
        <time>2010-04-06T13:42:41Z</time>
      </trkpt>
      <trkpt lat="47.8641790" lon="12.9631670">
        <ele>410.6200000</ele>
        <time>2010-04-06T13:42:46Z</time>
      </trkpt>
      <trkpt lat="47.8642740" lon="12.9635630">
        <ele>410.6200000</ele>
        <time>2010-04-06T13:42:51Z</time>
      </trkpt>
      <trkpt lat="47.8643590" lon="12.9639530">
        <ele>410.1400000</ele>
        <time>2010-04-06T13:42:56Z</time>
      </trkpt>
      <trkpt lat="47.8644880" lon="12.9642790">
        <ele>410.1400000</ele>
        <time>2010-04-06T13:43:01Z</time>
      </trkpt>
      <trkpt lat="47.8647480" lon="12.9645570">
        <ele>409.6600000</ele>
        <time>2010-04-06T13:43:06Z</time>
      </trkpt>
      <trkpt lat="47.8650620" lon="12.9647950">
        <ele>409.6600000</ele>
        <time>2010-04-06T13:43:11Z</time>
      </trkpt>
      <trkpt lat="47.8653320" lon="12.9650730">
        <ele>409.1800000</ele>
        <time>2010-04-06T13:43:16Z</time>
      </trkpt>
      <trkpt lat="47.8655250" lon="12.9654230">
        <ele>409.1800000</ele>
        <time>2010-04-06T13:43:21Z</time>
      </trkpt>
      <trkpt lat="47.8656490" lon="12.9658270">
        <ele>409.6600000</ele>
        <time>2010-04-06T13:43:26Z</time>
      </trkpt>
      <trkpt lat="47.8656780" lon="12.9662640">
        <ele>410.1400000</ele>
        <time>2010-04-06T13:43:31Z</time>
      </trkpt>
      <trkpt lat="47.8656930" lon="12.9667110">
        <ele>409.6600000</ele>
        <time>2010-04-06T13:43:36Z</time>
      </trkpt>
      <trkpt lat="47.8657120" lon="12.9671630">
        <ele>409.6600000</ele>
        <time>2010-04-06T13:43:41Z</time>
      </trkpt>
      <trkpt lat="47.8657280" lon="12.9676120">
        <ele>409.1800000</ele>
        <time>2010-04-06T13:43:46Z</time>
      </trkpt>
      <trkpt lat="47.8657340" lon="12.9680680">
        <ele>409.1800000</ele>
        <time>2010-04-06T13:43:51Z</time>
      </trkpt>
      <trkpt lat="47.8657390" lon="12.9685160">
        <ele>409.1800000</ele>
        <time>2010-04-06T13:43:56Z</time>
      </trkpt>
      <trkpt lat="47.8657470" lon="12.9689580">
        <ele>408.7000000</ele>
        <time>2010-04-06T13:44:01Z</time>
      </trkpt>
      <trkpt lat="47.8657550" lon="12.9694050">
        <ele>408.2200000</ele>
        <time>2010-04-06T13:44:06Z</time>
      </trkpt>
      <trkpt lat="47.8657620" lon="12.9698570">
        <ele>407.2600000</ele>
        <time>2010-04-06T13:44:11Z</time>
      </trkpt>
      <trkpt lat="47.8657670" lon="12.9702940">
        <ele>407.2600000</ele>
        <time>2010-04-06T13:44:16Z</time>
      </trkpt>
      <trkpt lat="47.8657700" lon="12.9707360">
        <ele>407.2600000</ele>
        <time>2010-04-06T13:44:21Z</time>
      </trkpt>
      <trkpt lat="47.8657870" lon="12.9711900">
        <ele>406.2900000</ele>
        <time>2010-04-06T13:44:26Z</time>
      </trkpt>
      <trkpt lat="47.8658350" lon="12.9716660">
        <ele>406.2900000</ele>
        <time>2010-04-06T13:44:31Z</time>
      </trkpt>
      <trkpt lat="47.8658690" lon="12.9721640">
        <ele>405.3300000</ele>
        <time>2010-04-06T13:44:36Z</time>
      </trkpt>
      <trkpt lat="47.8656480" lon="12.9725790">
        <ele>404.8500000</ele>
        <time>2010-04-06T13:44:41Z</time>
      </trkpt>
      <trkpt lat="47.8654700" lon="12.9730560">
        <ele>402.4500000</ele>
        <time>2010-04-06T13:44:46Z</time>
      </trkpt>
      <trkpt lat="47.8653680" lon="12.9736710">
        <ele>401.4900000</ele>
        <time>2010-04-06T13:44:51Z</time>
      </trkpt>
      <trkpt lat="47.8650290" lon="12.9740310">
        <ele>401.4900000</ele>
        <time>2010-04-06T13:44:56Z</time>
      </trkpt>
      <trkpt lat="47.8646720" lon="12.9740330">
        <ele>402.9300000</ele>
        <time>2010-04-06T13:45:01Z</time>
      </trkpt>
      <trkpt lat="47.8643310" lon="12.9740380">
        <ele>405.3300000</ele>
        <time>2010-04-06T13:45:06Z</time>
      </trkpt>
      <trkpt lat="47.8639930" lon="12.9741010">
        <ele>405.8100000</ele>
        <time>2010-04-06T13:45:11Z</time>
      </trkpt>
      <trkpt lat="47.8636780" lon="12.9742230">
        <ele>406.7700000</ele>
        <time>2010-04-06T13:45:16Z</time>
      </trkpt>
      <trkpt lat="47.8633790" lon="12.9744130">
        <ele>406.7700000</ele>
        <time>2010-04-06T13:45:21Z</time>
      </trkpt>
      <trkpt lat="47.8631010" lon="12.9746720">
        <ele>406.7700000</ele>
        <time>2010-04-06T13:45:26Z</time>
      </trkpt>
      <trkpt lat="47.8628400" lon="12.9749680">
        <ele>406.2900000</ele>
        <time>2010-04-06T13:45:31Z</time>
      </trkpt>
      <trkpt lat="47.8625990" lon="12.9752610">
        <ele>407.7400000</ele>
        <time>2010-04-06T13:45:36Z</time>
      </trkpt>
      <trkpt lat="47.8623940" lon="12.9755420">
        <ele>407.2600000</ele>
        <time>2010-04-06T13:45:41Z</time>
      </trkpt>
      <trkpt lat="47.8622240" lon="12.9758260">
        <ele>407.2600000</ele>
        <time>2010-04-06T13:45:46Z</time>
      </trkpt>
      <trkpt lat="47.8620320" lon="12.9761420">
        <ele>407.7400000</ele>
        <time>2010-04-06T13:45:51Z</time>
      </trkpt>
      <trkpt lat="47.8617840" lon="12.9765590">
        <ele>407.7400000</ele>
        <time>2010-04-06T13:45:56Z</time>
      </trkpt>
      <trkpt lat="47.8615570" lon="12.9769340">
        <ele>407.7400000</ele>
        <time>2010-04-06T13:46:01Z</time>
      </trkpt>
      <trkpt lat="47.8613440" lon="12.9772890">
        <ele>407.2600000</ele>
        <time>2010-04-06T13:46:06Z</time>
      </trkpt>
      <trkpt lat="47.8611320" lon="12.9776520">
        <ele>407.2600000</ele>
        <time>2010-04-06T13:46:11Z</time>
      </trkpt>
      <trkpt lat="47.8609270" lon="12.9780100">
        <ele>408.2200000</ele>
        <time>2010-04-06T13:46:16Z</time>
      </trkpt>
      <trkpt lat="47.8607280" lon="12.9783660">
        <ele>408.2200000</ele>
        <time>2010-04-06T13:46:21Z</time>
      </trkpt>
      <trkpt lat="47.8605280" lon="12.9787220">
        <ele>408.2200000</ele>
        <time>2010-04-06T13:46:26Z</time>
      </trkpt>
      <trkpt lat="47.8603410" lon="12.9790790">
        <ele>408.7000000</ele>
        <time>2010-04-06T13:46:31Z</time>
      </trkpt>
      <trkpt lat="47.8601590" lon="12.9794230">
        <ele>408.7000000</ele>
        <time>2010-04-06T13:46:36Z</time>
      </trkpt>
      <trkpt lat="47.8599750" lon="12.9797730">
        <ele>409.1800000</ele>
        <time>2010-04-06T13:46:41Z</time>
      </trkpt>
      <trkpt lat="47.8597900" lon="12.9801410">
        <ele>409.1800000</ele>
        <time>2010-04-06T13:46:46Z</time>
      </trkpt>
      <trkpt lat="47.8596110" lon="12.9805380">
        <ele>408.2200000</ele>
        <time>2010-04-06T13:46:51Z</time>
      </trkpt>
      <trkpt lat="47.8593780" lon="12.9809370">
        <ele>407.2600000</ele>
        <time>2010-04-06T13:46:56Z</time>
      </trkpt>
      <trkpt lat="47.8590190" lon="12.9811240">
        <ele>406.2900000</ele>
        <time>2010-04-06T13:47:01Z</time>
      </trkpt>
      <trkpt lat="47.8586520" lon="12.9811540">
        <ele>407.2600000</ele>
        <time>2010-04-06T13:47:06Z</time>
      </trkpt>
      <trkpt lat="47.8583320" lon="12.9812720">
        <ele>407.2600000</ele>
        <time>2010-04-06T13:47:11Z</time>
      </trkpt>
      <trkpt lat="47.8580240" lon="12.9815000">
        <ele>407.7400000</ele>
        <time>2010-04-06T13:47:16Z</time>
      </trkpt>
      <trkpt lat="47.8577480" lon="12.9817470">
        <ele>408.2200000</ele>
        <time>2010-04-06T13:47:21Z</time>
      </trkpt>
      <trkpt lat="47.8575080" lon="12.9820020">
        <ele>408.7000000</ele>
        <time>2010-04-06T13:47:26Z</time>
      </trkpt>
      <trkpt lat="47.8572810" lon="12.9822680">
        <ele>408.7000000</ele>
        <time>2010-04-06T13:47:31Z</time>
      </trkpt>
      <trkpt lat="47.8570570" lon="12.9825600">
        <ele>408.7000000</ele>
        <time>2010-04-06T13:47:36Z</time>
      </trkpt>
      <trkpt lat="47.8568470" lon="12.9828800">
        <ele>409.1800000</ele>
        <time>2010-04-06T13:47:41Z</time>
      </trkpt>
      <trkpt lat="47.8566460" lon="12.9831890">
        <ele>409.1800000</ele>
        <time>2010-04-06T13:47:46Z</time>
      </trkpt>
      <trkpt lat="47.8564260" lon="12.9834880">
        <ele>409.1800000</ele>
        <time>2010-04-06T13:47:51Z</time>
      </trkpt>
      <trkpt lat="47.8561940" lon="12.9837750">
        <ele>409.6600000</ele>
        <time>2010-04-06T13:47:56Z</time>
      </trkpt>
      <trkpt lat="47.8559360" lon="12.9839940">
        <ele>410.1400000</ele>
        <time>2010-04-06T13:48:01Z</time>
      </trkpt>
      <trkpt lat="47.8556590" lon="12.9841910">
        <ele>410.6200000</ele>
        <time>2010-04-06T13:48:06Z</time>
      </trkpt>
      <trkpt lat="47.8553800" lon="12.9843540">
        <ele>410.6200000</ele>
        <time>2010-04-06T13:48:11Z</time>
      </trkpt>
      <trkpt lat="47.8550980" lon="12.9845020">
        <ele>410.6200000</ele>
        <time>2010-04-06T13:48:16Z</time>
      </trkpt>
      <trkpt lat="47.8548170" lon="12.9846530">
        <ele>410.6200000</ele>
        <time>2010-04-06T13:48:21Z</time>
      </trkpt>
      <trkpt lat="47.8545390" lon="12.9848280">
        <ele>410.6200000</ele>
        <time>2010-04-06T13:48:26Z</time>
      </trkpt>
      <trkpt lat="47.8542630" lon="12.9850190">
        <ele>411.5800000</ele>
        <time>2010-04-06T13:48:31Z</time>
      </trkpt>
      <trkpt lat="47.8539890" lon="12.9852350">
        <ele>411.1000000</ele>
        <time>2010-04-06T13:48:36Z</time>
      </trkpt>
      <trkpt lat="47.8537020" lon="12.9854510">
        <ele>411.1000000</ele>
        <time>2010-04-06T13:48:41Z</time>
      </trkpt>
      <trkpt lat="47.8533940" lon="12.9856400">
        <ele>410.6200000</ele>
        <time>2010-04-06T13:48:46Z</time>
      </trkpt>
      <trkpt lat="47.8530430" lon="12.9857160">
        <ele>410.1400000</ele>
        <time>2010-04-06T13:48:51Z</time>
      </trkpt>
      <trkpt lat="47.8527050" lon="12.9855960">
        <ele>410.1400000</ele>
        <time>2010-04-06T13:48:56Z</time>
      </trkpt>
      <trkpt lat="47.8524320" lon="12.9853240">
        <ele>410.1400000</ele>
        <time>2010-04-06T13:49:01Z</time>
      </trkpt>
      <trkpt lat="47.8521410" lon="12.9854330">
        <ele>410.6200000</ele>
        <time>2010-04-06T13:49:06Z</time>
      </trkpt>
      <trkpt lat="47.8518640" lon="12.9855550">
        <ele>411.1000000</ele>
        <time>2010-04-06T13:49:11Z</time>
      </trkpt>
      <trkpt lat="47.8515880" lon="12.9856640">
        <ele>411.1000000</ele>
        <time>2010-04-06T13:49:16Z</time>
      </trkpt>
      <trkpt lat="47.8513210" lon="12.9857610">
        <ele>411.5800000</ele>
        <time>2010-04-06T13:49:21Z</time>
      </trkpt>
      <trkpt lat="47.8510930" lon="12.9857590">
        <ele>411.5800000</ele>
        <time>2010-04-06T13:49:26Z</time>
      </trkpt>
      <trkpt lat="47.8510370" lon="12.9854160">
        <ele>411.1000000</ele>
        <time>2010-04-06T13:49:31Z</time>
      </trkpt>
      <trkpt lat="47.8511270" lon="12.9850510">
        <ele>411.5800000</ele>
        <time>2010-04-06T13:49:36Z</time>
      </trkpt>
      <trkpt lat="47.8512230" lon="12.9847200">
        <ele>411.5800000</ele>
        <time>2010-04-06T13:49:41Z</time>
      </trkpt>
      <trkpt lat="47.8513120" lon="12.9843420">
        <ele>411.5800000</ele>
        <time>2010-04-06T13:49:46Z</time>
      </trkpt>
      <trkpt lat="47.8513910" lon="12.9839520">
        <ele>411.5800000</ele>
        <time>2010-04-06T13:49:51Z</time>
      </trkpt>
      <trkpt lat="47.8514800" lon="12.9835920">
        <ele>412.0600000</ele>
        <time>2010-04-06T13:49:56Z</time>
      </trkpt>
      <trkpt lat="47.8515730" lon="12.9832560">
        <ele>412.0600000</ele>
        <time>2010-04-06T13:50:01Z</time>
      </trkpt>
      <trkpt lat="47.8516860" lon="12.9829150">
        <ele>412.5400000</ele>
        <time>2010-04-06T13:50:06Z</time>
      </trkpt>
      <trkpt lat="47.8517750" lon="12.9826600">
        <ele>413.5000000</ele>
        <time>2010-04-06T13:50:11Z</time>
      </trkpt>
      <trkpt lat="47.8516830" lon="12.9824630">
        <ele>413.5000000</ele>
        <time>2010-04-06T13:50:16Z</time>
      </trkpt>
      <trkpt lat="47.8515590" lon="12.9822870">
        <ele>413.5000000</ele>
        <time>2010-04-06T13:50:21Z</time>
      </trkpt>
      <trkpt lat="47.8514430" lon="12.9820990">
        <ele>413.9800000</ele>
        <time>2010-04-06T13:50:26Z</time>
      </trkpt>
      <trkpt lat="47.8513110" lon="12.9821420">
        <ele>412.5400000</ele>
        <time>2010-04-06T13:50:31Z</time>
      </trkpt>
      <trkpt lat="47.8512150" lon="12.9824720">
        <ele>411.1000000</ele>
        <time>2010-04-06T13:50:36Z</time>
      </trkpt>
      <trkpt lat="47.8511410" lon="12.9828300">
        <ele>411.1000000</ele>
        <time>2010-04-06T13:50:41Z</time>
      </trkpt>
      <trkpt lat="47.8510600" lon="12.9831440">
        <ele>412.0600000</ele>
        <time>2010-04-06T13:50:46Z</time>
      </trkpt>
      <trkpt lat="47.8510110" lon="12.9833310">
        <ele>412.0600000</ele>
        <time>2010-04-06T13:50:51Z</time>
      </trkpt>
      <trkpt lat="47.8510080" lon="12.9833350">
        <ele>412.0600000</ele>
        <time>2010-04-06T13:50:56Z</time>
      </trkpt>
      <trkpt lat="47.8510080" lon="12.9833350">
        <ele>412.5400000</ele>
        <time>2010-04-06T13:51:01Z</time>
      </trkpt>
      <trkpt lat="47.8510070" lon="12.9833870">
        <ele>411.5800000</ele>
        <time>2010-04-06T13:51:06Z</time>
      </trkpt>
      <trkpt lat="47.8509830" lon="12.9834370">
        <ele>412.0600000</ele>
        <time>2010-04-06T13:51:11Z</time>
      </trkpt>
      <trkpt lat="47.8509800" lon="12.9834430">
        <ele>412.5400000</ele>
        <time>2010-04-06T13:51:16Z</time>
      </trkpt>
    </trkseg>
  </trk>

</gpx>
